[[{"header":{"parameterUnit":"m.s-1","parameterCategory":1,"la1":30.6,"la2":29.2853,"lo1":-89.7004,"lo2":-87.6739,"dy":0.0162,"dx":0.0183,"nx":112,"ny":82,"refTime":"2023-09-28T18:00:00:Z","depth":0,"parameterNumber":2,"parameterNumberName":"U-component_of_WINDS"},"data":[0.0,0.0,0.0,0.0,0.0,0.0,0.0,0.0,0.0,0.0,0.0,0.0,0.0,0.0,0.0,0.0,0.0,0.0,0.0,0.0,0.0,0.0,0.0,0.0,0.0,0.0,0.0,0.0,0.0,0.0,0.0,0.0,0.0,0.0,0.0,0.0,0.0,0.0,0.0,0.0,0.0,0.0,0.0,0.0,0.0,0.0,0.0,0.0,0.0,0.0,0.0,0.0,0.0,0.0,0.0,0.0,0.0,0.0,0.0,0.0,0.0,0.0,0.0,0.0,0.0,0.0,0.0,0.0,0.0,0.0,0.0,0.0,0.0,0.0,0.0,0.0,0.0,0.0,0.0,0.0,0.0,0.0,0.0,0.0,0.0,0.0,0.0,0.0,0.0,0.0,-2.1465,-2.0066,-1.8734,-1.791,-1.791,-1.7714,-1.7608,-1.7608,0.0,0.0,0.0,0.0,0.0,0.0,0.0,0.0,0.0,0.0,0.0,0.0,0.0,0.0,0.0,0.0,0.0,0.0,0.0,0.0,0.0,0.0,0.0,0.0,0.0,0.0,0.0,0.0,0.0,0.0,0.0,0.0,0.0,0.0,0.0,0.0,0.0,0.0,0.0,0.0,0.0,0.0,0.0,0.0,0.0,0.0,0.0,0.0,0.0,0.0,0.0,0.0,0.0,0.0,0.0,0.0,0.0,0.0,0.0,0.0,0.0,0.0,0.0,0.0,0.0,0.0,0.0,0.0,0.0,0.0,0.0,0.0,0.0,0.0,0.0,0.0,0.0,0.0,0.0,0.0,0.0,0.0,0.0,0.0,0.0,0.0,0.0,0.0,0.0,0.0,0.0,0.0,0.0,0.0,0.0,0.0,0.0,0.0,0.0,0.0,0.0,0.0,0.0,0.0,-2.2868,-2.1532,-2.0128,-1.9291,-1.9291,-1.8251,-1.7608,-1.7608,0.0,0.0,0.0,0.0,0.0,0.0,0.0,0.0,0.0,0.0,0.0,0.0,0.0,0.0,0.0,0.0,0.0,0.0,0.0,0.0,0.0,0.0,0.0,0.0,0.0,0.0,0.0,0.0,0.0,0.0,0.0,0.0,0.0,0.0,0.0,0.0,0.0,0.0,0.0,0.0,0.0,0.0,0.0,0.0,0.0,0.0,0.0,0.0,0.0,0.0,0.0,0.0,0.0,0.0,0.0,0.0,0.0,0.0,0.0,0.0,0.0,0.0,0.0,0.0,0.0,0.0,0.0,0.0,0.0,0.0,0.0,0.0,0.0,0.0,0.0,0.0,0.0,0.0,0.0,0.0,0.0,0.0,0.0,0.0,0.0,0.0,0.0,0.0,0.0,0.0,0.0,0.0,0.0,0.0,0.0,0.0,0.0,0.0,0.0,0.0,0.0,0.0,0.0,-2.3459,-2.2391,-2.1769,-2.0436,-1.9602,-1.9602,-1.8382,-1.7608,-1.7608,-1.6962,0.0,0.0,0.0,0.0,0.0,0.0,0.0,0.0,0.0,0.0,0.0,0.0,0.0,0.0,0.0,0.0,0.0,0.0,0.0,0.0,0.0,0.0,0.0,0.0,0.0,0.0,0.0,0.0,0.0,0.0,0.0,0.0,0.0,0.0,0.0,0.0,0.0,0.0,0.0,0.0,0.0,0.0,0.0,0.0,0.0,0.0,0.0,0.0,0.0,0.0,0.0,0.0,0.0,0.0,0.0,0.0,0.0,0.0,0.0,0.0,0.0,0.0,0.0,0.0,0.0,0.0,0.0,0.0,0.0,0.0,0.0,0.0,0.0,0.0,0.0,0.0,0.0,0.0,0.0,0.0,0.0,0.0,0.0,0.0,0.0,0.0,0.0,0.0,0.0,0.0,0.0,0.0,0.0,0.0,0.0,0.0,0.0,0.0,0.0,0.0,0.0,0.0,-2.3285,-2.2642,-2.2642,-2.1405,-2.0436,-2.0102,-1.8864,-1.8068,-1.8068,-1.7766,0.0,0.0,0.0,0.0,0.0,0.0,0.0,0.0,0.0,0.0,0.0,0.0,0.0,0.0,0.0,0.0,0.0,0.0,0.0,0.0,0.0,0.0,0.0,0.0,0.0,0.0,0.0,0.0,0.0,0.0,0.0,0.0,0.0,0.0,0.0,0.0,0.0,0.0,0.0,0.0,0.0,0.0,0.0,0.0,0.0,0.0,0.0,0.0,0.0,0.0,0.0,0.0,0.0,0.0,0.0,0.0,0.0,0.0,0.0,0.0,0.0,0.0,0.0,0.0,0.0,0.0,0.0,0.0,0.0,0.0,0.0,0.0,0.0,0.0,0.0,0.0,0.0,0.0,0.0,0.0,0.0,0.0,0.0,0.0,0.0,0.0,0.0,0.0,0.0,0.0,0.0,0.0,0.0,0.0,0.0,0.0,0.0,0.0,0.0,0.0,0.0,0.0,-2.5479,-2.543,-2.543,-2.4196,-2.2893,-2.1643,-2.0256,-1.9446,-1.9446,-1.8304,0.0,0.0,0.0,0.0,0.0,0.0,0.0,0.0,0.0,0.0,0.0,0.0,0.0,0.0,0.0,0.0,0.0,0.0,0.0,0.0,0.0,0.0,0.0,0.0,0.0,0.0,0.0,0.0,0.0,0.0,0.0,0.0,0.0,0.0,0.0,0.0,0.0,0.0,0.0,0.0,0.0,0.0,0.0,0.0,0.0,0.0,0.0,0.0,0.0,0.0,0.0,0.0,0.0,0.0,0.0,0.0,0.0,0.0,0.0,0.0,0.0,0.0,0.0,0.0,0.0,0.0,0.0,0.0,0.0,0.0,0.0,0.0,0.0,0.0,0.0,0.0,0.0,0.0,0.0,0.0,0.0,0.0,0.0,0.0,0.0,0.0,0.0,0.0,0.0,0.0,0.0,0.0,0.0,0.0,0.0,0.0,0.0,0.0,0.0,0.0,0.0,0.0,-2.5693,-2.5693,0.0,-2.451,-2.3142,-2.1794,-2.041,-1.9239,-1.8408,0.0,0.0,0.0,0.0,0.0,0.0,0.0,0.0,0.0,0.0,0.0,0.0,0.0,0.0,0.0,0.0,0.0,0.0,0.0,0.0,0.0,0.0,0.0,0.0,0.0,0.0,0.0,0.0,0.0,0.0,0.0,0.0,0.0,0.0,0.0,0.0,0.0,0.0,0.0,0.0,0.0,0.0,0.0,0.0,0.0,0.0,0.0,0.0,0.0,0.0,0.0,0.0,0.0,0.0,0.0,0.0,0.0,0.0,0.0,0.0,0.0,0.0,0.0,0.0,0.0,0.0,0.0,0.0,0.0,0.0,0.0,0.0,0.0,0.0,0.0,0.0,0.0,0.0,0.0,0.0,0.0,0.0,0.0,0.0,0.0,0.0,0.0,0.0,0.0,0.0,0.0,0.0,0.0,0.0,0.0,0.0,0.0,0.0,0.0,0.0,0.0,0.0,-2.5069,-2.4682,-2.4436,0.0,-2.3608,-2.2517,-2.1135,-2.0154,-1.9228,-1.8304,0.0,0.0,0.0,0.0,0.0,0.0,0.0,0.0,0.0,0.0,0.0,0.0,0.0,0.0,0.0,0.0,0.0,0.0,0.0,0.0,0.0,0.0,0.0,0.0,0.0,0.0,0.0,0.0,0.0,0.0,0.0,0.0,0.0,0.0,0.0,0.0,0.0,0.0,0.0,0.0,0.0,0.0,0.0,0.0,0.0,0.0,0.0,0.0,0.0,0.0,0.0,0.0,0.0,0.0,0.0,0.0,0.0,0.0,0.0,0.0,0.0,0.0,0.0,0.0,0.0,0.0,0.0,0.0,0.0,0.0,0.0,0.0,0.0,0.0,0.0,0.0,0.0,0.0,0.0,0.0,0.0,0.0,0.0,0.0,0.0,0.0,0.0,0.0,0.0,0.0,0.0,0.0,0.0,0.0,0.0,0.0,0.0,0.0,0.0,0.0,0.0,0.0,-2.3683,-2.2542,-2.1693,-2.1693,-2.1693,-2.1126,-1.9731,-1.9602,-1.9602,0.0,0.0,0.0,0.0,0.0,0.0,0.0,0.0,0.0,0.0,0.0,0.0,0.0,0.0,0.0,0.0,0.0,0.0,0.0,0.0,0.0,0.0,0.0,0.0,0.0,0.0,0.0,0.0,0.0,0.0,0.0,0.0,0.0,0.0,0.0,0.0,0.0,0.0,0.0,0.0,0.0,0.0,0.0,0.0,0.0,0.0,0.0,0.0,0.0,0.0,0.0,0.0,0.0,0.0,0.0,0.0,0.0,0.0,0.0,0.0,0.0,0.0,0.0,0.0,0.0,0.0,0.0,0.0,0.0,0.0,0.0,0.0,0.0,0.0,0.0,0.0,0.0,0.0,0.0,0.0,0.0,0.0,0.0,0.0,0.0,0.0,0.0,0.0,0.0,0.0,0.0,0.0,0.0,0.0,0.0,0.0,0.0,0.0,0.0,0.0,0.0,0.0,0.0,-2.3683,-2.2542,-2.1693,-2.1693,-2.1693,-2.1126,-1.9731,-1.9602,-1.9187,-1.8251,0.0,0.0,0.0,0.0,0.0,0.0,0.0,0.0,0.0,0.0,0.0,0.0,0.0,0.0,0.0,0.0,0.0,0.0,0.0,0.0,0.0,0.0,0.0,0.0,0.0,0.0,0.0,0.0,0.0,0.0,0.0,0.0,0.0,0.0,0.0,0.0,0.0,0.0,0.0,0.0,0.0,0.0,0.0,0.0,0.0,0.0,0.0,0.0,0.0,0.0,0.0,0.0,0.0,0.0,0.0,0.0,0.0,0.0,0.0,0.0,0.0,0.0,0.0,0.0,0.0,0.0,0.0,0.0,0.0,0.0,0.0,0.0,0.0,0.0,0.0,0.0,0.0,0.0,0.0,0.0,0.0,0.0,0.0,0.0,0.0,0.0,0.0,0.0,0.0,0.0,0.0,0.0,0.0,0.0,0.0,0.0,0.0,0.0,0.0,0.0,0.0,0.0,-2.3313,-2.1622,-2.0411,-2.0411,-2.0411,-2.0084,-1.9225,-1.9145,-1.8757,-1.7822,0.0,0.0,0.0,0.0,0.0,0.0,0.0,0.0,0.0,0.0,0.0,0.0,0.0,0.0,0.0,0.0,0.0,0.0,0.0,0.0,0.0,0.0,0.0,0.0,0.0,0.0,0.0,0.0,0.0,0.0,0.0,0.0,0.0,0.0,0.0,0.0,0.0,0.0,0.0,0.0,0.0,0.0,0.0,0.0,0.0,0.0,0.0,0.0,0.0,0.0,0.0,0.0,0.0,0.0,0.0,0.0,0.0,0.0,0.0,0.0,0.0,0.0,0.0,0.0,0.0,0.0,0.0,0.0,0.0,0.0,0.0,0.0,0.0,0.0,0.0,0.0,0.0,0.0,0.0,0.0,0.0,0.0,0.0,0.0,0.0,0.0,0.0,0.0,0.0,0.0,0.0,0.0,0.0,0.0,0.0,0.0,0.0,0.0,0.0,0.0,0.0,0.0,-2.2509,-2.0166,-1.849,-1.849,-1.849,-1.849,-1.849,-1.849,-1.837,-1.8076,0.0,0.0,0.0,0.0,0.0,0.0,0.0,0.0,0.0,0.0,0.0,0.0,0.0,0.0,0.0,0.0,0.0,0.0,0.0,0.0,0.0,0.0,0.0,0.0,0.0,0.0,0.0,0.0,0.0,0.0,0.0,0.0,0.0,0.0,0.0,0.0,0.0,0.0,0.0,0.0,0.0,0.0,0.0,0.0,0.0,0.0,0.0,0.0,0.0,0.0,0.0,0.0,0.0,0.0,0.0,0.0,0.0,0.0,0.0,0.0,-2.5951,0.0,0.0,0.0,0.0,0.0,0.0,0.0,0.0,0.0,0.0,0.0,0.0,0.0,0.0,0.0,0.0,0.0,0.0,0.0,0.0,0.0,0.0,0.0,0.0,0.0,0.0,0.0,0.0,0.0,0.0,0.0,0.0,0.0,0.0,0.0,0.0,0.0,0.0,0.0,0.0,0.0,-2.1113,-1.9524,-1.849,-1.849,-1.849,-1.849,-1.849,-1.849,-1.8464,-1.8397,-1.8397,0.0,0.0,0.0,0.0,0.0,0.0,0.0,0.0,0.0,0.0,0.0,0.0,0.0,0.0,0.0,0.0,0.0,0.0,0.0,0.0,0.0,0.0,0.0,0.0,0.0,0.0,0.0,0.0,0.0,0.0,0.0,0.0,0.0,0.0,0.0,0.0,0.0,0.0,0.0,0.0,0.0,0.0,0.0,0.0,0.0,0.0,0.0,0.0,0.0,0.0,0.0,0.0,0.0,0.0,0.0,0.0,0.0,0.0,0.0,0.0,-2.5661,0.0,0.0,0.0,0.0,0.0,0.0,0.0,0.0,0.0,0.0,0.0,0.0,0.0,0.0,0.0,0.0,0.0,0.0,0.0,0.0,0.0,0.0,0.0,0.0,0.0,0.0,0.0,0.0,0.0,0.0,0.0,0.0,0.0,0.0,0.0,0.0,0.0,0.0,0.0,0.0,-2.1133,-1.9808,-1.8933,-1.8933,-1.8933,-1.8933,-1.8933,-1.8933,-1.8851,-1.8704,-1.8704,0.0,0.0,0.0,0.0,0.0,0.0,0.0,0.0,0.0,0.0,0.0,0.0,0.0,0.0,0.0,0.0,0.0,0.0,0.0,0.0,0.0,0.0,0.0,0.0,0.0,0.0,0.0,0.0,0.0,0.0,0.0,0.0,0.0,0.0,0.0,0.0,0.0,0.0,0.0,0.0,0.0,0.0,0.0,0.0,0.0,0.0,0.0,0.0,0.0,0.0,0.0,0.0,0.0,-2.5283,-2.5161,-2.5161,-2.5161,-2.4409,-2.3232,-2.4563,-2.4378,-2.3279,-2.4494,0.0,0.0,0.0,0.0,0.0,0.0,0.0,0.0,0.0,0.0,0.0,0.0,0.0,0.0,0.0,0.0,0.0,0.0,0.0,0.0,0.0,0.0,0.0,0.0,-1.9548,-1.9872,-2.1046,0.0,0.0,0.0,0.0,0.0,0.0,0.0,0.0,0.0,0.0,0.0,-2.1259,-2.0141,-1.9401,-1.9401,-1.9401,-1.9401,-1.9401,-1.9401,-1.9294,-1.8983,-1.8998,-1.8891,0.0,0.0,0.0,0.0,0.0,0.0,0.0,0.0,0.0,0.0,0.0,0.0,0.0,0.0,0.0,0.0,0.0,0.0,0.0,0.0,0.0,0.0,0.0,0.0,0.0,0.0,0.0,0.0,0.0,0.0,0.0,0.0,-2.5078,-2.5502,0.0,0.0,0.0,0.0,0.0,0.0,0.0,0.0,0.0,0.0,0.0,0.0,0.0,-2.6227,-2.6015,-2.4594,-2.39,-2.39,-2.2435,-2.1758,-2.1758,-2.1758,-2.1632,-2.1443,-2.1664,0.0,-2.1538,-2.3157,0.0,0.0,0.0,0.0,0.0,0.0,0.0,0.0,0.0,0.0,0.0,0.0,0.0,0.0,0.0,0.0,0.0,0.0,0.0,0.0,0.0,0.0,-2.009,-2.009,-2.009,-2.0084,0.0,-1.9854,-1.9707,-1.9707,-1.9678,0.0,0.0,0.0,0.0,0.0,0.0,0.0,-1.9837,-1.9504,-1.9401,-1.9401,-1.9401,-1.9401,-1.9401,-1.9401,-1.9374,-1.9348,-1.9334,-1.9321,-1.9281,-1.9281,0.0,0.0,0.0,0.0,0.0,0.0,0.0,0.0,0.0,0.0,0.0,0.0,0.0,0.0,0.0,0.0,0.0,0.0,0.0,0.0,0.0,0.0,0.0,0.0,0.0,0.0,0.0,0.0,0.0,-2.5152,-2.5152,-2.4435,-2.5783,-2.6871,0.0,0.0,0.0,0.0,0.0,0.0,0.0,0.0,0.0,-2.4686,-2.4655,-2.4193,-2.3248,-2.2546,-2.2184,-2.2184,-2.1443,-2.1109,-2.1109,-2.1109,-2.1109,-2.1109,-2.1109,-2.1109,-2.1172,-2.1884,-2.2184,-2.2247,0.0,0.0,0.0,0.0,-2.1534,-2.0895,-2.0775,-2.0691,-2.0691,-2.0691,0.0,0.0,0.0,0.0,0.0,0.0,0.0,0.0,0.0,0.0,-2.0197,-2.0197,-2.0197,-2.017,-2.0037,-1.9947,-1.976,0.0,-1.9535,-1.9589,-1.9428,0.0,0.0,0.0,0.0,-2.0112,-1.9475,-1.9401,-1.9401,-1.9401,-1.9401,-1.9401,-1.9401,-1.9401,-1.9401,-1.9401,-1.9401,-1.9401,-1.9401,-1.9401,-1.8916,0.0,0.0,0.0,0.0,0.0,0.0,0.0,0.0,0.0,0.0,0.0,0.0,0.0,0.0,0.0,0.0,0.0,0.0,0.0,0.0,0.0,0.0,0.0,0.0,0.0,0.0,0.0,0.0,-2.404,-2.4317,-2.3107,-2.4409,-2.5375,0.0,0.0,0.0,0.0,0.0,0.0,-2.5406,-2.5375,-2.4655,-2.3014,-2.2952,-2.2372,-2.1109,-2.1109,-2.1109,-2.1109,-2.1109,-2.1109,-2.1109,-2.1109,-2.1109,-2.1109,-2.1109,-2.1109,-2.1109,-2.1109,-2.1109,-2.1109,-2.1109,-2.1109,-2.1109,-2.1109,-2.1109,-2.1109,-2.1109,-2.1109,-2.1109,-2.1109,-2.0962,-2.0788,-2.0788,0.0,0.0,0.0,0.0,-1.9106,-1.9106,-1.9106,-1.9229,-1.9673,-1.9766,-1.9863,-2.0239,-2.037,-2.025,0.0,-1.976,-1.984,-1.9626,0.0,0.0,0.0,0.0,-1.9586,-1.9586,-1.9586,-1.9589,-1.9522,-1.9508,-1.9481,-1.9401,-1.9401,-1.9401,-1.9401,-1.901,-1.8794,-1.8794,-1.8386,-1.7601,-1.6403,0.0,0.0,0.0,0.0,0.0,0.0,0.0,0.0,0.0,0.0,0.0,0.0,0.0,0.0,0.0,0.0,0.0,0.0,0.0,0.0,0.0,0.0,0.0,0.0,0.0,0.0,0.0,0.0,0.0,-2.1235,-2.2716,0.0,0.0,0.0,0.0,-2.6015,-2.6015,-2.5314,-2.3822,-2.3729,-2.2952,-2.1299,-2.1235,-2.1204,-2.1109,-2.1109,-2.1109,-2.1109,-2.1109,-2.1109,-2.1109,-2.1109,-2.1109,-2.1109,-2.1109,-2.1109,-2.1109,-2.1109,-2.1109,-2.1109,-2.1109,-2.1109,-2.1109,-2.1109,-2.1109,-2.1109,-2.1109,-2.1109,-2.1109,-2.1109,-2.1096,-2.1082,-2.1082,-1.9903,0.0,0.0,-1.7397,-1.6109,-1.6109,-1.6109,-1.6529,-1.8177,-1.8593,-1.8979,-2.0366,-2.0869,-2.0895,0.0,-2.017,-2.0184,-2.0157,0.0,-2.0157,-2.0157,-2.0157,-2.0157,-2.0157,-2.0157,-2.005,-1.9813,-1.9773,-1.9666,-1.9415,-1.9401,-1.9401,-1.9401,-1.7981,-1.712,-1.712,-1.5636,-1.4807,-1.4718,-1.4718,0.0,0.0,0.0,0.0,0.0,0.0,0.0,0.0,0.0,0.0,0.0,0.0,0.0,0.0,0.0,0.0,0.0,0.0,0.0,0.0,0.0,0.0,0.0,0.0,0.0,0.0,0.0,0.0,-2.1109,-2.1632,0.0,-2.201,-2.2514,-2.2844,-2.2844,-2.2844,-2.2608,-2.2027,-2.201,-2.1727,-2.1109,-2.1109,-2.1109,-2.1109,-2.1109,-2.1109,-2.1109,-2.1109,-2.1109,-2.1109,-2.1109,-2.1109,-2.1109,-2.1109,-2.1109,-2.1109,-2.1109,-2.1109,-2.1109,-2.1109,-2.0417,-1.9419,-1.9419,-1.8736,-1.7763,-1.7763,-1.7763,-1.7763,-1.7763,-1.7763,-1.7763,-1.7763,-1.7313,-1.6818,-1.6818,-1.6366,-1.5913,-1.5913,-1.5913,-1.6043,-1.6689,-1.6818,-1.6958,-1.749,-1.7695,-1.7674,-1.7474,-1.9113,-2.0454,-2.0237,-2.0197,-2.0197,-2.0197,-2.0197,-2.0197,-2.0197,-2.0197,-1.9733,-1.8513,-1.838,-1.7876,-1.6679,-1.6577,-1.6577,-1.6577,-1.603,-1.5715,-1.5715,-1.5094,-1.4238,-1.3186,-1.309,-1.2539,0.0,0.0,0.0,0.0,0.0,0.0,0.0,0.0,0.0,0.0,0.0,0.0,0.0,0.0,0.0,0.0,0.0,0.0,0.0,0.0,0.0,0.0,0.0,0.0,0.0,-2.1109,-2.1109,-2.1109,-2.1109,-2.1109,-2.1109,-2.1109,-2.1109,-2.1109,-2.1109,-2.1109,-2.1109,-2.1109,-2.1109,-2.1109,-2.1109,-2.1109,-2.1109,-2.1109,-2.1109,-2.1109,-2.1109,-2.1109,-2.1109,-2.1109,-2.0779,-2.0227,-2.0227,-1.9909,-1.9355,-1.9355,-1.9355,-1.9387,-2.0005,-1.9152,-1.7634,-1.7634,-1.6883,-1.5913,-1.5913,-1.5913,-1.5913,-1.5913,-1.5913,-1.5913,-1.5913,-1.5492,-1.5005,-1.5005,-1.4591,-1.4166,-1.4166,-1.4166,-1.4297,-1.4874,-1.5005,-1.5167,-1.5784,-1.5913,-1.5913,-1.5913,-1.7628,-1.9005,-1.879,-1.8753,-1.8951,-1.9552,-1.9137,-1.8939,-1.9552,-1.9106,-1.8282,-1.703,-1.6894,-1.6365,-1.5111,-1.5008,-1.5008,-1.5008,-1.451,-1.4229,-1.4229,-1.3602,-1.274,-1.1611,-1.1501,-1.0981,-0.9978,0.0,0.0,0.0,0.0,0.0,0.0,0.0,0.0,0.0,0.0,0.0,0.0,0.0,0.0,0.0,0.0,0.0,0.0,0.0,0.0,0.0,0.0,0.0,-2.0792,-2.1027,-2.1027,-2.1027,-2.1027,-2.1041,-2.1041,-2.1104,-2.1136,-2.1136,-2.1136,-2.1136,-2.1136,-2.1136,-2.1136,-2.1136,-2.1136,-2.1136,-2.1136,-2.1136,-2.1136,-2.1136,-2.1136,-2.1136,-2.1136,-2.1072,-2.0125,-1.8536,-1.846,-1.7496,-1.5901,-1.5891,-1.5859,-1.5988,-1.7731,-1.7345,-1.5816,-1.5816,-1.5784,-1.5751,-1.5751,-1.5751,-1.5751,-1.5751,-1.5751,-1.5751,-1.5751,-1.4558,-1.3226,-1.3226,-1.1992,-1.0684,-1.0684,-1.0684,-1.1148,-1.2832,-1.3226,-1.3676,-1.5362,-1.5751,-1.5751,-1.5751,-1.5751,-1.5784,-1.5881,-1.5913,-1.6463,-1.8148,-1.698,0.0,-1.8212,-1.6947,-1.5768,-1.5461,-1.5441,-1.5288,-1.4891,-1.4872,-1.4872,-1.4872,-1.3465,-1.2626,-1.2626,-1.1134,-1.0215,-0.9997,-1.0028,-1.0103,-1.0315,0.0,0.0,0.0,0.0,0.0,0.0,0.0,0.0,0.0,0.0,0.0,0.0,0.0,0.0,0.0,0.0,0.0,0.0,0.0,0.0,0.0,-1.7862,-1.7511,-1.9008,-1.9289,-1.9358,-1.9358,-1.956,-1.9714,-1.9714,-2.094,-2.175,-2.175,-2.175,-2.175,-2.175,-2.175,-2.175,-2.175,-2.175,-2.175,-2.175,-2.175,-2.175,-2.175,-2.175,-2.175,-2.1704,-2.0338,-1.9472,-1.8944,-1.7564,-1.6722,-1.6245,-1.6128,-1.5309,-1.434,-1.5984,-1.5557,-1.4003,-1.4003,-1.3226,-1.2124,-1.2124,-1.2124,-1.2124,-1.2124,-1.2124,-1.2124,-1.2124,-1.1795,-1.1406,-1.1406,-1.1082,-1.0684,-1.0684,-1.0684,-1.0817,-1.1306,-1.1406,-1.1538,-1.2025,-1.2124,-1.2124,-1.2124,-1.2124,-1.2931,-1.5459,-1.5913,-1.6043,-1.6528,-1.6205,0.0,-1.656,-1.6205,-1.5375,-1.4062,-1.3891,-1.3353,-1.1986,-1.1888,-1.1888,-1.1888,-1.1464,-1.1243,-1.1243,-1.0714,-1.0365,-1.0222,-1.0215,-1.0236,0.0,0.0,0.0,0.0,0.0,0.0,0.0,0.0,0.0,0.0,0.0,0.0,0.0,0.0,0.0,0.0,0.0,0.0,0.0,0.0,0.0,0.0,-1.6006,-1.5615,-1.6425,-1.7235,-1.7752,-1.7752,-1.7917,-1.8027,-1.8027,-1.9009,-1.9642,-1.9642,-1.9642,-1.9642,-1.9642,-1.9642,-1.9642,-1.9642,-1.9642,-1.9642,-1.9642,-1.9642,-1.9642,-1.9642,-1.9642,-1.9642,-1.9609,-1.8541,-1.7624,-1.6884,-1.5769,-1.4887,-1.4207,-1.4094,-1.3452,0.0,0.0,0.0,0.0,0.0,-1.1571,-1.0684,-1.0684,-1.0684,-1.0684,-1.0684,-1.0684,-1.0684,-1.0684,-1.0684,-1.0684,-1.0684,-1.0684,-1.0684,-1.0684,-1.0684,-1.0684,-1.0684,-1.0684,-1.0684,-1.0684,-1.0684,-1.0684,-1.0684,-1.0684,0.0,-1.3357,-1.3709,-1.397,-1.4712,-1.4199,-1.4003,-1.4721,-1.4166,-1.3325,-1.2314,-1.2215,-1.1795,-1.0784,-1.0684,0.0,0.0,0.0,-1.0684,-1.0684,-1.0575,0.0,0.0,0.0,-1.0399,-1.0466,0.0,0.0,0.0,-1.0337,-1.0315,0.0,0.0,0.0,0.0,0.0,0.0,0.0,0.0,0.0,0.0,0.0,0.0,0.0,0.0,0.0,0.0,-1.3702,-1.3564,-1.3564,-1.4882,-1.5929,-1.6103,-1.6157,-1.6176,-1.6176,-1.638,-1.6482,-1.6482,-1.6482,-1.6482,-1.6482,0.0,0.0,0.0,0.0,-1.6482,-1.6482,-1.6482,-1.6482,-1.6482,-1.6482,-1.6482,-1.6482,-1.6278,-1.5326,-1.3873,-1.3633,-1.2678,-1.1247,-1.1234,-1.1213,-1.1303,-1.2586,-1.2112,-1.0772,-1.0772,-1.0772,-1.0732,-1.0718,0.0,0.0,-1.0691,-1.0684,-1.0684,-1.0684,-1.0684,-1.0684,-1.0684,-1.0684,-1.0684,-1.0684,-1.0684,-1.0684,-1.0684,-1.0684,-1.0684,-1.0684,-1.0684,-1.0684,-1.0684,-1.0684,-1.0684,-1.0684,-1.0684,-1.1207,-1.2767,-1.1696,-1.1273,-1.28,-1.1663,-1.0684,-1.0684,0.0,0.0,-1.0684,-1.0684,-1.0684,-1.0684,-1.0684,-1.0684,-1.0684,-1.0588,-1.0582,-1.0684,-1.0588,-1.0582,-1.0684,-1.0684,-1.0684,-1.0677,-1.0453,-1.0363,0.0,0.0,0.0,0.0,0.0,0.0,0.0,0.0,0.0,0.0,0.0,0.0,0.0,0.0,0.0,-1.4287,-1.3003,-1.2023,-1.2023,-1.2336,-1.302,-1.4328,-1.4649,-1.478,-1.478,-1.6174,-1.7057,-1.7057,-1.7057,-1.7057,-1.7057,-1.7057,-1.7057,-1.7057,-1.7057,-1.7057,-1.7057,-1.7057,-1.7057,-1.7057,0.0,0.0,-1.6977,-1.5473,-1.4604,-1.4181,-1.2684,-1.1845,-1.1518,-1.1396,-1.1308,-1.1227,-1.1502,-1.1412,-1.1111,-1.1111,-1.1111,-1.1091,-1.0907,-1.0874,-1.0846,-1.0725,-1.0684,-1.0684,-1.0684,-1.0684,0.0,-1.0684,-1.0684,-1.0684,-1.0684,-1.0684,-1.0684,-1.0684,-1.0684,-1.0684,-1.0684,-1.0684,-1.0684,-1.0684,-1.0684,-1.0684,-1.0684,-1.0684,-1.0817,-1.1141,-1.0916,-1.0817,-1.1141,-1.0916,-1.0684,-1.0684,-1.0684,-1.0684,-1.0684,-1.0684,-1.0684,-1.0684,-1.0684,-1.0684,-1.0684,-1.069,-1.0657,-1.0684,-1.0657,-1.0657,-1.0684,-1.0684,-1.0684,-1.0684,-1.0663,-1.0636,0.0,0.0,0.0,0.0,0.0,0.0,0.0,0.0,0.0,0.0,0.0,-1.4689,-1.5628,0.0,-1.2996,-1.2996,-1.2216,-1.1584,-1.1584,-1.1584,-1.1908,-1.2705,-1.2907,-1.2996,-1.2996,-1.3844,-1.4405,-1.4405,-1.4405,-1.4405,-1.4405,-1.4405,-1.4405,-1.4405,-1.4405,-1.4405,-1.4405,-1.4454,-1.4504,-1.4504,-1.4597,-1.4597,-1.4468,-1.3534,-1.3064,-1.296,-1.2008,-1.1584,-1.1577,-1.1538,-1.1457,-1.1389,-1.1389,-1.1336,-1.12,-1.12,-1.12,-1.1186,-1.1084,-1.1056,-1.1043,-1.0968,-1.0941,-1.0941,-1.0941,-1.0941,-1.0941,-1.0941,-1.0941,-1.0941,-1.0941,-1.0941,-1.0941,-1.0941,-1.0941,-1.0941,-1.0941,-1.0941,-1.0941,-1.0941,-1.0941,-1.0941,-1.0941,-1.0941,-1.0894,-1.0744,-1.0684,-1.0684,-1.0684,-1.0684,-1.0684,-1.0684,-1.0684,-1.0684,-1.0684,-1.0684,-1.0684,-1.0684,-1.0684,-1.0684,-1.0684,-1.0684,-1.0684,-1.0684,-1.0684,-1.0684,-1.0684,-1.0684,-1.0213,-0.9338,-0.9338,-0.9338,0.0,0.0,0.0,0.0,0.0,0.0,0.0,-1.2781,-1.3872,-1.3872,-1.2638,-1.2079,-1.3587,-1.2602,-1.1584,-1.1584,-1.1584,-1.1584,-1.1584,-1.1584,-1.1584,-1.1584,-1.1584,-1.1584,-1.1584,-1.1584,-1.1584,-1.1584,-1.1584,-1.1584,-1.1584,-1.1611,-1.1624,-1.1624,-1.1687,-1.1708,-1.1708,-1.178,-1.1877,-1.1877,-1.2036,-1.2036,-1.1877,-1.1877,-1.1816,-1.1708,-1.1708,-1.1708,-1.1701,-1.1638,-1.1624,-1.1624,-1.1597,-1.147,-1.1288,-1.1288,-1.1288,-1.1281,-1.1254,-1.124,-1.1234,-1.1206,-1.12,-1.12,-1.12,-1.12,-1.12,-1.12,-1.12,-1.12,-1.12,-1.12,-1.12,-1.12,-1.12,-1.12,-1.12,-1.12,-1.12,-1.12,-1.12,-1.12,-1.12,-1.12,-1.1118,-1.0839,-1.0806,-1.0806,-1.0806,-1.0806,-1.0806,-1.0806,-1.0745,-1.0718,-1.0691,-1.0684,-1.0684,-1.0684,-1.0684,-1.0684,-1.0684,-1.0684,-1.0684,-1.0684,-1.0684,-1.0518,-1.018,-1.018,-0.9238,-0.7498,-0.7498,-0.7498,-1.19,-1.19,-1.19,-1.19,-1.2079,-1.2115,0.0,-1.1756,-1.19,-1.19,-1.1763,-1.1655,-1.1864,-1.1727,-1.1584,-1.1584,-1.1584,-1.1584,-1.1584,-1.1584,-1.1584,-1.1584,-1.1584,-1.1584,-1.1584,-1.1584,-1.1584,-1.1584,-1.1584,-1.1584,-1.1584,-1.1705,-1.1773,-1.1773,-1.1938,-1.205,-1.205,-1.2064,-1.207,-1.2077,-1.2091,-1.2091,-1.207,-1.207,-1.2064,-1.205,-1.205,-1.205,-1.2036,-1.1864,-1.1773,-1.1759,-1.1631,-1.1563,-1.1565,-1.1565,-1.1565,-1.1552,-1.1409,-1.1362,-1.1341,-1.124,-1.12,-1.12,-1.12,-1.12,-1.12,-1.12,-1.12,-1.12,-1.12,-1.12,-1.12,-1.12,-1.12,-1.12,-1.12,-1.12,-1.12,-1.12,-1.12,-1.12,-1.12,-1.12,-1.1186,-1.1152,-1.1145,-1.1145,-1.1145,-1.1145,-1.1145,-1.1145,-1.0961,-1.0833,-1.0698,-1.0684,-1.0684,-1.0684,-1.0684,-1.0684,-1.0684,-1.0684,-1.0684,-1.0684,-1.0684,-0.9915,-0.8296,-0.8296,-0.7398,-0.5696,-0.5696,-0.5696,-1.1584,-1.1584,-1.1584,-1.1584,-1.1584,-1.1584,-1.1584,-1.1584,-1.1584,-1.1584,-1.1584,-1.1584,-1.1584,-1.1584,-1.1584,-1.1584,-1.1584,-1.1584,-1.1584,-1.1584,-1.1584,-1.1584,-1.1584,-1.1584,-1.1584,-1.1584,-1.1617,-1.1698,-1.1705,-1.1782,-1.187,-1.1932,-1.1965,-1.1965,-1.2064,-1.2098,-1.2098,-1.2186,-1.2234,-1.2234,-1.2315,-1.2277,-1.2234,-1.2234,-1.2186,-1.2098,-1.2098,-1.2098,-1.2091,-1.1993,-1.1965,-1.1959,-1.1898,-1.1877,-1.1857,-1.1681,-1.1584,-1.1577,-1.1545,-1.1525,-1.1511,-1.145,-1.143,-1.143,-1.143,-1.143,-1.143,-1.143,-1.143,-1.143,-1.143,-1.143,-1.143,-1.143,-1.143,-1.143,-1.143,-1.143,-1.143,-1.143,-1.143,-1.143,-1.143,-1.143,-1.143,-1.143,-1.1308,-1.12,-1.12,-1.12,-1.12,-1.12,-1.1111,-1.105,-1.0982,-1.0975,-1.0975,-1.0975,-1.0975,-1.0975,-1.0975,-1.0867,-1.0819,-1.0819,-0.9719,-0.8767,-0.7997,-0.6998,-0.5563,-0.3823,-0.3823,-0.3255,-1.1651,-1.1681,-1.1681,-1.1681,-1.1681,-1.1651,-1.1728,-1.1742,-1.1742,-1.1742,-1.1742,-1.1742,-1.1742,-1.1742,-1.1742,-1.1742,-1.1742,-1.1742,-1.1742,-1.1701,-1.1694,-1.1735,-1.1701,-1.1694,-1.1735,-1.1701,-1.1735,-1.1884,-1.1898,-1.1945,-1.2091,-1.2139,-1.2166,-1.2166,-1.22,-1.222,-1.222,-1.2291,-1.2345,-1.2352,-1.2454,-1.2447,-1.2345,-1.2345,-1.2291,-1.222,-1.222,-1.222,-1.222,-1.2179,-1.2166,-1.2159,-1.2118,-1.2098,-1.1996,-1.1151,-1.12,-1.1638,-1.1597,-1.1584,-1.1584,-1.1584,-1.1584,-1.1584,-1.1584,-1.1584,-1.1584,-1.1584,-1.1217,-1.0815,-1.0815,-1.0413,-1.0017,-1.0017,-1.0017,-1.0017,-1.0017,-1.0017,-1.0017,-1.0017,-1.0017,-1.0017,-1.0017,-1.0017,-1.0017,-1.0017,-0.9818,-1.0086,-1.1182,-1.1322,-1.1308,-1.1261,-1.1261,-1.124,-1.12,-1.12,-1.12,-1.12,-1.0709,-1.0392,-1.0392,-0.9743,-0.9388,-0.9388,-0.7994,-0.704,-0.6534,-0.5288,-0.3733,-0.1971,-0.1971,-0.1256,-1.1864,-1.1786,-1.1786,-1.1786,-1.1786,-1.1864,-1.205,-1.2084,-1.2084,-1.2084,-1.2084,-1.2084,-1.2084,-1.2084,-1.2084,-1.2084,-1.2084,-1.2084,-1.2084,-1.1918,-1.1877,-1.207,-1.1918,-1.1884,-1.207,-1.1911,-1.1891,-1.2084,-1.2091,-1.2091,-1.2098,-1.2203,-1.2284,-1.2284,-1.242,-1.2488,-1.2488,-1.2494,-1.2494,-1.2494,-1.2501,-1.2501,-1.2494,-1.2494,-1.2494,-1.2488,-1.2488,-1.2488,-1.2474,-1.2338,-1.2284,-1.2271,-1.2159,-1.2098,-1.1836,-0.9751,-1.0193,-1.1766,-1.1667,-1.1584,-1.1584,-1.1584,-1.1584,-1.1584,-1.1584,-1.1584,-1.1584,-1.1584,-1.0233,-0.8776,-0.8776,-0.7399,-0.5989,-0.5989,-0.5989,-0.5989,-0.5989,-0.5989,-0.5989,-0.5989,-0.5989,-0.5989,-0.5989,-0.5989,-0.5989,-0.5989,-0.5986,-0.7323,-1.1096,-1.1606,-1.1552,-1.1402,-1.1382,-1.1321,-1.1206,-1.12,-1.12,-1.12,-0.9417,-0.8372,-0.8372,-0.6588,-0.5577,-0.5577,-0.5507,-0.4603,-0.2864,-0.2794,-0.1853,-0.007,-0.007,-0.007,-1.2036,-1.1986,-1.1986,-1.1986,-1.1986,-1.2036,-1.2084,-1.2098,-1.2098,-1.2098,-1.2098,-1.2098,-1.2098,-1.2098,-1.2098,-1.2098,-1.2098,-1.2098,-1.2098,-1.2057,-1.2006,-1.2091,-1.205,-1.2047,-1.2234,-1.2074,-1.2047,-1.2203,-1.221,-1.2257,-1.2345,-1.2406,-1.2433,-1.2433,-1.2474,-1.2501,-1.2501,-1.2501,-1.2501,-1.2501,-1.2501,-1.2501,-1.2463,-1.1056,-1.043,-1.0391,-0.8983,-0.84,-0.8395,-0.8325,-0.8311,-0.8311,-0.8275,-0.8261,-0.8137,-0.7307,-0.7376,-0.7942,-0.7807,-0.7734,-0.7762,-0.7741,-0.7755,-0.7742,-0.7752,-0.7765,-0.7765,-0.7765,-0.7291,-0.6785,-0.6785,-0.6279,-0.5808,-0.5808,-0.5808,-0.5808,-0.5808,-0.5808,-0.5808,-0.5808,-0.5808,-0.5808,-0.5808,-0.5808,-0.5808,-0.5808,-0.5808,-0.6279,-0.7584,-0.7765,-0.7715,-0.7684,-0.7679,-0.7666,-0.7629,-0.7629,-0.7629,-0.7629,-0.7019,-0.6626,-0.6626,-0.5934,-0.5549,-0.5549,-0.428,-0.332,-0.2693,-0.1506,-0.0596,0.0,0.0,0.0,-1.2193,-1.2179,-1.2179,-1.2179,-1.2179,-1.2193,-1.2247,-1.2254,-1.2254,-1.2254,-1.2254,-1.2254,-1.2254,-1.2254,-1.2254,-1.2254,-1.2254,-1.199,-1.1226,-1.1101,-1.0825,-1.011,-0.9963,-0.9986,-1.0146,-1.0085,-1.0688,-1.2244,-1.2366,-1.2406,-1.2494,-1.2501,-1.2501,-1.2501,-1.2501,-1.2501,-1.2501,-1.2501,-1.2147,-1.1366,-1.0624,-1.0269,-1.023,-0.8905,-0.8283,-0.8205,-0.6878,-0.6293,-0.6293,-0.6293,-0.6293,-0.6293,-0.6293,-0.6293,-0.6173,-0.531,-0.4946,-0.505,-0.561,-0.5801,-0.5794,-0.5789,-0.5809,-0.5803,-0.579,-0.5813,-0.5806,-0.5783,-0.5302,-0.4749,-0.4763,-0.425,-0.3744,-0.3744,-0.3744,-0.3744,-0.3744,-0.3744,-0.3744,-0.3744,-0.3744,-0.3744,-0.3744,-0.3744,-0.3744,-0.3744,-0.3744,-0.4216,-0.5627,-0.5808,-0.5808,-0.5808,-0.5808,-0.5808,-0.5808,-0.5808,-0.5808,-0.5808,-0.5156,-0.4757,-0.4757,-0.4001,-0.3588,-0.3588,-0.2388,-0.174,-0.174,-0.0569,0.0,0.0,0.0,0.0,-1.2026,-1.1993,-1.1993,-1.1993,-1.2069,-1.2179,-1.2313,-1.2424,-1.2501,-1.2501,-1.2501,-1.2501,-1.2501,-1.2424,-1.2347,-1.2347,-1.2263,-1.1482,-0.9532,-0.9126,-0.8367,-0.652,-0.6116,-0.6099,-0.6286,-0.6293,-0.7933,-1.1876,-1.2185,-1.2185,-1.2185,-1.2185,-1.2185,-1.2185,-1.2185,-1.2185,-1.2185,-1.2185,-1.1172,-0.9216,-0.7228,-0.6293,-0.6293,-0.6176,-0.6137,-0.6137,-0.602,-0.5984,-0.5984,-0.5984,-0.5984,-0.5984,-0.5984,-0.5984,-0.5747,-0.3677,-0.2936,-0.3198,-0.491,-0.5512,-0.5509,-0.5506,-0.5506,-0.5503,-0.55,-0.55,-0.5487,-0.5499,-0.4189,-0.2738,-0.2741,-0.1387,0.0,0.0,0.0,0.0,0.0,0.0,0.0,0.0,0.0,0.0,0.0,0.0,0.0,0.0,0.0,-0.1348,-0.5011,-0.5518,-0.5518,-0.5518,-0.5518,-0.5518,-0.5518,-0.5518,-0.5518,-0.5518,-0.3778,-0.2763,-0.2763,-0.0984,0.0,0.0,0.0,0.0,0.0,0.0,0.0,0.0,0.0,0.0,-0.7825,-0.7821,-0.7821,-0.7821,-0.8983,-1.0158,-1.0186,-1.1405,-1.2501,-1.2501,-1.2501,-1.2501,-1.2501,-1.125,-1.0192,-1.0192,-0.8905,-0.7695,-0.7154,-0.7053,-0.6855,-0.6371,-0.6237,-0.6234,-0.6293,-0.6293,-0.6722,-0.7812,-0.7894,-0.7894,-0.7894,-0.7894,-0.7894,-0.7894,-0.7894,-0.7894,-0.7894,-0.7894,-0.7617,-0.7072,-0.657,-0.6293,-0.6254,-0.4654,-0.3912,-0.3834,-0.2272,-0.1607,-0.1607,-0.1607,-0.1607,-0.1607,-0.1607,-0.1607,-0.153,-0.0981,-0.0784,-0.0862,-0.1324,-0.1476,-0.1474,-0.146,-0.1495,-0.1491,-0.1478,-0.1475,-0.1474,-0.1469,-0.1129,-0.0752,-0.0751,-0.0375,0.0,0.0,0.0,0.0,0.0,0.0,0.0,0.0,0.0,0.0,0.0,0.0,0.0,0.0,0.0,-0.0365,-0.1348,-0.1494,-0.1494,-0.1494,-0.1494,-0.1494,-0.1494,-0.1494,-0.1494,-0.1494,-0.102,-0.0729,-0.0729,-0.0255,0.0,0.0,0.0,0.0,0.0,0.0,0.0,0.0,0.0,0.0,-0.6293,-0.6293,-0.6293,-0.6293,-0.7193,-0.805,-0.805,-0.8944,-1.0036,-1.0934,-1.1134,-1.1405,-1.2347,-1.0818,-0.9415,-0.9415,-0.7661,-0.5981,-0.5045,-0.4888,-0.4576,-0.364,-0.3523,-0.3523,-0.3523,-0.3523,-0.3523,-0.3523,-0.524,-0.6293,-0.6293,-0.6293,-0.6293,-0.6293,-0.6293,-0.6293,-0.6293,-0.5357,-0.4888,-0.4888,-0.3953,-0.3523,-0.3484,-0.2272,-0.1724,-0.1686,0.0,0.0,0.0,0.0,0.0,0.0,0.0,0.0,0.0,0.0,0.0,0.0,0.0,0.0,0.0,0.0,0.0,0.0,0.0,0.0,0.0,0.0,0.0,0.0,0.0,0.0,0.0,0.0,0.0,0.0,0.0,0.0,0.0,0.0,0.0,0.0,0.0,0.0,0.0,0.0,0.0,0.0,0.0,0.0,0.0,0.0,0.0,0.0,0.0,0.0,0.0,0.0,0.0,0.0,0.0,0.0,0.0,0.0,0.0,0.0,0.0,0.0,0.0,0.0,0.0,0.0,-0.5477,-0.5477,-0.5477,-0.5477,-0.5669,-0.5864,-0.5864,-0.6098,-0.68,-0.8633,-0.8983,-0.9532,-1.1327,-0.9959,-0.8555,-0.8555,-0.6839,-0.481,-0.2936,-0.2701,-0.2037,-0.0196,0.0,0.0,0.0,0.0,0.0,0.0,-0.3406,-0.5477,-0.5477,-0.5477,-0.5477,-0.5477,-0.5477,-0.5477,-0.5477,-0.3599,-0.2701,-0.2662,-0.0863,0.0,0.0,0.0,0.0,0.0,0.0,0.0,0.0,0.0,0.0,0.0,0.0,0.0,0.0,0.0,0.0,0.0,0.0,0.0,0.0,0.0,0.0,0.0,0.0,0.0,0.0,0.0,0.0,0.0,0.0,0.0,0.0,0.0,0.0,0.0,0.0,0.0,0.0,0.0,0.0,0.0,0.0,0.0,0.0,0.0,0.0,0.0,0.0,0.0,0.0,0.0,0.0,0.0,0.0,0.0,0.0,0.0,0.0,0.0,0.0,0.0,0.0,0.0,0.0,0.0,0.0,0.0,0.0,0.0,0.0,0.0,-0.1098,-0.1098,-0.1098,-0.1098,-0.239,-0.3638,-0.3638,-0.5045,-0.641,-0.6764,-0.6839,-0.6956,-0.7306,-0.563,-0.4183,-0.4183,-0.2468,-0.0981,-0.0589,-0.0549,-0.0392,-0.0039,0.0,0.0,0.0,0.0,0.0,0.0,-0.0667,-0.1098,-0.1098,-0.1098,-0.1098,-0.1098,-0.1098,-0.1098,-0.1098,-0.0706,-0.0549,-0.0549,-0.0157,0.0,0.0,0.0,0.0,0.0,0.0,0.0,0.0,0.0,0.0,0.0,0.0,0.0,0.0,0.0,0.0,0.0,0.0,0.0,0.0,0.0,0.0,0.0,0.0,0.0,0.0,0.0,0.0,0.0,0.0,0.0,0.0,0.0,0.0,0.0,0.0,0.0,0.0,0.0,0.0,0.0,0.0,0.0,0.0,0.0,0.0,0.0,0.0,0.0,0.0,0.0,0.0,0.0,0.0,0.0,0.0,0.0,0.0,0.0,0.0,0.0,0.0,0.0,0.0,0.0,0.0,0.0,0.0,0.0,0.0,0.0,0.0,0.0,0.0,0.0,-0.0746,-0.149,-0.149,-0.2272,-0.3327,-0.442,-0.4654,-0.4967,-0.6098,-0.4537,-0.3091,-0.3091,-0.1372,0.0,0.0,0.0,0.0,0.0,0.0,0.0,0.0,0.0,0.0,0.0,0.0,0.0,0.0,0.0,0.0,0.0,0.0,0.0,0.0,0.0,0.0,0.0,0.0,0.0,0.0,0.0,0.0,0.0,0.0,0.0,0.0,0.0,0.0,0.0,0.0,0.0,0.0,0.0,0.0,0.0,0.0,0.0,0.0,0.0,0.0,0.0,0.0,0.0,0.0,0.0,0.0,0.0,0.0,0.0,0.0,0.0,0.0,0.0,0.0,0.0,0.0,0.0,0.0,0.0,0.0,0.0,0.0,0.0,0.0,0.0,0.0,0.0,0.0,0.0,0.0,0.0,0.0,0.0,0.0,0.0,0.0,0.0,0.0,0.0,0.0,0.0,0.0,0.0,0.0,0.0,0.0,0.0,0.0,0.0,0.0,0.0,0.0,0.0,0.0,0.0,0.0,0.0,-0.0471,-0.2115,-0.2427,-0.2936,-0.4657,-0.3562,-0.2427,-0.2427,-0.1059,0.0,0.0,0.0,0.0,0.0,0.0,0.0,0.0,0.0,0.0,0.0,0.0,0.0,0.0,0.0,0.0,0.0,0.0,0.0,0.0,0.0,0.0,0.0,0.0,0.0,0.0,0.0,0.0,0.0,0.0,0.0,0.0,0.0,0.0,0.0,0.0,0.0,0.0,0.0,0.0,0.0,0.0,0.0,0.0,0.0,0.0,0.0,0.0,0.0,0.0,0.0,0.0,0.0,0.0,0.0,0.0,0.0,0.0,0.0,0.0,0.0,0.0,0.0,0.0,0.0,0.0,0.0,0.0,0.0,0.0,0.0,0.0,0.0,0.0,0.0,0.0,0.0,0.0,0.0,0.0,0.0,0.0,0.0,0.0,0.0,0.0,0.0,0.0,0.0,0.0,0.0,0.0,0.0,0.0,0.0,0.0,0.0,0.0,0.0,0.0,0.0,0.0,0.0,-0.0039,-0.0236,-0.0275,-0.0353,-0.0549,-0.0432,-0.0275,-0.0275,-0.0118,0.0,0.0,0.0,0.0,0.0,0.0,0.0,0.0,0.0,0.0,0.0,0.0,0.0,0.0,0.0,0.0,0.0,0.0,0.0,0.0,0.0,0.0,0.0,0.0,0.0,0.0,0.0,0.0,0.0,0.0,0.0,0.0,0.0,0.0,0.0,0.0,0.0,0.0,0.0,0.0,0.0,0.0,0.0,0.0,0.0,0.0,0.0,0.0,0.0,0.0,0.0,0.0,0.0,0.0,0.0,0.0,0.0,0.0,0.0,0.0,0.0,0.0,0.0,0.0,0.0,0.0,0.0,0.0,0.0,0.0,0.0,0.0,0.0,0.0,0.0,0.0,0.0,0.0,0.0,0.0,0.0,0.0,0.0,0.0,0.0,0.0,0.0,0.0,0.0,0.0,0.0,0.0,0.0,0.0,0.0,0.0,0.0,0.0,0.0,0.0,0.0,0.0,0.0,0.0,0.0,0.0,0.0,0.0,0.0,0.0,0.0,0.0,0.0,0.0,0.0,0.0,0.0,0.0,0.0,0.0,0.0,0.0,0.0,0.0,0.0,0.0,0.0,0.0,0.0,0.0,0.0,0.0,0.0,0.0,0.0,0.0,0.0,0.0,0.0,0.0,0.0,0.0,0.0,0.0,0.0,0.0,0.0,0.0,0.0,0.0,0.0,0.0,0.0,0.0,0.0,0.0,0.0,0.0,0.0,0.0,0.0,0.0,0.0,0.0,0.0,0.0,0.0,0.0,0.0,0.0,0.0,0.0,0.0,0.0,0.0,0.0,0.0,0.0,0.0,0.0,0.0,0.0,0.0,0.0,0.0,0.0,0.0,0.0,0.0,0.0,0.0,0.0,0.0,0.0,0.0,0.0,0.0,0.0,0.0,0.0,0.0,0.0,0.0,0.0,0.0,0.0,0.0,0.0,0.0,0.0,0.0,0.0,0.0,0.0,0.0,0.0,0.0,0.0,0.0,0.0,0.0,0.0,0.0,0.0,0.0,0.0,0.0,0.0,0.0,0.0,0.0,0.0,0.0,0.0,0.0,0.0,0.0,0.0,0.0,0.0,0.0,0.0,0.0,0.0,0.0,0.0,0.0,0.0,0.0,0.0,0.0,0.0,0.0,0.0,0.0,0.0,0.0,0.0,0.0,0.0,0.0,0.0,0.0,0.0,0.0,0.0,0.0,0.0,0.0,0.0,0.0,0.0,0.0,0.0,0.0,0.0,0.0,0.0,0.0,0.0,0.0,0.0,0.0,0.0,0.0,0.0,0.0,0.0,0.0,0.0,0.0,0.0,0.0,0.0,0.0,0.0,0.0,0.0,0.0,0.0,0.0,0.0,0.0,0.0,0.0,0.0,0.0,0.0,0.0,0.0,0.0,0.0,0.0,0.0,0.0,0.0,0.0,0.0,0.0,0.0,0.0,0.0,0.0,0.0,0.0,0.0,0.0,0.0,0.0,0.0,0.0,0.0,0.0,0.0,0.0,0.0,0.0,0.0,0.0,0.0,0.0,0.0,0.0,0.0,0.0,0.0,0.0,0.0,0.0,0.0,0.0,0.0,0.0,0.0,0.0,0.0,0.0,0.0,0.0,0.0,0.0,0.0,0.0,0.0,0.0,0.0,0.0,0.0,0.0,0.0,0.0,0.0,0.0,0.0,0.0,0.0,0.0,0.0,0.0,0.0,0.0,0.0,0.0,0.0,0.0,0.0,0.0,0.0,0.0,0.0,0.0,0.0,0.0,0.0,0.0,0.0,0.0,0.0,0.0,0.0,0.0,0.0,0.0,0.0,0.0,0.0,0.0,0.0,0.0,0.0,0.0,0.0,0.0,0.0,0.0,0.0,0.0,0.0,0.0,0.0,0.0,0.0,0.0,0.0,0.0,0.0,0.0,0.0,0.0,0.0,0.0,0.0,0.0,0.0,0.0,0.0,0.0,0.0,0.0,0.0,0.0,0.0,0.0,0.0,0.0,0.0,0.0,0.0,0.0,0.0,0.0,0.0,0.0,0.0,0.0,0.0,0.0,0.0,0.0,0.0,0.0,0.0,0.0,0.0,0.0,0.0,0.0,0.0,0.0,0.0,0.0,0.0,0.0,0.0,0.0,0.0,0.0,0.0,0.0,0.0,0.0,0.0,0.0,0.0,0.0,0.0,0.0,0.0,0.0,0.0,0.0,0.0,0.0,0.0,0.0,0.0,0.0,0.0,0.0,0.0,0.0,0.0,0.0,0.0,0.0,0.0,0.0,0.0,0.0,0.0,0.0,0.0,0.0,0.0,0.0,0.0,0.0,0.0,0.0,0.0,0.0,0.0,0.0,0.0,0.0,0.0,0.0,0.0,0.0,0.0,0.0,0.0,0.0,0.0,0.0,0.0,0.0,0.0,0.0,0.0,0.0,0.0,0.0,0.0,0.0,0.0,0.0,0.0,0.0,0.0,0.0,0.0,0.0,0.0,0.0,0.0,0.0,0.0,0.0,0.0,0.0,0.0,0.0,0.0,0.0,0.0,0.0,0.0,0.0,0.0,0.0,0.0,0.0,0.0,0.0,0.0,0.0,0.0,0.0,0.0,0.0,0.0,0.0,0.0,0.0,0.0,0.0,0.0,0.0,0.0,0.0,0.0,0.0,0.0,0.0,0.0,0.0,0.0,0.0,0.0,0.0,0.0,0.0,0.0,0.0,0.0,0.0,0.0,0.0,0.0,0.0,0.0,0.0,0.0,0.0,0.0,0.0,0.0,0.0,0.0,0.0,0.0,0.0,0.0,0.0,0.0,0.0,0.0,0.0,0.0,0.0,0.0,0.0,0.0,0.0,0.0,0.0,0.0,0.0,0.0,0.0,0.0,0.0,0.0,0.0,0.0,0.0,0.0,0.0,0.0,0.0,0.0,0.0,0.0824,0.1172,0.0,0.0,0.0,0.0,0.0,0.0,0.0,0.0,0.0,0.0,0.0,0.0,0.0,0.0,0.0,0.0,0.0,0.0,0.0,0.0,0.0,0.0,0.0,0.0,0.0,0.0,0.0,0.0,0.0,0.0,0.0,0.0,0.0,0.0,0.0,0.0,0.0,0.0,0.0,0.0,0.0,0.0,0.0,0.0,0.0,0.0,0.0,0.0,0.0,0.0,0.0,0.0,0.0,0.0,0.0,0.0,0.0,0.0,0.0,0.0,0.0,0.0,0.0,0.0,0.0,0.0,0.0,0.0,0.0,0.0,0.0,0.0,0.0,0.0,0.0,0.0,0.0,0.0,0.0,0.0,0.0,0.0,0.0,0.0,0.0,0.0,0.0,0.0,0.0,0.0,0.0,0.0,0.0,0.0,0.0,0.0,0.0,0.0,0.0,0.0,0.0,0.0,0.0,0.0,0.0,0.0,0.0,0.0,0.0079,0.0275,0.2194,0.3169,0.0,0.0,0.0,0.0,0.0,0.0,0.0,0.0,0.0,0.0,0.0,0.0,0.0,0.0,0.0,0.0,0.0,0.0,0.0,0.0,0.0,0.0,0.0,0.0,0.0,0.0,0.0,0.0,0.0,0.0,0.0,0.0,0.0,0.0,0.0,0.0,0.0,0.0,0.0,0.0,0.0,0.0,0.0,0.0,0.0,0.0,0.0,0.0,0.0,0.0,0.0,0.0,0.0,0.0,0.0,0.0,0.0,0.0,0.0,0.0,0.0,0.0,0.0,0.0,0.0,0.0,0.0,0.0,0.0,0.0,0.0,0.0,0.0,0.0,0.0,0.0,0.0,0.0,0.0,0.0,0.0,0.0,0.0,0.0,0.0,0.0,0.0,0.0,0.0,0.0,0.0,0.0,0.0,0.0,0.0,0.0,0.0,0.0,0.0,0.0,0.0,0.0,0.0,0.0,0.0,0.0,0.0,0.0,0.0824,0.2388,0.2858,0.399,0.0,0.0,0.0,0.0,0.0,0.0,0.0,0.0,0.0,0.0,0.0,0.0,0.0,0.0,0.0,0.0,0.0,0.0,0.0,0.0,0.0,0.0,0.0,0.0,0.0,0.0,0.0,0.0,0.0,0.0,0.0,0.0,0.0,0.0,0.0,0.0,0.0,0.0,0.0,0.0,0.0,0.0,0.0,0.0,0.0,0.0,0.0,0.0,0.0,0.0,0.0,0.0,0.0,0.0,0.0,0.0,0.0,0.0,0.0,0.0,0.0,0.0,0.0,0.0,0.0,0.0,0.0,0.0,0.0,0.0,0.0,0.0,0.0,0.0,0.0,0.0,0.0,0.0,0.0,0.0,0.0,0.0,0.0,0.0,0.0,0.0,0.0,0.0,0.0,0.0,0.0,0.0,0.0,0.0,0.0,0.0,0.0,0.0,0.0,0.0,0.0,0.0,0.0432,0.1411,0.239,0.2899,0.2899,0.2899,0.3484,0.4576,0.5549,0.6601,0.0,0.0,0.0,0.0,0.0,0.0,0.0,0.0,0.0,0.0,0.0,0.0,0.0,0.0,0.0,0.0,0.0,0.0,0.0,0.0,0.0,0.0,0.0,0.0,0.0,0.0,0.0,0.0,0.0,0.0,0.0,0.0314,0.0471,0.0471,0.0785,0.0981,0.0981,0.0314,0.0,0.0,0.0,0.0,0.0,0.0,0.0,0.0,0.0,0.0,0.0,0.0,0.0,0.0,0.0,0.0,0.0,0.0,0.0196,0.051,0.0863,0.0981,0.0981,0.0981,0.0981,0.0981,0.0981,0.0981,0.0981,0.0981,0.051,0.0,0.0,0.0,0.0,0.0,0.0,0.0,0.0,0.0,0.0,0.0,0.0,0.0,0.0,0.0,0.0,0.0,0.0,0.0,0.0,0.0275,0.0353,0.0039,0.0589,0.0824,0.051,0.0785,0.0981,0.0981,0.0667,0.0628,0.0941,0.0981,0.1803,0.356,0.5357,0.6293,0.6293,0.6293,0.6449,0.68,0.8594,0.9571,0.0,0.0,0.0,0.0,0.0,0.0,0.0,0.0,0.0,0.0,0.0,0.0,0.0,0.0,0.0,0.0,0.0,0.0,0.0,0.0,0.0,0.0,0.0,0.0,0.0,0.0,0.0,0.0,0.0,0.0,0.0,0.1686,0.2623,0.2623,0.4381,0.5321,0.5321,0.1803,0.0,0.0,0.0,0.0,0.0,0.0,0.0,0.0,0.0,0.0,0.0,0.0,0.0,0.0,0.0,0.0,0.0,0.0,0.1098,0.2897,0.4693,0.5321,0.5321,0.5321,0.5321,0.5321,0.5321,0.5321,0.5321,0.5321,0.2742,0.0,0.0,0.0,0.0,0.0,0.0,0.0,0.0,0.0,0.0,0.0,0.0,0.0,0.0,0.0,0.0,0.0,0.0,0.0,0.0,0.1529,0.1959,0.0196,0.3212,0.4615,0.278,0.4303,0.5321,0.5321,0.3638,0.3445,0.524,0.5321,0.5474,0.5786,0.6137,0.6293,0.6293,0.6293,0.7189,0.8944,0.9255,1.0352,0.0,0.0,0.0,0.0,0.0,0.0,0.0,0.0,0.0,0.0,0.0,0.0353,0.145,0.1686,0.2037,0.321,0.3406,0.3406,0.3406,0.3406,0.3406,0.3406,0.3406,0.3406,0.3406,0.3406,0.3406,0.3406,0.3406,0.3406,0.3406,0.4303,0.481,0.481,0.5786,0.6293,0.6293,0.4383,0.3406,0.3406,0.3406,0.3406,0.3406,0.3406,0.3406,0.3406,0.0,0.3406,0.3406,0.3406,0.3406,0.3406,0.3406,0.3406,0.3406,0.3406,0.3992,0.4967,0.5942,0.6293,0.6293,0.6293,0.6293,0.6293,0.6293,0.6293,0.6293,0.6293,0.4891,0.3133,0.1959,0.2546,0.282,0.0549,0.1725,0.3093,0.192,0.2585,0.3406,0.3406,0.3406,0.3406,0.3406,0.3406,0.3406,0.3406,0.3406,0.3406,0.3406,0.4224,0.4459,0.3523,0.5123,0.5903,0.4927,0.5747,0.6293,0.6293,0.5357,0.5279,0.6254,0.7388,0.7972,0.7972,0.9061,0.9648,0.9648,0.9648,1.0153,1.1095,1.1095,1.1598,0.0,0.0,0.0,0.0,0.0,0.0,0.0,0.0392,0.0746,0.0746,0.1137,0.196,0.356,0.3834,0.4381,0.602,0.6293,0.6293,0.6293,0.6293,0.6293,0.6293,0.6293,0.6293,0.6293,0.6293,0.6293,0.6293,0.6293,0.6293,0.6293,0.6764,0.7033,0.7033,0.7501,0.7738,0.7738,0.7738,0.7271,0.6293,0.6293,0.6293,0.6293,0.6293,0.6293,0.6293,0.6293,0.6293,0.6293,0.6293,0.6293,0.6293,0.6293,0.6293,0.6371,0.6839,0.7033,0.7111,0.7583,0.7738,0.7738,0.7738,0.7738,0.7738,0.7738,0.7738,0.7738,0.7738,0.7738,0.715,0.4537,0.5084,0.5474,0.2233,0.3953,0.5864,0.4185,0.5123,0.6293,0.6293,0.6293,0.6293,0.6293,0.6293,0.6293,0.6293,0.6293,0.6293,0.6293,0.6722,0.6839,0.6332,0.7154,0.7738,0.7738,0.7738,0.7738,0.7738,0.7738,0.7738,0.7738,0.9294,1.0114,1.0114,1.1682,1.2501,1.2501,1.2501,1.2501,1.2501,1.2501,1.2501,0.0,0.0,0.0,0.0,0.0,0.0,0.0,0.149,0.2897,0.2897,0.4459,0.5903,0.6059,0.6059,0.6137,0.6254,0.6293,0.6293,0.6293,0.6293,0.6293,0.6293,0.6293,0.6293,0.6293,0.6293,0.6293,0.6293,0.6293,0.6293,0.6293,0.8128,0.9177,0.9177,1.105,1.203,1.203,1.203,1.0114,0.6293,0.6293,0.6293,0.6293,0.6293,0.6293,0.6293,0.6293,0.6293,0.6293,0.6293,0.6293,0.6293,0.6293,0.6293,0.6531,0.8478,0.9177,0.9449,1.1366,1.203,1.203,1.203,1.203,1.203,1.203,1.203,1.203,1.203,1.203,1.1134,0.7111,0.6176,0.6218,0.5903,0.6062,0.6254,0.6098,0.6179,0.6293,0.6293,0.6293,0.6293,0.6293,0.6293,0.6293,0.6293,0.6293,0.6293,0.6293,0.7972,0.8439,0.6488,0.9765,1.203,1.203,1.203,1.203,1.203,1.203,1.203,1.203,1.2185,1.2269,1.2269,1.2424,1.2501,1.2501,1.2501,1.2501,1.2501,1.2501,1.2501,0.0,0.0941,0.192,0.192,0.2936,0.3562,0.2233,0.2545,0.3482,0.481,0.5747,0.6683,0.7972,0.9294,1.0153,1.0153,1.0153,1.0153,1.0153,1.0153,1.0153,1.0153,1.0153,1.0153,1.0153,1.0153,1.0153,1.0153,1.0153,1.0153,1.0153,1.0895,1.1327,1.1327,1.2069,1.2501,1.2501,1.2501,1.1721,1.0153,1.0153,1.0153,1.0153,1.0153,1.0153,1.0153,1.0153,1.0153,1.0153,1.0153,1.0153,1.0153,1.0153,1.0153,1.023,1.105,1.1327,1.1443,1.2231,1.2501,1.2501,1.2501,1.2501,1.2501,1.2501,1.2501,1.2501,1.2501,1.2501,1.1837,0.8983,0.9177,0.9493,0.6917,0.8283,0.9804,0.8517,0.926,1.0153,1.0153,1.0153,1.0153,1.0153,1.0153,1.0153,1.0153,1.0153,1.0153,1.0153,1.0856,1.1011,1.023,1.156,1.2501,1.2501,1.2501,1.2501,1.2501,1.2501,1.2501,1.2501,1.2501,1.2501,1.2501,1.2501,1.2501,1.2501,1.2501,1.2501,1.2501,1.2501,1.2501,0.0981,0.2506,0.4107,0.4107,0.5201,0.6098,0.5276,0.5081,0.551,0.6995,0.7812,0.8711,1.0114,1.1521,1.2501,1.2501,1.2501,1.2501,1.2501,1.2501,1.2501,1.2501,1.2501,1.2501,1.2501,1.2501,1.2501,1.2501,1.2501,1.2501,1.2501,1.2501,1.2501,1.2501,1.2501,1.2501,1.2501,1.2501,1.2501,1.2501,1.2501,1.2501,1.2501,1.2501,1.2501,1.2501,1.2501,1.2501,1.2501,1.2501,1.2501,1.2501,1.2501,1.2501,1.2501,1.2501,1.2501,1.2501,1.2501,1.2501,1.2501,1.2501,1.2501,1.2508,1.2562,1.2576,1.2583,1.263,1.2644,1.2331,1.0902,1.1512,1.1798,0.8944,1.043,1.2108,1.0701,1.1482,1.2501,1.2501,1.2501,1.2501,1.2501,1.2501,1.2501,1.2501,1.2501,1.2501,1.2501,1.2501,1.2501,1.2501,1.2501,1.2501,1.2501,1.2501,1.2501,1.2501,1.2501,1.2501,1.2501,1.2501,1.2501,1.2501,1.2501,1.2501,1.2501,1.2501,1.2501,1.2501,1.2501,1.2501,0.313,0.4693,0.6336,0.6336,0.6336,0.6878,0.8944,0.9415,0.9415,0.9415,1.1056,1.2501,1.2501,1.2501,1.2501,1.2501,1.2501,1.2501,1.2501,1.2501,1.2501,1.2501,1.2501,1.2501,1.2501,1.2501,1.2501,1.2501,1.2501,1.2501,1.2501,1.2501,1.2501,1.2501,1.2501,1.2501,1.2501,1.2501,1.2501,1.2501,1.2501,1.2501,1.2501,1.2501,1.2501,1.2501,1.2501,1.2501,1.2501,1.2501,1.2501,1.2501,1.2501,1.2501,1.2501,1.2501,1.2501,1.2501,1.2501,1.2501,1.2501,1.2501,1.2508,1.2535,1.2645,1.2693,1.2726,1.2955,1.3003,1.3003,1.3003,1.2732,1.2508,1.2508,1.2508,1.2508,1.2508,1.2508,1.2501,1.2501,1.2501,1.2501,1.2501,1.2501,1.2501,1.2501,1.2501,1.2501,1.2501,1.2501,1.2501,1.2501,1.2501,1.2501,1.2501,1.2501,1.2501,1.2501,1.2501,1.2501,1.2501,1.2501,1.2501,1.2501,1.2501,1.2501,1.2501,1.2501,1.2501,1.2501,1.2501,1.2501,0.5357,0.6878,0.8478,0.8478,0.9571,1.0818,1.1443,1.0469,0.9804,1.1289,1.2069,1.2501,1.2501,1.2501,1.2501,1.2501,1.2501,1.2501,1.2501,1.2501,1.2501,1.2501,1.2501,1.2501,1.2501,1.2501,1.2501,1.2501,1.2501,1.2501,1.2501,1.2501,1.2501,1.2501,1.2501,1.2501,1.2501,1.2501,1.2501,1.2501,1.2501,1.2501,1.2501,1.2501,1.2501,1.2501,1.2501,1.2501,1.2501,1.2501,1.2501,1.2501,1.2501,1.2501,1.2501,1.2501,1.2501,1.2501,1.2501,1.2569,1.2625,1.2625,1.2739,1.2873,1.2921,1.2895,1.2901,1.2989,1.3003,1.3003,1.3003,1.2935,1.2867,1.2867,1.2867,1.2867,1.2867,1.2739,1.2625,1.2625,1.2576,1.2501,1.2501,1.2501,1.2501,1.2501,1.2501,1.2501,1.2501,1.2501,1.2501,1.2501,1.2501,1.2501,1.2501,1.2501,1.2501,1.2501,1.2501,1.2501,1.2501,1.2501,1.2501,1.2501,1.2501,1.2501,1.2501,1.2501,1.2501,1.2501,1.2501,1.2501,0.754,0.9061,1.0624,1.0624,1.156,1.2501,1.2501,1.1521,1.0979,1.2224,1.2501,1.2501,1.2501,1.2501,1.2501,1.2501,1.2501,1.2501,1.2501,1.2501,1.2501,1.2501,1.2501,1.2501,1.2501,1.2501,1.2501,1.2501,1.2501,1.2501,1.2501,1.2501,1.2501,1.2501,1.2501,1.2501,1.2501,1.2501,1.2501,1.2501,1.2501,1.2501,1.2501,1.2501,1.2501,1.2501,1.2501,1.2501,1.2501,1.2501,1.2501,1.2501,1.2501,1.2501,1.2508,1.2569,1.2589,1.2603,1.2664,1.2745,1.282,1.282,1.2888,1.3009,1.3071,1.3084,1.3098,1.3159,1.3173,1.3173,1.3173,1.3173,1.3146,1.303,1.3003,1.3003,1.3003,1.2888,1.282,1.282,1.2745,1.2684,1.2684,1.2684,1.2664,1.2603,1.2542,1.2501,1.2501,1.2501,1.2501,1.2501,1.2501,1.2501,1.2501,1.2501,1.2501,1.2501,1.2501,1.2501,1.2501,1.2501,1.2501,1.2501,1.2501,1.2501,1.2501,1.2501,1.2501,1.2501,1.2501,1.2501,0.9687,1.1056,1.2501,1.2501,1.2501,1.2501,1.2501,1.2501,1.2501,1.2501,1.2501,1.2501,1.2501,1.2501,1.2501,1.2501,1.2501,1.2501,1.2501,1.2501,1.2501,1.2501,1.2501,1.2501,1.2501,1.2501,1.2501,1.2501,1.2501,1.2501,1.2501,1.2501,1.2501,1.2501,1.2501,1.2501,1.2501,1.2501,1.2501,1.2501,1.2501,1.2501,1.2501,1.2501,1.2501,1.2501,1.2501,1.2501,1.2501,1.2501,1.2501,1.2501,1.2515,1.2522,1.2542,1.2698,1.2713,1.2733,1.2955,1.3009,1.3023,1.3023,1.303,1.3064,1.3193,1.3234,1.322,1.3363,1.3403,1.3403,1.3403,1.3403,1.3336,1.3105,1.3043,1.3043,1.3043,1.303,1.3023,1.3023,1.3009,1.3003,1.3003,1.3003,1.2955,1.2733,1.263,1.2542,1.2542,1.2528,1.2522,1.2522,1.2508,1.2501,1.2501,1.2501,1.2501,1.2501,1.2501,1.2501,1.2501,1.2501,1.2501,1.2501,1.2501,1.2501,1.2501,1.2501,1.2501,1.2501,1.2501,1.2501,1.1837,1.2147,1.2501,1.2501,1.2501,1.2501,1.2501,1.2501,1.2501,1.2501,1.2501,1.2501,1.2501,1.2501,1.2501,1.2501,1.2501,1.2501,1.2501,1.2501,1.2501,1.2501,1.2501,1.2501,1.2501,1.2501,1.2501,1.2501,1.2501,1.2501,1.2501,1.2501,1.2501,1.2501,1.2501,1.2501,1.2501,1.2501,1.2501,1.2501,1.2501,1.2501,1.2501,1.2501,1.2501,1.2501,1.2501,1.2501,1.2501,1.2501,1.2501,1.2515,1.263,1.2638,1.2659,1.2854,1.2948,1.2955,1.2989,1.3071,1.3166,1.3166,1.3248,1.3308,1.3342,1.3349,1.3356,1.339,1.3403,1.3403,1.3403,1.3403,1.3383,1.3322,1.3308,1.3308,1.3308,1.3214,1.3166,1.3166,1.3077,1.3003,1.3003,1.3003,1.2989,1.2955,1.2921,1.2901,1.2901,1.2752,1.2638,1.2638,1.2576,1.2501,1.2501,1.2501,1.2501,1.2501,1.2501,1.2501,1.2501,1.2501,1.2501,1.2501,1.2501,1.2501,1.2501,1.2501,1.2501,1.2501,1.2501,1.2501,1.2501,1.2501,1.2501,1.2501,1.2501,1.2501,1.2501,1.2501,1.2501,1.2501,1.2501,1.2501,1.2501,1.2501,1.2501,1.2501,1.2501,1.2501,1.2501,1.2501,1.2501,1.2501,1.2501,1.2501,1.2501,1.2501,1.2501,1.2501,1.2501,1.2501,1.2501,1.2501,1.2501,1.2501,1.2501,1.2501,1.2501,1.2501,1.2501,1.2501,1.2501,1.2501,1.2501,1.2501,1.2501,1.2501,1.2501,1.2501,1.2508,1.2583,1.261,1.2623,1.2779,1.284,1.2861,1.3043,1.3105,1.3111,1.3186,1.322,1.3281,1.3281,1.3336,1.3403,1.3403,1.3403,1.3403,1.3403,1.3403,1.3403,1.3403,1.3403,1.3403,1.3403,1.3403,1.3403,1.3403,1.3336,1.3281,1.3281,1.322,1.3173,1.3173,1.3152,1.3105,1.3105,1.3043,1.3003,1.3003,1.2888,1.284,1.284,1.2773,1.2691,1.2617,1.261,1.2576,1.2508,1.2501,1.2501,1.2501,1.2501,1.2501,1.2501,1.2501,1.2501,1.2501,1.2501,1.2501,1.2501,1.2501,1.2501,1.2501,1.2501,1.2501,1.2501,1.2501,1.2501,1.2501,1.2501,1.2501,1.2501,1.2501,1.2508,1.2535,1.2542,1.2549,1.2576,1.2583,1.2583,1.2583,1.2583,1.2583,1.2583,1.2583,1.2583,1.2583,1.2583,1.2569,1.2542,1.2542,1.2528,1.2501,1.2501,1.2501,1.2501,1.2501,1.2501,1.2501,1.2528,1.2542,1.2542,1.2569,1.2583,1.2583,1.2583,1.2569,1.2542,1.2542,1.2556,1.2589,1.2718,1.2766,1.2786,1.2975,1.3037,1.3057,1.32,1.3214,1.3227,1.3356,1.3403,1.3403,1.3403,1.3403,1.3403,1.3403,1.3403,1.3403,1.3403,1.3403,1.3403,1.3403,1.3403,1.3403,1.3403,1.3403,1.3403,1.3403,1.3403,1.3403,1.3403,1.3403,1.3403,1.3403,1.3295,1.3214,1.3214,1.3152,1.3077,1.3077,1.3057,1.3037,1.3037,1.3016,1.2948,1.2779,1.2766,1.2718,1.2589,1.2556,1.2542,1.2542,1.2515,1.2501,1.2501,1.2501,1.2501,1.2501,1.2501,1.2501,1.2501,1.2501,1.2501,1.2501,1.2501,1.2501,1.2501,1.2501,1.2501,1.2501,1.2501,1.2501,1.2501,1.2501,1.2542,1.2638,1.2659,1.2745,1.2921,1.2941,1.2941,1.2941,1.2941,1.2941,1.2941,1.2941,1.2941,1.2941,1.2941,1.2847,1.2712,1.2659,1.2605,1.2508,1.2501,1.2501,1.2501,1.2501,1.2501,1.2501,1.263,1.2659,1.2665,1.2834,1.2941,1.2941,1.2941,1.2827,1.2659,1.2659,1.2773,1.2941,1.2962,1.2969,1.2982,1.3125,1.3186,1.32,1.3315,1.337,1.337,1.3397,1.3403,1.3403,1.3403,1.3403,1.3403,1.3403,1.3403,1.3403,1.3403,1.3403,1.3403,1.3403,1.3403,1.3403,1.3403,1.3403,1.3403,1.3403,1.3403,1.3403,1.3403,1.3403,1.3403,1.3403,1.3383,1.337,1.337,1.3356,1.3342,1.3342,1.3268,1.3186,1.3186,1.3077,1.2989,1.2975,1.2969,1.2962,1.2941,1.2773,1.2659,1.2659,1.2569,1.2501,1.2501,1.2501,1.2501,1.2501,1.2501,1.2501,1.2501,1.2501,1.2501,1.2501,1.2501,1.2501,1.2501,1.2501,1.2501,1.2501,1.2501,1.2501,1.2501,1.2569,1.2611,1.2679,1.28,1.2881,1.2989,1.3003,1.3003,1.3003,1.3003,1.3003,1.3003,1.3003,1.3003,1.3003,1.3003,1.2975,1.2868,1.2861,1.2827,1.2766,1.2799,1.2799,1.2799,1.2799,1.2799,1.2799,1.2827,1.2861,1.2861,1.2969,1.3003,1.3003,1.3003,1.2962,1.2861,1.2861,1.2941,1.3009,1.3091,1.3118,1.3139,1.3241,1.3302,1.3308,1.3376,1.3403,1.3403,1.3403,1.3403,1.3403,1.3403,1.3403,1.3403,1.3403,1.3403,1.3403,1.3403,1.3403,1.3403,1.3403,1.3403,1.3403,1.3403,1.3403,1.3403,1.3403,1.3403,1.3403,1.3403,1.3403,1.3403,1.3403,1.3403,1.3403,1.3403,1.3403,1.3403,1.3403,1.3342,1.3302,1.3302,1.3247,1.3173,1.3125,1.3118,1.3084,1.3009,1.2935,1.2861,1.2861,1.2712,1.2591,1.2591,1.2549,1.2501,1.2501,1.2501,1.2501,1.2501,1.2501,1.2501,1.2501,1.2501,1.2501,1.2501,1.2501,1.2501,1.2501,1.2501,1.2501,1.2501,1.2623,1.2706,1.2779,1.2915,1.3071,1.3105,1.3111,1.3111,1.3111,1.3111,1.3111,1.3111,1.3111,1.3111,1.3111,1.3111,1.3098,1.3057,1.3057,1.3043,1.3003,1.3003,1.3003,1.3003,1.3003,1.3003,1.3003,1.3037,1.3077,1.3111,1.3111,1.3111,1.3111,1.3111,1.3111,1.3111,1.3071,1.3077,1.3118,1.3227,1.3227,1.3241,1.3356,1.3403,1.3403,1.3403,1.3403,1.3403,1.3403,1.3403,1.3403,1.3403,1.3403,1.3403,1.3403,1.3403,1.3403,1.3403,1.3403,1.3403,1.3403,1.3403,1.3403,1.3403,1.3403,1.3403,1.3403,1.3403,1.3403,1.3403,1.3403,1.3403,1.3403,1.3403,1.3403,1.3403,1.3403,1.3403,1.3403,1.3403,1.3403,1.3403,1.3403,1.3356,1.3241,1.3227,1.3227,1.3118,1.3077,1.3057,1.3057,1.2868,1.2786,1.2786,1.2637,1.2542,1.2501,1.2501,1.2501,1.2501,1.2501,1.2501,1.2501,1.2501,1.2501,1.2501,1.2501,1.2501,1.2501,1.2501,1.2501,1.2501,1.2623,1.2773,1.2962,1.3105,1.3248,1.3356,1.3376,1.3376,1.3376,1.3376,1.3376,1.3376,1.3376,1.3376,1.3376,1.3376,1.3315,1.3214,1.32,1.3146,1.3009,1.3003,1.3003,1.3003,1.3003,1.3003,1.3003,1.3139,1.3234,1.3376,1.3376,1.3376,1.3376,1.3376,1.3376,1.337,1.3227,1.3247,1.3376,1.339,1.339,1.339,1.3397,1.3403,1.3403,1.3403,1.3403,1.3403,1.3403,1.3403,1.3403,1.3403,1.3403,1.3403,1.3403,1.3403,1.3403,1.3403,1.3403,1.3403,1.3403,1.3403,1.3403,1.3403,1.3403,1.3403,1.3403,1.3403,1.3403,1.3403,1.3403,1.3403,1.3403,1.3403,1.3403,1.3403,1.3403,1.3403,1.3403,1.3403,1.3403,1.3403,1.3403,1.3397,1.339,1.339,1.3383,1.3376,1.3241,1.32,1.32,1.3064,1.2989,1.2989,1.28,1.2651,1.2501,1.2501,1.2501,1.2501,1.2501,1.2501,1.2501,1.2501,1.2501,1.2501,1.2501,1.2501,1.2501,1.2501,1.2501,1.2501,1.2623,1.2706,1.28,1.301,1.322,1.3376,1.3403,1.3403,1.3403,1.3403,1.3403,1.3403,1.3403,1.3403,1.3403,1.3403,1.3376,1.3322,1.3315,1.3295,1.3247,1.3241,1.3241,1.3241,1.3241,1.3241,1.3241,1.3295,1.3349,1.3403,1.3403,1.3403,1.3403,1.3403,1.3403,1.3397,1.3342,1.3349,1.3403,1.3403,1.3403,1.3403,1.3403,1.3403,1.3403,1.3403,1.3403,1.3403,1.3403,1.3403,1.3403,1.3403,1.3403,1.3403,1.3403,1.3403,1.3403,1.3403,1.3403,1.3403,1.3403,1.3403,1.3403,1.3403,1.3403,1.3403,1.3403,1.3403,1.3403,1.3403,1.3403,1.3403,1.3403,1.3403,1.3403,1.3403,1.3403,1.3403,1.3403,1.3403,1.3403,1.3403,1.3403,1.3403,1.3403,1.3403,1.3403,1.3403,1.3349,1.3315,1.3315,1.3214,1.3139,1.3139,1.2956,1.2807,1.2651,1.2549,1.2501,1.2501,1.2501,1.2501,1.2501,1.2501,1.2501,1.2501,1.2501,1.2501,1.2501,1.2501,1.2501,1.2501,1.2583,1.2671,1.2679,1.2888,1.3091,1.3295,1.337,1.3403,1.3403,1.3403,1.3403,1.3403,1.3403,1.3403,1.3403,1.3403,1.3403,1.3403,1.3403,1.3403,1.3403,1.3403,1.3403,1.3403,1.3403,1.3403,1.3403,1.3403,1.3403,1.3403,1.3403,1.3403,1.3403,1.3403,1.3403,1.3403,1.3403,1.3403,1.3403,1.3403,1.3403,1.3403,1.3403,1.3403,1.3403,1.3403,1.3403,1.3403,1.3403,1.3403,1.3403,1.3403,1.3403,1.3403,1.3403,1.3403,1.3403,1.3403,1.3403,1.3403,1.3403,1.3403,1.3403,1.3403,1.3403,1.3403,1.3403,1.3403,1.3403,1.3403,1.3403,1.3403,1.3403,1.3403,1.3403,1.3403,1.3403,1.3403,1.3403,1.3403,1.3403,1.3403,1.3403,1.3403,1.3403,1.3403,1.3403,1.3403,1.3403,1.3403,1.3403,1.3302,1.3247,1.3247,1.3146,1.2983,1.2881,1.2678,1.2576,1.2576,1.2528,1.2501,0.0,0.0,0.0,1.2501,1.2501,1.2501,1.2501,1.2501,1.2501,1.2501,1.2501,1.2549,1.2659,1.2686,1.2827,1.3112,1.3295,1.3397,1.3397,1.3397,1.3403,1.3403,1.3403,1.3403,1.3403,1.3403,1.3403,1.3403,1.3403,1.3403,1.3403,1.3403,1.3403,1.3403,1.3403,1.3403,1.3403,1.3403,1.3403,1.3403,1.3403,1.3403,1.3403,1.3403,1.3403,1.3403,1.3403,1.3403,1.3403,1.3403,1.3403,1.3403,1.3403,1.3403,1.3403,1.3403,1.3403,1.3403,1.3403,1.3403,1.3403,1.3403,1.3403,1.3403,1.3403,1.3403,1.3403,1.3403,1.3403,1.3403,1.3403,1.3403,1.3403,1.3403,1.3403,1.3403,1.3403,1.3403,1.3403,1.3403,1.3403,1.3403,1.3403,1.3403,1.3403,1.3403,1.3403,1.3403,1.3403,1.3403,1.3403,1.3403,1.3403,1.3403,1.3403,1.3403,1.3403,1.3403,1.3403,1.3403,1.3403,1.3403,1.3403,1.3403,1.3254,1.322,1.322,1.2881,1.2699,1.2693,1.2576,1.2508,1.2501,0.0,0.0,0.0,0.0,0.0,1.2501,1.2501,1.2501,1.2501,1.2501,1.2515,1.2556,1.2618,1.272,1.284,1.3064,1.3275,1.3275,1.3329,1.3403,1.3403,1.3403,1.3403,1.3403,1.3403,1.3403,1.3403,1.3403,1.3403,1.3403,1.3403,1.3403,1.3403,1.3403,1.3403,1.3403,1.3403,1.3403,1.3403,1.3403,1.3403,1.3403,1.3403,1.3403,1.3403,1.3403,1.3403,1.3403,1.3403,1.3403,1.3403,1.3403,1.3403,1.3403,1.3403,1.3403,1.3403,1.3403,1.3403,1.3403,1.3403,1.3403,1.3403,1.3403,1.3403,1.3403,1.3403,1.3403,1.3403,1.3403,1.3403,1.3403,1.3403,1.3403,1.3403,1.3403,1.3403,1.3403,1.3403,1.3403,1.3403,1.3403,1.3403,1.3403,1.3403,1.3403,1.3403,1.3403,1.3403,1.3403,1.3403,1.3403,1.3403,1.3403,1.3403,1.3403,1.3403,1.3403,1.3403,1.3403,1.3403,1.3403,1.3403,1.3356,1.3336,1.3336,1.3044,1.2935,1.2895,1.2739,1.261,0.0,0.0,0.0,1.2501,0.0,0.0,1.2501,1.2501,1.2501,1.2501,1.2501,1.2501,1.2501,1.2576,1.2637,1.2637,1.2834,1.301,1.3118,1.3159,1.3241,1.3302,1.3308,1.3329,1.3397,1.3403,1.3403,1.3403,1.3403,1.3403,1.3403,1.3403,1.3403,1.3403,1.3403,1.3403,1.3403,1.3403,1.3403,1.3403,1.3403,1.3403,1.3403,1.3403,1.3403,1.3403,1.3403,1.3403,1.3403,1.3403,1.3403,1.3403,1.3403,1.3403,1.3403,1.3403,1.3403,1.3403,1.3403,1.3403,1.3403,1.3403,1.3403,1.3403,1.3403,1.3403,1.3403,1.3403,1.3403,1.3403,1.3403,1.3403,1.3403,1.3403,1.3403,1.3403,1.3403,1.3403,1.3403,1.3403,1.3403,1.3403,1.3403,1.3403,1.3403,1.3403,1.3403,1.3403,1.3403,1.3403,1.3403,1.3403,1.3403,1.3403,1.3403,1.3403,1.3403,1.3403,1.3403,1.3403,1.3403,1.3403,1.3403,1.3403,1.3403,1.3403,1.3403,1.3207,1.3057,1.3003,1.2868,1.2779,0.0,0.0,0.0,0.0,0.0,0.0,1.2501,1.2501,1.2501,1.2501,1.2501,1.2501,1.2501,1.2501,1.2501,1.2501,1.2617,1.2759,1.2955,1.2989,1.305,1.3173,1.3207,1.3268,1.3363,1.339,1.3403,1.3403,1.3403,1.3403,1.3403,1.3403,1.3403,1.3403,1.3403,1.3403,1.3403,1.3403,1.3403,1.3403,1.3403,1.3403,1.3403,1.3403,1.3403,1.3403,1.3403,1.3403,1.3403,1.3403,1.3403,1.3403,1.3403,1.3403,1.3403,1.3403,1.3403,1.3403,1.3403,1.3403,1.3403,1.3403,1.3403,1.3403,1.3403,1.3403,1.3403,1.3403,1.3403,1.3403,1.3403,1.3403,1.3403,1.3403,1.3403,1.3403,1.3403,1.3403,1.3403,1.3403,1.3403,1.3403,1.3403,1.3403,1.3403,1.3403,1.3403,1.3403,1.3403,1.3403,1.3403,1.3403,1.3403,1.3403,1.3403,1.3403,1.3403,1.3403,1.3403,1.3403,1.3403,1.3403,1.3403,1.3403,1.3403,1.3403,1.3403,1.3261,1.3166,1.3023,1.3023,1.3016,0.0,0.0,0.0,0.0,0.0,0.0,1.2501,1.2501,1.2501,1.2501,1.2501,1.2501,1.2501,1.2501,1.2501,1.2501,1.2528,1.2603,1.2752,1.2881,1.3009,1.3043,1.3146,1.3227,1.3254,1.3329,1.3403,1.3403,1.3403,1.3403,1.3403,1.3403,1.3403,1.3403,1.3403,1.3403,1.3403,1.3403,1.3403,1.3403,1.3403,1.3403,1.3403,1.3403,1.3403,1.3403,1.3403,1.3403,1.3403,1.3403,1.3403,1.3403,1.3403,1.3403,1.3403,1.3403,1.3403,1.3403,1.3403,1.3403,1.3403,1.3403,1.3403,1.3403,1.3403,1.3403,1.3403,1.3403,1.3403,1.3403,1.3403,1.3403,1.3403,1.3403,1.3403,1.3403,1.3403,1.3403,1.3403,1.3403,1.3403,1.3403,1.3403,1.3403,1.3403,1.3403,1.3403,1.3403,1.3403,1.3403,1.3403,1.3403,1.3403,1.3403,1.3403,1.3403,1.3403,1.3403,1.3403,1.3403,1.3403,1.3403,1.3403,1.3403,1.3403,1.3403,1.3403,1.337,1.3281,1.3173,1.3173,1.3111,0.0,0.0,0.0,1.2501,0.0,0.0,0.0,1.2501,1.2501,1.2501,1.2501,1.2501,1.2501,1.2501,1.2501,1.2501,1.2501,1.2528,1.2603,1.2684,1.2799,1.2834,1.2908,1.2983,1.3098,1.32,1.3315,1.3397,1.3403,1.3403,1.3403,1.3403,1.3403,1.3403,1.3403,1.3403,1.3403,1.3403,1.3403,1.3403,1.3403,1.3403,1.3403,1.3403,1.3403,1.3403,1.3403,1.3403,1.3403,1.3403,1.3403,1.3403,1.3403,1.3403,1.3403,1.3403,1.3403,1.3403,1.3403,1.3403,1.3403,1.3403,1.3403,1.3403,1.3403,1.3403,1.3403,1.3403,1.3403,1.3403,1.3403,1.3403,1.3403,1.3403,1.3403,1.3403,1.3403,1.3403,1.3403,1.3403,1.3403,1.3403,1.3403,1.3403,1.3403,1.3403,1.3403,1.3403,1.3403,1.3403,1.3403,1.3403,1.3403,1.3403,1.3403,1.3403,1.3403,1.3403,1.3403,1.3403,1.3403,1.3403,1.3403,1.3403,1.3403,1.3403,1.3403,1.3403,1.3363,1.3288,1.3288,1.3247,0.0,0.0,0.0,0.0,0.0,1.2501,0.0,0.0,0.0,1.2501,1.2501,1.2501,1.2501,1.2501,1.2501,1.2501,1.2501,1.2501,1.2501,1.2501,1.2549,1.2632,1.2672,1.2779,1.2941,1.3111,1.322,1.3349,1.3383,1.3403,1.3403,1.3403,1.3403,1.3403,1.3403,1.3403,1.3403,1.3403,1.3403,1.3403,1.3403,1.3403,1.3403,1.3403,1.3403,1.3403,1.3403,1.3403,1.3403,1.3403,1.3403,1.3403,1.3403,1.3403,1.3403,1.3403,1.3403,1.3403,1.3403,1.3403,1.3403,1.3403,1.3403,1.3403,1.3403,1.3403,1.3403,1.3403,1.3403,1.3403,1.3403,1.3403,1.3403,1.3403,1.3403,1.3403,1.3403,1.3403,1.3403,1.3403,1.3403,1.3403,1.3403,1.3403,1.3403,1.3403,1.3403,1.3403,1.3403,1.3403,1.3403,1.3403,1.3403,1.3403,1.3403,1.3403,1.3403,1.3403,1.3403,1.3403,1.3403,1.3403,1.3403,1.3403,1.3403,1.3403,1.3403,1.3403,1.3403,1.3403,1.3403,1.3403,0.0,0.0,0.0,0.0,1.2501,0.0,0.0,0.0,1.2501,1.2501,0.0,1.2501,1.2501,0.0,0.0,1.2501,1.2501,1.2501,1.2501,1.2501,1.2508,1.2528,1.2651,1.2699,1.2713,1.301,1.322,1.3241,1.3322,1.3403,1.3403,1.3403,1.3403,1.3403,1.3403,1.3403,1.3403,1.3403,1.3403,1.3403,1.3403,1.3403,1.3403,1.3403,1.3403,1.3403,1.3403,1.3403,1.3403,1.3403,1.3403,1.3403,1.3403,1.3403,1.3403,1.3403,1.3403,1.3403,1.3403,1.3403,1.3403,1.3403,1.3403,1.3403,1.3403,1.3403,1.3403,1.3403,1.3403,1.3403,1.3403,1.3403,1.3403,1.3403,1.3403,1.3403,1.3403,1.3403,1.3403,1.3403,1.3403,1.3403,1.3403,1.3403,1.3403,1.3403,1.3403,1.3403,1.3403,1.3403,1.3403,1.3403,1.3403,1.3403,1.3403,1.3403,1.3403,1.3403,1.3403,1.3403,1.3403,1.3403,1.3403,1.3403,1.3403,1.3403,1.3403,1.3403,1.3403,1.3403,1.3403,1.3403,0.0,0.0,0.0,0.0,0.0,0.0,1.2501,0.0,1.2501,0.0,0.0,0.0,0.0,0.0,0.0,0.0,1.2501,1.2501,1.2501,1.2501,1.2501,1.2501,1.2556,1.2591,1.2679,1.284,1.299,1.32,1.3234,1.3308,1.3397,1.3403,1.3403,1.3403,1.3403,1.3403,1.3403,1.3403,1.3403,1.3403,1.3403,1.3403,1.3403,1.3403,1.3403,1.3403,1.3403,1.3403,1.3403,1.3403,1.3403,1.3403,1.3403,1.3403,1.3403,1.3403,1.3403,1.3403,1.3403,1.3403,1.3403,1.3403,1.3403,1.3403,1.3403,1.3403,1.3403,1.3403,1.3403,1.3403,1.3403,1.3403,1.3403,1.3403,1.3403,1.3403,1.3403,1.3403,1.3403,1.3403,1.3403,1.3403,1.3403,1.3403,1.3403,1.3403,1.3403,1.3403,1.3403,1.3403,1.3403,1.3403,1.3403,1.3403,1.3403,1.3403,1.3403,1.3403,1.3403,1.3403,1.3403,1.3403,1.3403,1.3403,1.3403,1.3403,1.3403,1.3403,1.3403,1.3403,1.3403,1.3403,1.2501,0.0,0.0,0.0,0.0,0.0,0.0,0.0,0.0,0.0,0.0,0.0,0.0,0.0,0.0,0.0,0.0,1.2501,1.2501,1.2501,1.2501,1.2501,1.2501,1.2549,1.2657,1.2665,1.2834,1.3132,1.3193,1.3282,1.339,1.3403,1.3403,1.3403,1.3403,1.3403,1.3403,1.3403,1.3403,1.3403,1.3403,1.3403,1.3403,1.3403,1.3403,1.3403,1.3403,1.3403,1.3403,1.3403,1.3403,1.3403,1.3403,1.3403,1.3403,1.3403,1.3403,1.3403,1.3403,1.3403,1.3403,1.3403,1.3403,1.3403,1.3403,1.3403,1.3403,1.3403,1.3403,1.3403,1.3403,1.3403,1.3403,1.3403,1.3403,1.3403,1.3403,1.3403,1.3403,1.3403,1.3403,1.3403,1.3403,1.3403,1.3403,1.3403,1.3403,1.3403,1.3403,1.3403,1.3403,1.3403,1.3403,1.3403,1.3403,1.3403,1.3403,1.3403,1.3403,1.3403,1.3403,1.3403,1.3403,1.3403,1.3403,1.3403,1.3403,1.3403,1.3403,1.3403,1.3403,1.3403,0.0,0.0,0.0,1.2501,0.0,0.0,0.0,0.0,1.2501,0.0,0.0,0.0,0.0,0.0,0.0,0.0,0.0,0.0,0.0,1.2501,1.2501,1.2501,1.2501,1.2501,1.2508,1.2605,1.2793,1.2996,1.3139,1.3282,1.339,1.3403,1.3403,1.3403,1.3403,1.3403,1.3403,1.3403,1.3403,1.3403,1.3403,1.3403,1.3403,1.3403,1.3403,1.3403,1.3403,1.3403,1.3403,1.3403,1.3403,1.3403,1.3403,1.3403,1.3403,1.3403,1.3403,1.3403,1.3403,1.3403,1.3403,1.3403,1.3403,1.3403,1.3403,1.3403,1.3403,1.3403,1.3403,1.3403,1.3403,1.3403,1.3403,1.3403,1.3403,1.3403,1.3403,1.3403,1.3403,1.3403,1.3403,1.3403,1.3403,1.3403,1.3403,1.3403,1.3403,1.3403,1.3403,1.3403,1.3403,1.3403,1.3403,1.3403,1.3403,1.3403,1.3403,1.3403,1.3403,1.3403,1.3403,1.3403,1.3403,1.3403,1.3403,1.3403,1.3403,1.3403,1.3403,1.3403,1.3403,1.3403,0.0,0.0,1.2501,1.2501,0.0,0.0,0.0,0.0,0.0,0.0,0.0,0.0,0.0,0.0,0.0,0.0,0.0,0.0,0.0,1.2501,1.2501,1.2501,0.0,0.0,0.0,1.2549,1.2684,1.2982,1.3043,1.3139,1.339,1.3403,1.3403,1.3403,1.3403,1.3403,1.3403,1.3403,1.3403,1.3403,1.3403,1.3403,1.3403,1.3403,1.3403,1.3403,1.3403,1.3403,1.3403,1.3403,1.3403,1.3403,1.3403,1.3403,1.3403,1.3403,1.3403,1.3403,1.3403,1.3403,1.3403,1.3403,1.3403,1.3403,1.3403,1.3403,1.3403,1.3403,1.3403,1.3403,1.3403,1.3403,1.3403,1.3403,1.3403,1.3403,1.3403,1.3403,1.3403,1.3403,1.3403,1.3403,1.3403,1.3403,1.3403,1.3403,1.3403,1.3403,1.3403,1.3403,1.3403,1.3403,1.3403,1.3403,1.3403,1.3403,1.3403,1.3403,1.3403,1.3403,1.3403,1.3403,1.3403,1.3403,1.3403,1.3403,1.3403,1.3403,1.3403,1.3403,1.3403,1.3403,1.2501,1.2501,0.0,1.2501,1.2501,0.0,1.2501,0.0,0.0,0.0,0.0,0.0,0.0,0.0,0.0,0.0,0.0,0.0,0.0,1.2501,0.0,1.2501,0.0,0.0,0.0,0.0,0.0,1.2975,0.0,0.0,0.0,1.3403,1.3403,1.3403,1.3403,1.3403,1.3403,1.3403,1.3403,1.3403,1.3403,1.3403,1.3403,1.3403,1.3403,1.3403,1.3403,1.3403,1.3403,1.3403,1.3403,1.3403,1.3403,1.3403,1.3403,1.3403,1.3403,1.3403,1.3403,1.3403,1.3403,1.3403,1.3403,1.3403,1.3403,1.3403,1.3424,1.3526,1.3485,1.3424,1.3532,1.3478,1.3403,1.3403,1.3403,1.3417,1.3471,1.3485,1.3498,1.3546,1.3559,1.3559,1.3559,1.3559,1.3519,1.3417,1.3403,1.3403,1.3403,1.3403,1.3403,1.3403,1.3403,1.3403,1.3403,1.3403,1.3403,1.3403,1.3403,1.3403,1.3403,1.3403,1.3451,1.3553,1.3451,1.3451,1.3559,1.3451,1.3403,1.3403,1.3403,1.3403]},{"header":{"parameterUnit":"m.s-1","parameterCategory":1,"la1":30.6,"la2":29.2853,"lo1":-89.7004,"lo2":-87.6739,"dy":0.0162,"dx":0.0183,"nx":112,"ny":82,"refTime":"2023-09-28T18:00:00:Z","depth":0,"parameterNumber":3,"parameterNumberName":"V-component_of_WINDS"},"data":[0.0,0.0,0.0,0.0,0.0,0.0,0.0,0.0,0.0,0.0,0.0,0.0,0.0,0.0,0.0,0.0,0.0,0.0,0.0,0.0,0.0,0.0,0.0,0.0,0.0,0.0,0.0,0.0,0.0,0.0,0.0,0.0,0.0,0.0,0.0,0.0,0.0,0.0,0.0,0.0,0.0,0.0,0.0,0.0,0.0,0.0,0.0,0.0,0.0,0.0,0.0,0.0,0.0,0.0,0.0,0.0,0.0,0.0,0.0,0.0,0.0,0.0,0.0,0.0,0.0,0.0,0.0,0.0,0.0,0.0,0.0,0.0,0.0,0.0,0.0,0.0,0.0,0.0,0.0,0.0,0.0,0.0,0.0,0.0,0.0,0.0,0.0,0.0,0.0,0.0,4.6495,4.7201,4.7787,4.8143,4.8143,4.8258,4.8296,4.8296,0.0,0.0,0.0,0.0,0.0,0.0,0.0,0.0,0.0,0.0,0.0,0.0,0.0,0.0,0.0,0.0,0.0,0.0,0.0,0.0,0.0,0.0,0.0,0.0,0.0,0.0,0.0,0.0,0.0,0.0,0.0,0.0,0.0,0.0,0.0,0.0,0.0,0.0,0.0,0.0,0.0,0.0,0.0,0.0,0.0,0.0,0.0,0.0,0.0,0.0,0.0,0.0,0.0,0.0,0.0,0.0,0.0,0.0,0.0,0.0,0.0,0.0,0.0,0.0,0.0,0.0,0.0,0.0,0.0,0.0,0.0,0.0,0.0,0.0,0.0,0.0,0.0,0.0,0.0,0.0,0.0,0.0,0.0,0.0,0.0,0.0,0.0,0.0,0.0,0.0,0.0,0.0,0.0,0.0,0.0,0.0,0.0,0.0,0.0,0.0,0.0,0.0,0.0,0.0,4.5865,4.6507,4.7132,4.7523,4.7523,4.8015,4.8296,4.8296,0.0,0.0,0.0,0.0,0.0,0.0,0.0,0.0,0.0,0.0,0.0,0.0,0.0,0.0,0.0,0.0,0.0,0.0,0.0,0.0,0.0,0.0,0.0,0.0,0.0,0.0,0.0,0.0,0.0,0.0,0.0,0.0,0.0,0.0,0.0,0.0,0.0,0.0,0.0,0.0,0.0,0.0,0.0,0.0,0.0,0.0,0.0,0.0,0.0,0.0,0.0,0.0,0.0,0.0,0.0,0.0,0.0,0.0,0.0,0.0,0.0,0.0,0.0,0.0,0.0,0.0,0.0,0.0,0.0,0.0,0.0,0.0,0.0,0.0,0.0,0.0,0.0,0.0,0.0,0.0,0.0,0.0,0.0,0.0,0.0,0.0,0.0,0.0,0.0,0.0,0.0,0.0,0.0,0.0,0.0,0.0,0.0,0.0,0.0,0.0,0.0,0.0,0.0,4.561,4.61,4.6354,4.6999,4.7396,4.7396,4.7965,4.8296,4.8296,4.8486,0.0,0.0,0.0,0.0,0.0,0.0,0.0,0.0,0.0,0.0,0.0,0.0,0.0,0.0,0.0,0.0,0.0,0.0,0.0,0.0,0.0,0.0,0.0,0.0,0.0,0.0,0.0,0.0,0.0,0.0,0.0,0.0,0.0,0.0,0.0,0.0,0.0,0.0,0.0,0.0,0.0,0.0,0.0,0.0,0.0,0.0,0.0,0.0,0.0,0.0,0.0,0.0,0.0,0.0,0.0,0.0,0.0,0.0,0.0,0.0,0.0,0.0,0.0,0.0,0.0,0.0,0.0,0.0,0.0,0.0,0.0,0.0,0.0,0.0,0.0,0.0,0.0,0.0,0.0,0.0,0.0,0.0,0.0,0.0,0.0,0.0,0.0,0.0,0.0,0.0,0.0,0.0,0.0,0.0,0.0,0.0,0.0,0.0,0.0,0.0,0.0,0.0,4.5699,4.5977,4.5977,4.6566,4.6999,4.7143,4.7736,4.8085,4.8085,4.8238,0.0,0.0,0.0,0.0,0.0,0.0,0.0,0.0,0.0,0.0,0.0,0.0,0.0,0.0,0.0,0.0,0.0,0.0,0.0,0.0,0.0,0.0,0.0,0.0,0.0,0.0,0.0,0.0,0.0,0.0,0.0,0.0,0.0,0.0,0.0,0.0,0.0,0.0,0.0,0.0,0.0,0.0,0.0,0.0,0.0,0.0,0.0,0.0,0.0,0.0,0.0,0.0,0.0,0.0,0.0,0.0,0.0,0.0,0.0,0.0,0.0,0.0,0.0,0.0,0.0,0.0,0.0,0.0,0.0,0.0,0.0,0.0,0.0,0.0,0.0,0.0,0.0,0.0,0.0,0.0,0.0,0.0,0.0,0.0,0.0,0.0,0.0,0.0,0.0,0.0,0.0,0.0,0.0,0.0,0.0,0.0,0.0,0.0,0.0,0.0,0.0,0.0,4.4692,4.472,4.472,4.5267,4.5853,4.6413,4.7077,4.7459,4.7459,4.7995,0.0,0.0,0.0,0.0,0.0,0.0,0.0,0.0,0.0,0.0,0.0,0.0,0.0,0.0,0.0,0.0,0.0,0.0,0.0,0.0,0.0,0.0,0.0,0.0,0.0,0.0,0.0,0.0,0.0,0.0,0.0,0.0,0.0,0.0,0.0,0.0,0.0,0.0,0.0,0.0,0.0,0.0,0.0,0.0,0.0,0.0,0.0,0.0,0.0,0.0,0.0,0.0,0.0,0.0,0.0,0.0,0.0,0.0,0.0,0.0,0.0,0.0,0.0,0.0,0.0,0.0,0.0,0.0,0.0,0.0,0.0,0.0,0.0,0.0,0.0,0.0,0.0,0.0,0.0,0.0,0.0,0.0,0.0,0.0,0.0,0.0,0.0,0.0,0.0,0.0,0.0,0.0,0.0,0.0,0.0,0.0,0.0,0.0,0.0,0.0,0.0,0.0,4.4615,4.4615,0.0,4.5142,4.5727,4.6342,4.701,4.7544,4.7955,0.0,0.0,0.0,0.0,0.0,0.0,0.0,0.0,0.0,0.0,0.0,0.0,0.0,0.0,0.0,0.0,0.0,0.0,0.0,0.0,0.0,0.0,0.0,0.0,0.0,0.0,0.0,0.0,0.0,0.0,0.0,0.0,0.0,0.0,0.0,0.0,0.0,0.0,0.0,0.0,0.0,0.0,0.0,0.0,0.0,0.0,0.0,0.0,0.0,0.0,0.0,0.0,0.0,0.0,0.0,0.0,0.0,0.0,0.0,0.0,0.0,0.0,0.0,0.0,0.0,0.0,0.0,0.0,0.0,0.0,0.0,0.0,0.0,0.0,0.0,0.0,0.0,0.0,0.0,0.0,0.0,0.0,0.0,0.0,0.0,0.0,0.0,0.0,0.0,0.0,0.0,0.0,0.0,0.0,0.0,0.0,0.0,0.0,0.0,0.0,0.0,0.0,4.4879,4.5048,4.5182,0.0,4.5533,4.6039,4.6646,4.7121,4.7591,4.7995,0.0,0.0,0.0,0.0,0.0,0.0,0.0,0.0,0.0,0.0,0.0,0.0,0.0,0.0,0.0,0.0,0.0,0.0,0.0,0.0,0.0,0.0,0.0,0.0,0.0,0.0,0.0,0.0,0.0,0.0,0.0,0.0,0.0,0.0,0.0,0.0,0.0,0.0,0.0,0.0,0.0,0.0,0.0,0.0,0.0,0.0,0.0,0.0,0.0,0.0,0.0,0.0,0.0,0.0,0.0,0.0,0.0,0.0,0.0,0.0,0.0,0.0,0.0,0.0,0.0,0.0,0.0,0.0,0.0,0.0,0.0,0.0,0.0,0.0,0.0,0.0,0.0,0.0,0.0,0.0,0.0,0.0,0.0,0.0,0.0,0.0,0.0,0.0,0.0,0.0,0.0,0.0,0.0,0.0,0.0,0.0,0.0,0.0,0.0,0.0,0.0,0.0,4.5494,4.6026,4.6389,4.6389,4.6389,4.6693,4.7342,4.7396,4.7396,0.0,0.0,0.0,0.0,0.0,0.0,0.0,0.0,0.0,0.0,0.0,0.0,0.0,0.0,0.0,0.0,0.0,0.0,0.0,0.0,0.0,0.0,0.0,0.0,0.0,0.0,0.0,0.0,0.0,0.0,0.0,0.0,0.0,0.0,0.0,0.0,0.0,0.0,0.0,0.0,0.0,0.0,0.0,0.0,0.0,0.0,0.0,0.0,0.0,0.0,0.0,0.0,0.0,0.0,0.0,0.0,0.0,0.0,0.0,0.0,0.0,0.0,0.0,0.0,0.0,0.0,0.0,0.0,0.0,0.0,0.0,0.0,0.0,0.0,0.0,0.0,0.0,0.0,0.0,0.0,0.0,0.0,0.0,0.0,0.0,0.0,0.0,0.0,0.0,0.0,0.0,0.0,0.0,0.0,0.0,0.0,0.0,0.0,0.0,0.0,0.0,0.0,0.0,4.5494,4.6026,4.6389,4.6389,4.6389,4.6693,4.7342,4.7396,4.7565,4.8015,0.0,0.0,0.0,0.0,0.0,0.0,0.0,0.0,0.0,0.0,0.0,0.0,0.0,0.0,0.0,0.0,0.0,0.0,0.0,0.0,0.0,0.0,0.0,0.0,0.0,0.0,0.0,0.0,0.0,0.0,0.0,0.0,0.0,0.0,0.0,0.0,0.0,0.0,0.0,0.0,0.0,0.0,0.0,0.0,0.0,0.0,0.0,0.0,0.0,0.0,0.0,0.0,0.0,0.0,0.0,0.0,0.0,0.0,0.0,0.0,0.0,0.0,0.0,0.0,0.0,0.0,0.0,0.0,0.0,0.0,0.0,0.0,0.0,0.0,0.0,0.0,0.0,0.0,0.0,0.0,0.0,0.0,0.0,0.0,0.0,0.0,0.0,0.0,0.0,0.0,0.0,0.0,0.0,0.0,0.0,0.0,0.0,0.0,0.0,0.0,0.0,0.0,4.6822,4.7583,4.8158,4.8158,4.8158,4.8337,4.8727,4.8759,4.8784,4.88,0.0,0.0,0.0,0.0,0.0,0.0,0.0,0.0,0.0,0.0,0.0,0.0,0.0,0.0,0.0,0.0,0.0,0.0,0.0,0.0,0.0,0.0,0.0,0.0,0.0,0.0,0.0,0.0,0.0,0.0,0.0,0.0,0.0,0.0,0.0,0.0,0.0,0.0,0.0,0.0,0.0,0.0,0.0,0.0,0.0,0.0,0.0,0.0,0.0,0.0,0.0,0.0,0.0,0.0,0.0,0.0,0.0,0.0,0.0,0.0,0.0,0.0,0.0,0.0,0.0,0.0,0.0,0.0,0.0,0.0,0.0,0.0,0.0,0.0,0.0,0.0,0.0,0.0,0.0,0.0,0.0,0.0,0.0,0.0,0.0,0.0,0.0,0.0,0.0,0.0,0.0,0.0,0.0,0.0,0.0,0.0,0.0,0.0,0.0,0.0,0.0,0.0,4.8896,4.9992,5.0802,5.0802,5.0802,5.0802,5.0802,5.0802,5.0472,4.9747,0.0,0.0,0.0,0.0,0.0,0.0,0.0,0.0,0.0,0.0,0.0,0.0,0.0,0.0,0.0,0.0,0.0,0.0,0.0,0.0,0.0,0.0,0.0,0.0,0.0,0.0,0.0,0.0,0.0,0.0,0.0,0.0,0.0,0.0,0.0,0.0,0.0,0.0,0.0,0.0,0.0,0.0,0.0,0.0,0.0,0.0,0.0,0.0,0.0,0.0,0.0,0.0,0.0,0.0,0.0,0.0,0.0,0.0,0.0,0.0,5.3577,0.0,0.0,0.0,0.0,0.0,0.0,0.0,0.0,0.0,0.0,0.0,0.0,0.0,0.0,0.0,0.0,0.0,0.0,0.0,0.0,0.0,0.0,0.0,0.0,0.0,0.0,0.0,0.0,0.0,0.0,0.0,0.0,0.0,0.0,0.0,0.0,0.0,0.0,0.0,0.0,0.0,4.9514,5.0288,5.0802,5.0802,5.0802,5.0802,5.0802,5.0802,5.0729,5.0545,5.0545,0.0,0.0,0.0,0.0,0.0,0.0,0.0,0.0,0.0,0.0,0.0,0.0,0.0,0.0,0.0,0.0,0.0,0.0,0.0,0.0,0.0,0.0,0.0,0.0,0.0,0.0,0.0,0.0,0.0,0.0,0.0,0.0,0.0,0.0,0.0,0.0,0.0,0.0,0.0,0.0,0.0,0.0,0.0,0.0,0.0,0.0,0.0,0.0,0.0,0.0,0.0,0.0,0.0,0.0,0.0,0.0,0.0,0.0,0.0,0.0,5.4409,0.0,0.0,0.0,0.0,0.0,0.0,0.0,0.0,0.0,0.0,0.0,0.0,0.0,0.0,0.0,0.0,0.0,0.0,0.0,0.0,0.0,0.0,0.0,0.0,0.0,0.0,0.0,0.0,0.0,0.0,0.0,0.0,0.0,0.0,0.0,0.0,0.0,0.0,0.0,0.0,5.0862,5.1518,5.193,5.193,5.193,5.193,5.193,5.193,5.1793,5.1389,5.1389,0.0,0.0,0.0,0.0,0.0,0.0,0.0,0.0,0.0,0.0,0.0,0.0,0.0,0.0,0.0,0.0,0.0,0.0,0.0,0.0,0.0,0.0,0.0,0.0,0.0,0.0,0.0,0.0,0.0,0.0,0.0,0.0,0.0,0.0,0.0,0.0,0.0,0.0,0.0,0.0,0.0,0.0,0.0,0.0,0.0,0.0,0.0,0.0,0.0,0.0,0.0,0.0,0.0,5.6045,5.61,5.61,5.61,5.6474,5.7053,5.6407,5.6487,5.6991,5.5585,0.0,0.0,0.0,0.0,0.0,0.0,0.0,0.0,0.0,0.0,0.0,0.0,0.0,0.0,0.0,0.0,0.0,0.0,0.0,0.0,0.0,0.0,0.0,0.0,5.3618,5.3415,5.2669,0.0,0.0,0.0,0.0,0.0,0.0,0.0,0.0,0.0,0.0,0.0,5.2289,5.2813,5.3214,5.3214,5.3214,5.3214,5.3214,5.3214,5.292,5.2244,5.2197,5.1903,0.0,0.0,0.0,0.0,0.0,0.0,0.0,0.0,0.0,0.0,0.0,0.0,0.0,0.0,0.0,0.0,0.0,0.0,0.0,0.0,0.0,0.0,0.0,0.0,0.0,0.0,0.0,0.0,0.0,0.0,0.0,0.0,5.3474,5.4224,0.0,0.0,0.0,0.0,0.0,0.0,0.0,0.0,0.0,0.0,0.0,0.0,0.0,5.561,5.5709,5.6394,5.6734,5.6734,5.7413,5.7714,5.7714,5.7714,5.7762,5.7832,5.775,0.0,5.7797,5.6957,0.0,0.0,0.0,0.0,0.0,0.0,0.0,0.0,0.0,0.0,0.0,0.0,0.0,0.0,0.0,0.0,0.0,0.0,0.0,0.0,0.0,0.0,5.5291,5.5291,5.5291,5.5086,0.0,5.3547,5.306,5.306,5.3071,0.0,0.0,0.0,0.0,0.0,0.0,0.0,5.297,5.3135,5.3214,5.3214,5.3214,5.3214,5.3214,5.3214,5.3141,5.3067,5.3031,5.2994,5.2884,5.2884,0.0,0.0,0.0,0.0,0.0,0.0,0.0,0.0,0.0,0.0,0.0,0.0,0.0,0.0,0.0,0.0,0.0,0.0,0.0,0.0,0.0,0.0,0.0,0.0,0.0,0.0,0.0,0.0,0.0,5.4559,5.5032,5.5781,5.5214,5.4867,0.0,0.0,0.0,0.0,0.0,0.0,0.0,0.0,0.0,5.6353,5.6367,5.6567,5.7004,5.7327,5.751,5.751,5.7832,5.7997,5.7997,5.7997,5.7997,5.7997,5.7997,5.7997,5.7973,5.7667,5.751,5.7486,0.0,0.0,0.0,0.0,5.7214,5.7409,5.7079,5.6943,5.6943,5.6943,0.0,0.0,0.0,0.0,0.0,0.0,0.0,0.0,0.0,0.0,5.5585,5.5585,5.5585,5.5511,5.5144,5.4803,5.4289,0.0,5.3581,5.3728,5.3287,0.0,0.0,0.0,0.0,5.2824,5.3146,5.3214,5.3214,5.3214,5.3214,5.3214,5.3214,5.3214,5.3214,5.3214,5.3214,5.3214,5.3214,5.3214,5.314,0.0,0.0,0.0,0.0,0.0,0.0,0.0,0.0,0.0,0.0,0.0,0.0,0.0,0.0,0.0,0.0,0.0,0.0,0.0,0.0,0.0,0.0,0.0,0.0,0.0,0.0,0.0,0.0,5.6208,5.6514,5.7103,5.6474,5.6004,0.0,0.0,0.0,0.0,0.0,0.0,5.599,5.6004,5.6367,5.7141,5.7166,5.7437,5.7997,5.7997,5.7997,5.7997,5.7997,5.7997,5.7997,5.7997,5.7997,5.7997,5.7997,5.7997,5.7997,5.7997,5.7997,5.7997,5.7997,5.7997,5.7997,5.7997,5.7997,5.7997,5.7997,5.7997,5.7997,5.7997,5.7593,5.7116,5.7116,0.0,0.0,0.0,0.0,5.6588,5.6588,5.6588,5.6546,5.6435,5.6402,5.6285,5.5985,5.6062,5.5732,0.0,5.4289,5.4509,5.3922,0.0,0.0,0.0,0.0,5.3812,5.3812,5.3812,5.3728,5.3544,5.3508,5.3434,5.3214,5.3214,5.3214,5.3214,5.3314,5.3349,5.3349,5.3491,5.3672,5.3968,0.0,0.0,0.0,0.0,0.0,0.0,0.0,0.0,0.0,0.0,0.0,0.0,0.0,0.0,0.0,0.0,0.0,0.0,0.0,0.0,0.0,0.0,0.0,0.0,0.0,0.0,0.0,0.0,0.0,5.795,5.7302,0.0,0.0,0.0,0.0,5.5709,5.5709,5.6031,5.6809,5.6848,5.7166,5.7927,5.795,5.7962,5.7997,5.7997,5.7997,5.7997,5.7997,5.7997,5.7997,5.7997,5.7997,5.7997,5.7997,5.7997,5.7997,5.7997,5.7997,5.7997,5.7997,5.7997,5.7997,5.7997,5.7997,5.7997,5.7997,5.7997,5.7997,5.7997,5.796,5.7923,5.7923,5.8215,0.0,0.0,5.8849,5.9215,5.9215,5.9215,5.9099,5.8654,5.8524,5.8194,5.7019,5.7336,5.7409,0.0,5.5511,5.5548,5.5475,0.0,5.5475,5.5475,5.5475,5.5475,5.5475,5.5475,5.5181,5.4436,5.4326,5.4032,5.3251,5.3214,5.3214,5.3214,5.3546,5.3786,5.3786,5.4196,5.4428,5.4452,5.4452,0.0,0.0,0.0,0.0,0.0,0.0,0.0,0.0,0.0,0.0,0.0,0.0,0.0,0.0,0.0,0.0,0.0,0.0,0.0,0.0,0.0,0.0,0.0,0.0,0.0,0.0,0.0,0.0,5.7997,5.7762,0.0,5.7619,5.734,5.7167,5.7167,5.7167,5.7303,5.757,5.7619,5.7726,5.7997,5.7997,5.7997,5.7997,5.7997,5.7997,5.7997,5.7997,5.7997,5.7997,5.7997,5.7997,5.7997,5.7997,5.7997,5.7997,5.7997,5.7997,5.7997,5.7997,5.8161,5.8461,5.8461,5.8642,5.8903,5.8903,5.8903,5.8903,5.8903,5.8903,5.8903,5.8903,5.9037,5.9139,5.9139,5.9266,5.9389,5.9389,5.9389,5.9354,5.9176,5.9139,5.9018,5.8577,5.8679,5.8726,5.8174,5.7122,5.6198,5.5695,5.5585,5.5585,5.5585,5.5585,5.5585,5.5585,5.5585,5.5627,5.5633,5.5636,5.5636,5.564,5.5629,5.5629,5.5629,5.5789,5.5838,5.5838,5.5483,5.5427,5.5727,5.5187,5.4995,0.0,0.0,0.0,0.0,0.0,0.0,0.0,0.0,0.0,0.0,0.0,0.0,0.0,0.0,0.0,0.0,0.0,0.0,0.0,0.0,0.0,0.0,0.0,0.0,0.0,5.7997,5.7997,5.7997,5.7997,5.7997,5.7997,5.7997,5.7997,5.7997,5.7997,5.7997,5.7997,5.7997,5.7997,5.7997,5.7997,5.7997,5.7997,5.7997,5.7997,5.7997,5.7997,5.7997,5.7997,5.7997,5.8074,5.8227,5.8227,5.8337,5.8482,5.8482,5.8482,5.8471,5.8304,5.8508,5.8942,5.8942,5.9121,5.9389,5.9389,5.9389,5.9389,5.9389,5.9389,5.9389,5.9389,5.9501,5.9625,5.9625,5.9768,5.987,5.987,5.987,5.9839,5.9658,5.9625,5.9584,5.9424,5.9389,5.9389,5.9389,5.8454,5.7528,5.6982,5.6871,5.6846,5.6683,5.6784,5.6809,5.6683,5.6794,5.69,5.6921,5.6921,5.6953,5.7016,5.7003,5.7003,5.7003,5.7131,5.7202,5.7202,5.6792,5.6591,5.6595,5.6059,5.6004,5.6588,0.0,0.0,0.0,0.0,0.0,0.0,0.0,0.0,0.0,0.0,0.0,0.0,0.0,0.0,0.0,0.0,0.0,0.0,0.0,0.0,0.0,0.0,0.0,5.8111,5.8068,5.8068,5.8068,5.8068,5.8104,5.8104,5.8081,5.807,5.807,5.807,5.807,5.807,5.807,5.807,5.807,5.807,5.807,5.807,5.807,5.807,5.807,5.807,5.807,5.807,5.8093,5.8345,5.8788,5.877,5.9065,5.9473,5.9436,5.9444,5.941,5.8913,5.9028,5.9415,5.9415,5.9424,5.9432,5.9432,5.9432,5.9432,5.9432,5.9432,5.9432,5.9432,5.9776,6.0125,6.0125,6.0463,6.0787,6.0787,6.0787,6.0703,6.021,6.0125,5.9984,5.9534,5.9432,5.9432,5.9432,5.9432,5.9424,5.9398,5.9389,5.9239,5.8786,5.9093,0.0,5.8766,5.9102,5.9105,5.8337,5.8262,5.7939,5.7195,5.7119,5.7119,5.7119,5.7467,5.7697,5.7697,5.8123,5.7934,5.706,5.7055,5.7478,5.8313,0.0,0.0,0.0,0.0,0.0,0.0,0.0,0.0,0.0,0.0,0.0,0.0,0.0,0.0,0.0,0.0,0.0,0.0,0.0,0.0,0.0,6.0789,6.0444,5.8719,5.9038,5.9467,5.9467,5.9977,6.0337,6.0337,5.9964,5.9758,5.9758,5.9758,5.9758,5.9758,5.9758,5.9758,5.9758,5.9758,5.9758,5.9758,5.9758,5.9758,5.9758,5.9758,5.9758,5.9734,6.013,6.0375,6.0543,6.0876,6.1072,6.116,6.0585,6.0556,6.0752,5.9653,5.9484,5.9908,5.9908,6.0125,6.0436,6.0436,6.0436,6.0436,6.0436,6.0436,6.0436,6.0436,6.0502,6.0616,6.0616,6.0716,6.0787,6.0787,6.0787,6.0763,6.0634,6.0616,6.0591,6.0456,6.0436,6.0436,6.0436,6.0436,6.0189,5.9509,5.9389,5.9354,5.9221,5.931,0.0,5.9212,5.931,5.945,5.9574,5.9574,5.9616,5.9747,5.9766,5.9766,5.9766,5.9849,5.9931,5.9931,5.9433,5.8781,5.7973,5.7934,5.805,0.0,0.0,0.0,0.0,0.0,0.0,0.0,0.0,0.0,0.0,0.0,0.0,0.0,0.0,0.0,0.0,0.0,0.0,0.0,0.0,0.0,0.0,6.2031,6.1768,6.0505,6.0605,6.0781,6.0781,6.1221,6.1474,6.1474,6.1218,6.1018,6.1018,6.1018,6.1018,6.1018,6.1018,6.1018,6.1018,6.1018,6.1018,6.1018,6.1018,6.1018,6.1018,6.1018,6.1018,6.1029,6.1361,6.159,6.1797,6.2091,6.2309,6.2467,6.1972,6.1955,0.0,0.0,0.0,0.0,0.0,6.0585,6.0787,6.0787,6.0787,6.0787,6.0787,6.0787,6.0787,6.0787,6.0787,6.0787,6.0787,6.0787,6.0787,6.0787,6.0787,6.0787,6.0787,6.0787,6.0787,6.0787,6.0787,6.0787,6.0787,6.0787,0.0,6.0096,5.9977,5.9916,5.9698,5.9862,5.9908,5.9736,5.987,6.0103,6.0358,6.0378,6.0502,6.0769,6.0787,0.0,0.0,0.0,6.0787,6.0787,5.9973,0.0,0.0,0.0,5.8973,5.9358,0.0,0.0,0.0,5.8627,5.8313,0.0,0.0,0.0,0.0,0.0,0.0,0.0,0.0,0.0,0.0,0.0,0.0,0.0,0.0,0.0,0.0,6.294,6.297,6.297,6.2591,6.2292,6.2126,6.2193,6.2269,6.2269,6.2216,6.2189,6.2189,6.2189,6.2189,6.2189,0.0,0.0,0.0,0.0,6.2189,6.2189,6.2189,6.2189,6.2189,6.2189,6.2189,6.2189,6.2242,6.2484,6.2902,6.2955,6.3194,6.3583,6.3506,6.3391,6.3097,6.118,6.0718,6.1089,6.1089,6.1089,6.1056,6.0979,0.0,0.0,6.0825,6.0787,6.0787,6.0787,6.0787,6.0787,6.0787,6.0787,6.0787,6.0787,6.0787,6.0787,6.0787,6.0787,6.0787,6.0787,6.0787,6.0787,6.0787,6.0787,6.0787,6.0787,6.0787,6.0653,6.0224,6.0521,6.0641,6.0217,6.0527,6.0787,6.0787,0.0,0.0,6.0787,6.0787,6.0787,6.0787,6.0787,6.0787,6.0787,6.005,6.0012,6.0787,6.005,6.0012,6.0787,6.0787,6.0787,6.0748,5.9281,5.8583,0.0,0.0,0.0,0.0,0.0,0.0,0.0,0.0,0.0,0.0,0.0,0.0,0.0,0.0,0.0,6.4611,6.5001,6.5269,6.5269,6.5171,6.4719,6.3641,6.4089,6.45,6.45,6.4124,6.3936,6.3936,6.3936,6.3936,6.3936,6.3936,6.3936,6.3936,6.3936,6.3936,6.3936,6.3936,6.3936,6.3936,0.0,0.0,6.3916,6.4297,6.454,6.4634,6.5064,6.5301,6.532,6.4628,6.3929,6.3269,6.2823,6.272,6.2814,6.2814,6.2814,6.2698,6.2056,6.1864,6.171,6.1018,6.0787,6.0787,6.0787,6.0787,0.0,6.0787,6.0787,6.0787,6.0787,6.0787,6.0787,6.0787,6.0787,6.0787,6.0787,6.0787,6.0787,6.0787,6.0787,6.0787,6.0787,6.0787,6.0763,6.0665,6.0746,6.0763,6.0665,6.0746,6.0787,6.0787,6.0787,6.0787,6.0787,6.0787,6.0787,6.0787,6.0787,6.0787,6.0787,6.0627,6.0633,6.0787,6.0633,6.0633,6.0787,6.0787,6.0787,6.0787,6.0473,6.0319,0.0,0.0,0.0,0.0,0.0,0.0,0.0,0.0,0.0,0.0,0.0,6.5081,6.4782,0.0,6.552,6.552,6.571,6.5904,6.5904,6.5904,6.5647,6.498,6.5259,6.552,6.552,6.5306,6.5145,6.5145,6.5145,6.5145,6.5145,6.5145,6.5145,6.5145,6.5145,6.5145,6.5145,6.5534,6.5763,6.5763,6.6183,6.6183,6.5771,6.597,6.5865,6.5527,6.5788,6.5904,6.5865,6.5436,6.4974,6.4589,6.4589,6.4083,6.3314,6.3314,6.3314,6.3237,6.2858,6.2704,6.2627,6.2204,6.205,6.205,6.205,6.205,6.205,6.205,6.205,6.205,6.205,6.205,6.205,6.205,6.205,6.205,6.205,6.205,6.205,6.205,6.205,6.205,6.205,6.205,6.1781,6.0935,6.0787,6.0787,6.0787,6.0787,6.0787,6.0787,6.0787,6.0787,6.0787,6.0787,6.0787,6.0787,6.0787,6.0787,6.0787,6.0787,6.0787,6.0787,6.0787,6.0787,6.0787,6.0787,6.0828,6.089,6.089,6.089,0.0,0.0,0.0,0.0,0.0,0.0,0.0,6.5563,6.5261,6.5261,6.559,6.5775,6.5321,6.5597,6.5904,6.5904,6.5904,6.5904,6.5904,6.5904,6.5904,6.5904,6.5904,6.5904,6.5904,6.5904,6.5904,6.5904,6.5904,6.5904,6.5904,6.6058,6.6134,6.6134,6.6282,6.6397,6.6397,6.7019,6.7359,6.7359,6.8045,6.8045,6.7359,6.7359,6.7013,6.6397,6.6397,6.6397,6.6359,6.6211,6.6134,6.6134,6.5981,6.5051,6.3814,6.3814,6.3814,6.3775,6.3622,6.3545,6.3506,6.3352,6.3314,6.3314,6.3314,6.3314,6.3314,6.3314,6.3314,6.3314,6.3314,6.3314,6.3314,6.3314,6.3314,6.3314,6.3314,6.3314,6.3314,6.3314,6.3314,6.3314,6.3314,6.3314,6.2852,6.1473,6.1281,6.1281,6.1281,6.1281,6.1281,6.1281,6.1133,6.0979,6.0825,6.0787,6.0787,6.0787,6.0787,6.0787,6.0787,6.0787,6.0787,6.0787,6.0787,6.0816,6.0834,6.0834,6.0905,6.1065,6.1065,6.1065,6.5808,6.5808,6.5808,6.5808,6.5775,6.5768,0.0,6.5833,6.5808,6.5808,6.5872,6.5891,6.5814,6.5878,6.5904,6.5904,6.5904,6.5904,6.5904,6.5904,6.5904,6.5904,6.5904,6.5904,6.5904,6.5904,6.5904,6.5904,6.5904,6.5904,6.5904,6.6596,6.6981,6.6981,6.7705,6.8122,6.8122,6.8199,6.8237,6.8276,6.8353,6.8353,6.8237,6.8237,6.8199,6.8122,6.8122,6.8122,6.8045,6.7282,6.6981,6.6904,6.6173,6.5788,6.559,6.559,6.559,6.5513,6.4705,6.4436,6.432,6.3545,6.3314,6.3314,6.3314,6.3314,6.3314,6.3314,6.3314,6.3314,6.3314,6.3314,6.3314,6.3314,6.3314,6.3314,6.3314,6.3314,6.3314,6.3314,6.3314,6.3314,6.3314,6.3314,6.3237,6.3045,6.3006,6.3006,6.3006,6.3006,6.3006,6.3006,6.2364,6.1633,6.0864,6.0787,6.0787,6.0787,6.0787,6.0787,6.0787,6.0787,6.0787,6.0787,6.0787,6.0877,6.0961,6.0961,6.1077,6.1259,6.1259,6.1259,6.5904,6.5904,6.5904,6.5904,6.5904,6.5904,6.5904,6.5904,6.5904,6.5904,6.5904,6.5904,6.5904,6.5904,6.5904,6.5904,6.5904,6.5904,6.5904,6.5904,6.5904,6.5904,6.5904,6.5904,6.5904,6.5904,6.6096,6.6558,6.6596,6.6821,6.7321,6.7667,6.7859,6.7859,6.8199,6.8391,6.8391,6.8891,6.9161,6.9161,6.9622,6.9629,6.9161,6.9161,6.8891,6.8391,6.8391,6.8391,6.8353,6.8013,6.7859,6.7821,6.7475,6.7359,6.7244,6.6244,6.5904,6.5865,6.5474,6.5359,6.5282,6.4936,6.482,6.482,6.482,6.482,6.482,6.482,6.482,6.482,6.482,6.482,6.482,6.482,6.482,6.482,6.482,6.482,6.482,6.482,6.482,6.482,6.482,6.482,6.482,6.482,6.3929,6.3314,6.3314,6.3314,6.3314,6.3314,6.3012,6.2666,6.2281,6.2243,6.2243,6.2243,6.2243,6.2243,6.2243,6.1826,6.1556,6.1556,6.1146,6.0935,6.1001,6.1124,6.1271,6.1404,6.1404,6.1476,6.6288,6.6244,6.6244,6.6244,6.6244,6.6288,6.6513,6.659,6.659,6.659,6.659,6.659,6.659,6.659,6.659,6.659,6.659,6.659,6.659,6.6359,6.632,6.6551,6.6359,6.632,6.6551,6.6359,6.6551,6.7398,6.7475,6.7744,6.8353,6.8622,6.8776,6.8776,6.8968,6.9084,6.9084,6.9706,7.0014,7.0052,7.0629,7.0591,7.0014,7.0014,6.9706,6.9084,6.9084,6.9084,6.9084,6.8853,6.8776,6.8737,6.8507,6.8391,6.825,6.7087,6.6485,6.6211,6.5981,6.5904,6.5904,6.5904,6.5904,6.5904,6.5904,6.5904,6.5904,6.5904,6.5927,6.5955,6.5955,6.598,6.6041,6.6041,6.6041,6.6041,6.6041,6.6041,6.6041,6.6041,6.6041,6.6041,6.6041,6.6041,6.6041,6.6041,6.4965,6.4133,6.4031,6.4006,6.3929,6.366,6.366,6.3545,6.3314,6.3314,6.3314,6.3314,6.3359,6.3372,6.3372,6.2843,6.2581,6.2581,6.2026,6.1788,6.1843,6.2001,6.2153,6.2273,6.2273,6.2214,6.7282,6.7058,6.7058,6.7058,6.7058,6.7282,6.8122,6.8314,6.8314,6.8314,6.8314,6.8314,6.8314,6.8314,6.8314,6.8314,6.8314,6.8314,6.8314,6.759,6.7359,6.8237,6.759,6.7398,6.8237,6.7552,6.7436,6.8314,6.8353,6.8353,6.8391,6.9206,6.9667,6.9667,7.0437,7.0821,7.0821,7.086,7.086,7.086,7.0898,7.0898,7.086,7.086,7.086,7.0821,7.0821,7.0821,7.0744,6.9975,6.9667,6.959,6.8737,6.8391,6.8437,6.8568,6.7951,6.6942,6.6167,6.5904,6.5904,6.5904,6.5904,6.5904,6.5904,6.5904,6.5904,6.5904,6.6008,6.61,6.61,6.6228,6.6371,6.6371,6.6371,6.6371,6.6371,6.6371,6.6371,6.6371,6.6371,6.6371,6.6371,6.6371,6.6371,6.6371,6.6332,6.6198,6.5869,6.582,6.5513,6.4666,6.4551,6.4205,6.3352,6.3314,6.3314,6.3314,6.3485,6.3592,6.3592,6.3683,6.3741,6.3741,6.3747,6.3818,6.3998,6.4001,6.4075,6.4219,6.4219,6.375,6.8045,6.7975,6.7975,6.7975,6.7975,6.8045,6.8314,6.8391,6.8391,6.8391,6.8391,6.8391,6.8391,6.8391,6.8391,6.8391,6.8391,6.8391,6.8391,6.816,6.809,6.8353,6.8122,6.8321,6.9161,6.8475,6.8321,6.9206,6.9244,6.9513,7.0014,7.036,7.0514,7.0514,7.0744,7.0898,7.0898,7.0898,7.0898,7.0898,7.0898,7.0898,7.0905,7.1059,7.1114,7.112,7.1233,7.1304,7.1265,7.0998,7.0881,7.0881,7.0571,7.0455,7.039,6.9892,6.9453,6.9037,6.8187,6.7881,6.7799,6.729,6.7092,6.6976,6.6424,6.6226,6.6226,6.6226,6.624,6.6294,6.6294,6.6344,6.6387,6.6387,6.6387,6.6387,6.6387,6.6387,6.6387,6.6387,6.6387,6.6387,6.6387,6.6387,6.6387,6.6387,6.6387,6.6344,6.6247,6.6226,6.6114,6.5842,6.5803,6.5687,6.5376,6.5376,6.5376,6.5376,6.5406,6.5447,6.5447,6.4964,6.4645,6.4645,6.4232,6.4015,6.4084,6.4201,6.4255,6.4297,6.4297,6.414,6.893,6.8853,6.8853,6.8853,6.8853,6.893,6.9237,6.9276,6.9276,6.9276,6.9276,6.9276,6.9276,6.9276,6.9276,6.9276,6.9276,6.9322,6.941,6.9114,6.9079,6.9463,6.9248,6.9402,7.0247,6.9822,6.9693,7.0111,7.0129,7.036,7.086,7.0898,7.0898,7.0898,7.0898,7.0898,7.0898,7.0898,7.092,7.101,7.1085,7.1098,7.1104,7.1242,7.1317,7.1326,7.1427,7.1481,7.1481,7.1481,7.1481,7.1481,7.1481,7.1481,7.1452,7.0934,7.0726,7.0562,6.9344,6.8897,6.8819,6.831,6.8112,6.8034,6.7447,6.7288,6.721,6.6938,6.6899,6.6863,6.6548,6.6505,6.6574,6.6574,6.6574,6.6574,6.6574,6.6574,6.6574,6.6574,6.6574,6.6574,6.6574,6.6574,6.6574,6.6574,6.6574,6.6546,6.6402,6.6387,6.6387,6.6387,6.6387,6.6387,6.6387,6.6387,6.6387,6.6387,6.6441,6.647,6.647,6.6011,6.5722,6.5722,6.5308,6.5094,6.5094,6.5193,6.5234,6.5234,6.5234,6.5078,6.999,6.9797,6.9797,6.9797,6.9784,6.9963,7.0733,7.0912,7.0898,7.0898,7.0898,7.0898,7.0898,7.0912,7.0925,7.0925,7.09,7.0991,7.1201,7.0505,7.0363,7.1382,7.0791,7.0596,7.1403,7.1481,7.1357,7.0966,7.0914,7.0914,7.0914,7.0914,7.0914,7.0914,7.0914,7.0914,7.0914,7.0914,7.1041,7.1203,7.1393,7.1481,7.1481,7.1491,7.1495,7.1495,7.1505,7.1547,7.1547,7.1547,7.1547,7.1547,7.1547,7.1547,7.1527,7.1663,7.1737,7.1452,6.9671,6.9077,6.9038,6.8999,6.8999,6.896,6.8921,6.8921,6.8766,6.7981,6.7879,6.7796,6.6975,6.69,6.7031,6.7031,6.7031,6.7031,6.7031,6.7031,6.7031,6.6992,6.6914,6.6914,6.6914,6.6914,6.6914,6.6914,6.6914,6.6783,6.6452,6.6412,6.6412,6.6412,6.6412,6.6412,6.6412,6.6412,6.6412,6.6412,6.6533,6.6622,6.6622,6.6789,6.6914,6.6914,6.6914,6.6914,6.6914,6.6914,6.6914,6.6914,6.6914,6.6445,7.1094,7.1055,7.1055,7.1055,7.0918,7.0877,7.107,7.1004,7.0898,7.0898,7.0898,7.0898,7.0898,7.1029,7.1109,7.1109,7.1242,7.1344,7.1439,7.1214,7.1194,7.1474,7.129,7.1251,7.1481,7.1481,7.1442,7.1331,7.1361,7.1361,7.1361,7.1361,7.1361,7.1361,7.1361,7.1361,7.1361,7.1361,7.1352,7.1408,7.1496,7.1481,7.1485,7.1607,7.1651,7.1655,7.18,7.1857,7.1857,7.1857,7.1857,7.1857,7.1857,7.1857,7.1898,7.1907,7.191,7.187,7.1394,7.1195,7.1117,7.0453,7.0257,7.0101,6.9476,6.932,6.9281,6.9047,6.8975,6.898,6.8824,6.8749,6.8789,6.8828,6.8828,6.8828,6.8789,6.8789,6.8633,6.8008,6.7344,6.6914,6.6914,6.6914,6.6914,6.6914,6.6914,6.6874,6.6783,6.678,6.678,6.678,6.678,6.678,6.678,6.678,6.678,6.678,6.6789,6.6832,6.6832,6.6874,6.6914,6.6914,6.6914,6.6914,6.6914,6.6914,6.6914,6.6914,6.6914,6.6797,7.1481,7.1481,7.1481,7.1481,7.1435,7.1344,7.1344,7.1237,7.1131,7.1038,7.1047,7.1004,7.0925,7.1056,7.1216,7.1216,7.1387,7.1508,7.158,7.1591,7.1612,7.1704,7.171,7.171,7.171,7.171,7.171,7.171,7.1566,7.1481,7.1481,7.1481,7.1481,7.1481,7.1481,7.1481,7.1481,7.1557,7.1591,7.1591,7.1688,7.171,7.1712,7.18,7.1815,7.1855,0.0,7.1992,7.1992,7.1992,7.1992,7.1992,7.1992,7.1992,7.1992,7.1992,7.1992,7.1992,7.1992,7.1992,7.1914,7.1445,7.1289,7.1172,7.0703,7.0586,7.0508,7.0078,6.9961,6.9883,6.9531,6.9414,6.9414,6.9492,6.9492,6.9492,6.9414,6.9453,6.9375,6.8867,6.8398,6.8047,6.8008,6.8008,6.8008,6.8047,6.8047,6.8047,6.8008,6.7344,6.6914,6.6914,6.6914,6.6914,6.6914,6.6914,6.6914,6.6914,6.6914,6.6914,6.6914,6.6914,6.6914,6.6914,6.6914,6.6914,6.6914,6.6914,6.6914,6.6914,6.6914,6.6914,7.1587,7.1587,7.1587,7.1587,7.1533,7.1518,7.1518,7.1498,7.1435,7.1276,7.1233,7.1201,7.1016,7.1142,7.1285,7.1285,7.1431,7.1596,7.1737,7.1746,7.1807,7.1992,7.1992,7.1992,7.1992,7.1992,7.1992,7.1992,7.1716,7.1587,7.1587,7.1587,7.1587,7.1587,7.1587,7.1587,7.1587,7.1667,7.1746,7.1747,7.1909,7.1992,7.1992,7.1992,7.1992,7.1992,7.1992,7.1992,7.1992,7.1992,7.1992,7.1992,7.1992,7.1992,7.1992,7.1992,7.1992,7.1992,7.1992,7.1992,7.1992,7.1992,7.1992,7.1992,7.1992,7.1992,7.1836,7.1094,7.0859,7.0703,6.9922,6.9765,6.9765,6.9805,6.9844,6.9805,6.9765,6.9687,6.9648,6.9648,6.957,6.9492,6.9414,6.9414,6.9414,6.9492,6.9492,6.9453,6.9414,6.8125,6.7226,6.7226,6.7226,6.7187,6.707,6.707,6.7031,6.6914,6.6914,6.6914,6.6914,6.6914,6.6914,6.6914,6.6914,6.6914,6.6914,6.6914,6.6914,6.6914,6.6914,6.6914,7.1906,7.1906,7.1906,7.1906,7.1796,7.1665,7.1665,7.158,7.1471,7.1477,7.1431,7.142,7.1385,7.1536,7.1596,7.1596,7.1793,7.1907,7.1951,7.1951,7.1952,7.1992,7.1992,7.1992,7.1992,7.1992,7.1992,7.1992,7.195,7.1906,7.1906,7.1906,7.1906,7.1906,7.1906,7.1906,7.1906,7.1949,7.1951,7.1951,7.1992,7.1992,7.1992,7.1992,7.1992,7.1992,7.1992,0.0,7.1992,7.1992,7.1992,7.1992,7.1992,7.1992,7.1992,7.1992,7.1992,7.1992,7.1992,7.1992,7.1992,7.1992,7.1992,7.1992,7.1992,7.1992,7.1953,7.1836,7.1758,7.1758,7.1601,7.1562,7.1562,7.1562,7.1562,7.1562,7.1562,7.0976,7.0508,7.0508,6.9961,6.9492,6.9414,6.9414,6.9414,6.9492,6.9453,6.9414,6.9492,6.918,6.8984,6.8984,6.8984,6.8711,6.8047,6.7969,6.7656,6.6953,6.6914,6.6914,6.6914,6.6914,6.6914,6.6914,6.6914,6.6914,6.6914,6.6914,6.6914,6.6914,6.6914,6.6914,7.1992,7.1992,7.1992,7.1992,7.1949,7.1859,7.1859,7.18,7.172,7.1621,7.1607,7.1586,7.1498,7.1614,7.1691,7.1691,7.1862,7.1992,7.1992,7.1992,7.1992,7.1992,7.1992,7.1992,7.1992,7.1992,7.1992,7.1992,7.1992,7.1992,7.1992,7.1992,7.1992,7.1992,7.1992,7.1992,7.1992,7.1992,7.1992,7.1992,7.1992,7.1992,7.1992,7.1992,7.1992,7.1992,7.1992,7.1992,7.1992,7.1992,7.1992,7.1992,7.1992,7.1992,7.1992,7.1992,7.1992,7.1992,7.1992,7.1992,7.1992,7.1992,7.1992,7.1992,7.1992,7.1992,7.1992,7.1992,7.1992,7.1992,7.1992,7.1992,7.1992,7.1992,7.1992,7.1992,7.1992,7.168,7.1367,7.1367,7.1055,7.0781,7.0742,7.0742,7.0742,7.0781,7.0781,7.0742,7.0781,7.0781,7.039,6.9492,6.9414,6.9258,6.8906,6.8828,6.8672,6.8281,6.8203,6.8203,6.8203,6.7812,6.7578,6.7578,6.7148,6.6914,6.6914,6.6914,6.6914,6.6914,6.6914,6.6914,7.1992,7.1992,7.1992,7.1992,7.1992,7.1992,7.1992,7.1992,7.1951,7.1805,7.1756,7.1737,7.1646,7.1708,7.1756,7.1756,7.1906,7.1992,7.1992,7.1992,7.1992,7.1992,7.1992,7.1992,7.1992,7.1992,7.1992,7.1992,7.1992,7.1992,7.1992,7.1992,7.1992,7.1992,7.1992,7.1992,7.1992,7.1992,7.1992,7.1992,7.1992,7.1992,7.1992,7.1992,7.1992,7.1992,7.1992,7.1992,7.1992,7.1992,7.1992,7.1992,7.1992,7.1992,7.1992,7.1992,7.1992,7.1992,7.1992,7.1992,7.1992,7.1992,7.1992,7.1992,7.1992,7.1992,7.1992,7.1992,7.1992,7.1992,7.1992,7.1992,7.1992,7.1992,7.1992,7.1992,7.1992,7.1992,7.1992,7.1992,7.1992,7.1992,7.1992,7.1992,7.1992,7.1992,7.1992,7.1992,7.1992,7.1992,7.1484,7.0117,6.9961,6.9883,6.9765,6.9726,6.9648,6.9492,6.9453,6.9414,6.9414,6.8789,6.8476,6.8476,6.7812,6.7461,6.7461,6.7265,6.7187,6.7187,6.6992,6.6914,7.1992,7.1992,7.1992,7.1992,7.1992,7.1992,7.1992,7.1992,7.1992,7.1992,7.1952,7.1952,7.1951,7.1952,7.1952,7.1952,7.1992,7.1992,7.1992,7.1992,7.1992,7.1992,7.1992,7.1992,7.1992,7.1992,7.1992,7.1992,7.1992,7.1992,7.1992,7.1992,7.1992,7.1992,7.1992,7.1992,7.1992,7.1992,7.1992,7.1992,7.1992,7.1992,7.1992,7.1992,7.1992,7.1992,7.1992,7.1992,0.0,7.1992,7.1992,7.1992,7.1992,7.1992,7.1992,7.1992,7.1992,7.1992,7.1992,7.1992,7.1992,7.1992,7.1992,7.1992,7.1992,7.1992,7.1992,7.1992,7.1992,7.1992,7.1992,7.1992,7.1992,7.1992,7.1992,7.1992,7.1992,7.1992,7.1992,7.1992,7.1992,7.1992,7.1992,7.1992,7.1992,7.1992,7.1992,7.1992,7.1992,7.1992,7.1953,7.1797,7.1758,7.1445,7.0664,7.0586,7.0273,6.9531,6.9492,6.9453,6.9414,6.9336,6.9297,6.9297,6.9258,6.9258,6.9258,6.8476,6.8086,6.8047,6.7265,6.6914,7.1992,7.1992,7.1992,7.1992,7.1992,7.1992,7.1992,7.1992,7.1992,7.1992,7.1992,7.1992,7.1992,7.1992,7.1992,7.1992,7.1992,7.1992,7.1992,7.1992,7.1992,7.1992,7.1992,7.1992,7.1992,7.1992,7.1992,7.1992,7.1992,7.1992,7.1992,7.1992,7.1992,7.1992,7.1992,7.1992,7.1992,7.1992,7.1992,7.1992,7.1992,7.1992,7.1992,7.1992,7.1992,7.1992,7.1992,7.1992,0.0,7.1992,7.1992,7.1992,7.1992,7.1992,7.1992,7.1992,7.1992,7.1992,7.1992,7.1992,7.1992,7.1992,7.1992,7.1992,7.1992,7.1992,7.1992,7.1992,7.1992,7.1992,7.1992,7.1992,7.1992,7.1992,7.1992,7.1992,7.1992,7.1992,7.1992,7.1992,7.1992,7.1992,7.1992,7.1992,7.1992,7.1992,7.1992,7.1992,7.1992,7.1992,7.1992,7.1992,7.1992,7.1875,7.1523,7.1484,7.1367,7.1015,7.1015,7.0976,7.0976,7.0469,7.0195,7.0195,6.9726,6.9492,6.9453,6.9101,6.8945,6.8984,6.8633,6.8437,7.1992,7.1992,7.1992,7.1992,7.1992,7.1992,7.1992,7.1992,7.1992,7.1992,7.1992,7.1992,7.1992,7.1992,7.1992,7.1992,7.1992,7.1992,7.1992,7.1992,7.1992,7.1992,7.1992,7.1992,7.1992,7.1992,7.1992,7.1992,7.1992,7.1992,7.1992,7.1992,7.1992,7.1992,7.1992,7.1992,7.1992,7.1992,7.1992,7.1992,7.1992,7.1992,7.1992,7.1992,7.1992,7.1992,7.1992,7.1992,0.0,7.1992,7.1992,7.1992,7.1992,7.1992,7.1992,7.1992,7.1992,7.1992,7.1992,7.1992,7.1992,7.1992,7.1992,7.1992,7.1992,7.1992,7.1992,7.1992,7.1992,7.1992,7.1992,7.1992,7.1992,7.1992,7.1992,7.1992,7.1992,7.1992,7.1992,7.1992,7.1992,7.1992,7.1992,7.1992,7.1992,7.1992,7.1992,7.1992,7.1992,7.1992,7.1992,7.1992,7.1992,7.1992,7.1992,7.1992,7.1992,7.1992,7.1992,7.1992,7.1992,7.1406,7.1094,7.1094,7.0547,7.0234,7.0156,6.9922,6.9805,6.9844,6.9609,6.9453,7.1992,7.1992,7.1992,7.1992,7.1992,7.1992,7.1992,7.1992,7.1992,7.1992,7.1992,7.1992,7.1992,7.1992,7.1992,7.1992,7.1992,7.1992,7.1992,7.1992,7.1992,7.1992,7.1992,7.1992,7.1992,7.1992,7.1992,7.1992,7.1992,7.1992,7.1992,7.1992,7.1992,7.1992,7.1992,7.1992,7.1992,7.1992,7.1992,7.1992,7.1992,7.1992,7.1992,7.1992,7.1992,7.1992,7.1992,7.1992,0.0,7.1992,7.1992,7.1992,7.1992,7.1992,7.1992,7.1992,7.1992,7.1992,7.1992,7.1992,7.1992,7.1992,7.1992,7.1992,7.1992,7.1992,7.1992,7.1992,7.1992,7.1992,7.1992,7.1992,7.1992,7.1992,7.1992,7.1992,7.1992,7.1992,7.1992,7.1992,7.1992,7.1992,7.1992,7.1992,7.1992,7.1992,7.1992,7.1992,7.1992,7.1992,7.1992,7.1992,7.1992,7.1992,7.1992,7.1992,7.1992,7.1992,7.1992,7.1992,7.1992,7.1992,7.1992,7.1992,7.1992,7.1953,7.1953,7.1094,7.0703,7.0664,6.9805,6.9453,7.1992,7.1992,7.1992,7.1992,7.1992,7.1992,7.1992,7.1992,7.1992,7.1992,7.1992,7.1992,7.1992,7.1992,7.1992,7.1992,7.1992,7.1992,7.1992,7.1992,7.1992,7.1992,7.1992,7.1992,7.1992,7.1992,7.1992,7.1992,7.1992,7.1992,7.1992,7.1992,7.1992,7.1992,7.1992,7.1992,7.1992,7.1992,7.1992,7.1992,7.1992,7.1992,7.1992,7.1992,7.1992,7.1992,7.1992,7.1992,7.1992,7.1992,7.1992,7.1992,7.1992,7.1992,7.1992,7.1992,7.1992,7.1992,7.1992,7.1992,7.1992,7.1992,7.1992,7.1992,7.1992,7.1992,7.1992,7.1992,7.1992,7.1992,7.1992,7.1992,7.1992,7.1992,7.1992,7.1992,7.1992,7.1992,7.1992,7.1992,7.1992,7.1992,7.1992,7.1992,7.1992,7.1992,7.1992,7.1992,7.1992,7.1992,7.1992,7.1992,7.1992,7.1992,7.1992,7.1992,7.1992,7.1992,7.1992,7.1992,7.1992,7.1992,7.1992,7.1992,7.1992,7.1992,7.1992,7.1719,7.1601,7.1562,7.1328,7.0859,7.1992,7.1992,7.1992,7.1992,7.1992,7.1992,7.1992,7.1992,7.1992,7.1992,7.1992,7.1992,7.1992,7.1992,7.1992,7.1992,7.1992,7.1992,7.1992,7.1992,7.1992,7.1992,7.1992,7.1992,7.1992,7.1992,7.1992,7.1992,7.1992,7.1992,7.1992,7.1992,7.1992,7.1992,7.1992,7.1992,7.1992,7.1992,7.1992,7.1992,7.1992,7.1992,7.1992,7.1992,7.1992,7.1992,7.1992,7.1992,0.0,7.1992,7.1992,7.1992,7.1992,7.1992,7.1992,7.1992,7.1992,7.1992,7.1992,7.1992,7.1992,7.1992,7.1992,7.1992,7.1992,7.1992,7.1992,7.1992,7.1992,7.1992,7.1992,7.1992,7.1992,7.1992,7.1992,7.1992,7.1992,7.1992,7.1992,7.1992,7.1992,7.1992,7.1992,7.1992,7.1992,7.1992,7.1992,7.1992,7.1992,7.1992,7.1992,7.1992,7.1992,7.1992,7.1992,7.1992,7.1992,7.1992,7.1992,7.1992,7.1992,7.1992,7.1992,7.1992,7.1992,7.1992,7.1992,7.1992,7.1992,7.1992,7.1909,7.1592,0.0,7.1992,7.1992,7.1992,7.1992,7.1992,7.1992,7.1992,0.0,7.1992,7.1992,7.1992,7.1992,7.1992,7.1992,7.1992,7.1992,7.1992,7.1992,7.1992,7.1992,7.1992,7.1992,7.1992,7.1992,7.1992,7.1992,7.1992,7.1992,7.1992,7.1992,7.1992,7.1992,7.1992,7.1992,7.1992,7.1992,7.1992,7.1992,7.1992,7.1992,7.1992,7.1992,7.1992,7.1992,0.0,7.1992,7.1992,7.1992,7.1992,7.1992,7.1992,7.1992,7.1992,7.1992,7.1992,7.1992,7.1992,7.1992,7.1992,7.1992,7.1992,7.1992,7.1992,7.1992,7.1992,7.1992,7.1992,7.1992,7.1992,7.1992,7.1992,7.1992,7.1992,7.1992,7.1992,7.1992,7.1992,7.1992,7.1992,7.1992,7.1992,7.1992,7.1992,7.1992,7.1992,7.1992,7.1992,7.1992,7.1992,7.1992,7.1992,7.1992,7.1992,7.1992,7.1992,7.1992,7.1992,7.1992,7.1992,7.1992,7.1992,7.1992,7.1992,7.1992,7.1992,7.1992,7.1992,7.1992,7.1952,7.1802,7.1688,7.1992,0.0,7.1992,7.1992,7.1992,7.1992,0.0,7.1992,7.1992,7.1992,7.1992,7.1992,7.1992,7.1992,7.1992,7.1992,7.1992,7.1992,7.1992,7.1992,7.1992,7.1992,7.1992,7.1992,7.1992,7.1992,7.1992,7.1992,7.1992,7.1992,7.1992,7.1992,7.1992,7.1992,7.1992,7.1992,7.1992,7.1992,7.1992,7.1992,7.1992,7.1992,7.1992,7.1992,7.1992,7.1992,7.1992,7.1992,7.1992,7.1992,7.1992,7.1992,7.1992,7.1992,7.1992,7.1992,7.1992,7.1992,7.1992,7.1992,7.1992,7.1992,7.1992,7.1992,7.1992,7.1992,7.1992,7.1992,7.1992,7.1992,7.1992,7.1992,7.1992,7.1992,7.1992,7.1992,7.1992,7.1992,7.1992,7.1992,7.1992,7.1992,7.1992,7.1992,7.1992,7.1992,7.1992,7.1992,7.1992,7.1992,7.1992,7.1992,7.1992,7.1992,7.1992,7.1992,7.1992,7.1992,7.1992,7.1992,7.1992,7.1992,7.1992,7.1992,7.1992,7.1992,7.1992,7.1992,7.1909,7.1757,7.174,7.1647,7.1992,7.1992,7.1992,7.1992,7.1992,7.1992,7.1992,7.1992,7.1992,7.1992,7.1992,7.1992,7.1992,7.1992,7.1992,7.1992,7.1992,7.1992,7.1992,7.1992,7.1992,7.1992,7.1992,7.1992,7.1992,7.1992,7.1992,7.1992,7.1992,7.1992,7.1992,7.1992,7.1992,7.1992,7.1992,7.1992,7.1992,7.1992,7.1992,7.1992,7.1992,7.1992,7.1992,7.1992,7.1992,7.1992,7.1992,7.1992,7.1992,7.1992,7.1992,7.1992,7.1992,7.1992,7.1992,7.1992,7.1992,7.1992,7.1992,7.1992,7.1992,7.1992,7.1992,7.1992,7.1992,7.1992,7.1992,7.1992,7.1992,7.1992,7.1992,7.1992,7.1992,7.1992,7.1992,7.1992,7.1992,7.1992,7.1992,7.1992,7.1992,7.1992,7.1992,7.1992,7.1992,7.1992,7.1992,7.1992,7.1992,7.1992,7.1992,7.1992,7.1992,7.1992,7.1992,7.1992,7.1992,7.1992,7.1992,7.1992,7.1992,7.1992,7.1952,7.1861,7.1796,7.1777,7.1777,7.1777,7.1712,7.1612,7.1504,7.1414,7.1992,7.1992,7.1992,7.1992,7.1992,7.1992,7.1992,7.1992,7.1992,7.1992,7.1992,7.1992,7.1992,7.1992,7.1992,7.1992,7.1992,7.1992,7.1992,7.1992,7.1992,7.1992,7.1992,7.1992,7.1992,7.1992,7.1992,7.1992,7.1992,7.1992,7.1992,7.1952,7.1951,7.1951,7.1949,7.1907,7.1907,7.1952,7.1992,7.1992,7.1992,7.1992,7.1992,7.1992,7.1992,7.1992,0.0,0.0,7.1992,7.1992,7.1992,7.1992,7.1992,7.1992,7.1992,7.1992,7.1992,7.1951,7.1948,7.1907,7.1907,7.1907,7.1907,7.1907,7.1907,7.1907,7.1907,7.1907,7.1951,7.1992,7.1992,7.1992,7.1992,7.1992,7.1992,7.1992,7.1992,7.1992,7.1992,7.1992,7.1992,7.1992,7.1992,7.1992,7.1992,7.1992,7.1992,7.1992,7.1992,7.1952,7.1952,7.1992,7.1951,7.1948,7.1951,7.1949,7.1907,7.1907,7.195,7.195,7.1908,7.1907,7.1852,7.1669,7.1557,7.1481,7.1481,7.1481,7.1467,7.1435,7.128,7.1195,7.1992,7.1992,7.1992,7.1992,7.1992,7.1992,7.1992,7.1992,7.1992,7.1992,7.1992,7.1992,7.1992,7.1992,7.1992,7.1992,7.1992,7.1992,7.1992,7.1992,7.1992,7.1992,7.1992,7.1992,7.1992,7.1992,7.1992,7.1992,7.1992,7.1992,7.1992,7.1855,7.1749,7.1749,7.1624,7.1599,7.1599,7.1852,7.1992,7.1992,7.1992,7.1992,7.1992,7.1992,7.1992,7.1992,0.0,7.1992,7.1992,7.1992,7.1992,7.1992,7.1992,7.1992,7.1992,7.1992,7.1906,7.1738,7.1604,7.1599,7.1599,7.1599,7.1599,7.1599,7.1599,7.1599,7.1599,7.1599,7.1783,7.1992,7.1992,7.1992,7.1992,7.1992,7.1992,7.1992,7.1992,7.1992,7.1992,7.1992,7.1992,7.1992,7.1992,7.1992,7.1992,7.1992,7.1992,7.1992,7.1992,7.1859,7.1809,7.1992,7.1764,7.1609,7.1743,7.1629,7.1599,7.1599,7.1665,7.1714,7.1566,7.1599,7.1549,7.1524,7.1495,7.1481,7.1481,7.1481,7.1397,7.1237,7.1198,7.1125,7.1992,7.1992,7.1992,7.1992,7.1992,7.1992,7.1992,7.1992,7.1992,7.1992,7.1992,7.1952,7.186,7.1855,7.1807,7.1725,7.1716,7.1716,7.1716,7.1716,7.1716,7.1716,7.1716,7.1716,7.1716,7.1716,7.1716,7.1716,7.1716,7.1716,7.1716,7.1629,7.1596,7.1596,7.1524,7.1481,7.1481,7.1663,7.1716,7.1716,7.1716,7.1716,7.1716,7.1716,7.1716,7.1716,0.0,7.1716,7.1716,7.1716,7.1716,7.1716,7.1716,7.1716,7.1716,7.1716,7.1686,7.1586,7.1511,7.1481,7.1481,7.1481,7.1481,7.1481,7.1481,7.1481,7.1481,7.1481,7.163,7.1767,7.1809,7.1791,7.178,7.1951,7.1854,7.173,7.181,7.1789,7.1716,7.1716,7.1716,7.1716,7.1716,7.1716,7.1716,7.1716,7.1716,7.1716,7.1716,7.1633,7.1619,7.171,7.1575,7.1514,7.1588,7.1527,7.1481,7.1481,7.1557,7.1563,7.1485,7.1416,7.1353,7.1353,7.1223,7.1185,7.1185,7.1185,7.1115,7.1053,7.1053,7.0972,7.1992,7.1992,7.1992,7.1992,7.1992,7.1992,7.1992,7.1952,7.1949,7.1949,7.1905,7.1848,7.1669,7.1655,7.1624,7.1505,7.1481,7.1481,7.1481,7.1481,7.1481,7.1481,7.1481,7.1481,7.1481,7.1481,7.1481,7.1481,7.1481,7.1481,7.1481,7.1477,7.1412,7.1412,7.1365,7.1378,7.1378,7.1378,7.1428,7.1481,7.1481,7.1481,7.1481,7.1481,7.1481,7.1481,7.1481,7.1481,7.1481,7.1481,7.1481,7.1481,7.1481,7.1481,7.1474,7.1431,7.1412,7.1404,7.1395,7.1378,7.1378,7.1378,7.1378,7.1378,7.1378,7.1378,7.1378,7.1378,7.1378,7.1401,7.1614,7.1577,7.1549,7.1801,7.1688,7.1518,7.1635,7.1575,7.1481,7.1481,7.1481,7.1481,7.1481,7.1481,7.1481,7.1481,7.1481,7.1481,7.1481,7.1442,7.1431,7.1478,7.1439,7.1378,7.1378,7.1378,7.1378,7.1378,7.1378,7.1378,7.1378,7.1193,7.112,7.112,7.0998,7.0898,7.0898,7.0898,7.0898,7.0898,7.0898,7.0898,7.1992,7.1992,7.1992,7.1992,7.1992,7.1992,7.1992,7.1859,7.1738,7.1738,7.1619,7.1514,7.1501,7.1501,7.1495,7.1485,7.1481,7.1481,7.1481,7.1481,7.1481,7.1481,7.1481,7.1481,7.1481,7.1481,7.1481,7.1481,7.1481,7.1481,7.1481,7.1335,7.1208,7.1208,7.102,7.094,7.094,7.094,7.112,7.1481,7.1481,7.1481,7.1481,7.1481,7.1481,7.1481,7.1481,7.1481,7.1481,7.1481,7.1481,7.1481,7.1481,7.1481,7.1499,7.1294,7.1208,7.1172,7.101,7.094,7.094,7.094,7.094,7.094,7.094,7.094,7.094,7.094,7.094,7.1047,7.1404,7.1491,7.1527,7.1514,7.154,7.1485,7.1498,7.153,7.1481,7.1481,7.1481,7.1481,7.1481,7.1481,7.1481,7.1481,7.1481,7.1481,7.1481,7.1353,7.1299,7.1464,7.1169,7.094,7.094,7.094,7.094,7.094,7.094,7.094,7.094,7.0914,7.0939,7.0939,7.0912,7.0898,7.0898,7.0898,7.0898,7.0898,7.0898,7.0898,7.1992,7.1908,7.181,7.181,7.1737,7.1708,7.1801,7.1752,7.1673,7.1596,7.1527,7.1446,7.1353,7.1193,7.1115,7.1115,7.1115,7.1115,7.1115,7.1115,7.1115,7.1115,7.1115,7.1115,7.1115,7.1115,7.1115,7.1115,7.1115,7.1115,7.1115,7.1044,7.1016,7.1016,7.0934,7.0898,7.0898,7.0898,7.0992,7.1115,7.1115,7.1115,7.1115,7.1115,7.1115,7.1115,7.1115,7.1115,7.1115,7.1115,7.1115,7.1115,7.1115,7.1115,7.1104,7.102,7.1016,7.0998,7.0946,7.0898,7.0898,7.0898,7.0898,7.0898,7.0898,7.0898,7.0898,7.0898,7.0898,7.0973,7.1233,7.1208,7.1206,7.1424,7.1317,7.1164,7.129,7.1236,7.1115,7.1115,7.1115,7.1115,7.1115,7.1115,7.1115,7.1115,7.1115,7.1115,7.1115,7.105,7.1026,7.1104,7.0979,7.0898,7.0898,7.0898,7.0898,7.0898,7.0898,7.0898,7.0898,7.0898,7.0898,7.0898,7.0898,7.0898,7.0898,7.0898,7.0898,7.0898,7.0898,7.0898,7.1907,7.1753,7.164,7.164,7.1569,7.1498,7.1524,7.1538,7.1507,7.1416,7.1331,7.1266,7.112,7.0985,7.0898,7.0898,7.0898,7.0898,7.0898,7.0898,7.0898,7.0898,7.0898,7.0898,7.0898,7.0898,7.0898,7.0898,7.0898,7.0898,7.0898,7.0898,7.0898,7.0898,7.0898,7.0898,7.0898,7.0898,7.0898,7.0898,7.0898,7.0898,7.0898,7.0898,7.0898,7.0898,7.0898,7.0898,7.0898,7.0898,7.0898,7.0898,7.0898,7.0898,7.0898,7.0898,7.0898,7.0898,7.0898,7.0898,7.0898,7.0898,7.0898,7.0937,7.1245,7.1321,7.136,7.1629,7.1706,7.1761,7.1873,7.1422,7.0979,7.1237,7.1114,7.0927,7.1074,7.0991,7.0898,7.0898,7.0898,7.0898,7.0898,7.0898,7.0898,7.0898,7.0898,7.0898,7.0898,7.0898,7.0898,7.0898,7.0898,7.0898,7.0898,7.0898,7.0898,7.0898,7.0898,7.0898,7.0898,7.0898,7.0898,7.0898,7.0898,7.0898,7.0898,7.0898,7.0898,7.0898,7.0898,7.0898,7.1689,7.1604,7.1517,7.1517,7.1517,7.1427,7.1237,7.1216,7.1216,7.1216,7.1059,7.0898,7.0898,7.0898,7.0898,7.0898,7.0898,7.0898,7.0898,7.0898,7.0898,7.0898,7.0898,7.0898,7.0898,7.0898,7.0898,7.0898,7.0898,7.0898,7.0898,7.0898,7.0898,7.0898,7.0898,7.0898,7.0898,7.0898,7.0898,7.0898,7.0898,7.0898,7.0898,7.0898,7.0898,7.0898,7.0898,7.0898,7.0898,7.0898,7.0898,7.0898,7.0898,7.0898,7.0898,7.0898,7.0898,7.0898,7.0898,7.0898,7.0898,7.0898,7.0937,7.1091,7.1944,7.2213,7.2406,7.3238,7.3507,7.3507,7.3507,7.2206,7.0937,7.0937,7.0937,7.0937,7.0937,7.0937,7.0898,7.0898,7.0898,7.0898,7.0898,7.0898,7.0898,7.0898,7.0898,7.0898,7.0898,7.0898,7.0898,7.0898,7.0898,7.0898,7.0898,7.0898,7.0898,7.0898,7.0898,7.0898,7.0898,7.0898,7.0898,7.0898,7.0898,7.0898,7.0898,7.0898,7.0898,7.0898,7.0898,7.0898,7.1557,7.1427,7.1294,7.1294,7.1195,7.1056,7.0998,7.1108,7.1164,7.1022,7.0934,7.0898,7.0898,7.0898,7.0898,7.0898,7.0898,7.0898,7.0898,7.0898,7.0898,7.0898,7.0898,7.0898,7.0898,7.0898,7.0898,7.0898,7.0898,7.0898,7.0898,7.0898,7.0898,7.0898,7.0898,7.0898,7.0898,7.0898,7.0898,7.0898,7.0898,7.0898,7.0898,7.0898,7.0898,7.0898,7.0898,7.0898,7.0898,7.0898,7.0898,7.0898,7.0898,7.0898,7.0898,7.0898,7.0898,7.0898,7.0898,7.1283,7.1828,7.1828,7.2245,7.2776,7.3046,7.3129,7.3168,7.343,7.3507,7.3507,7.3507,7.3122,7.2738,7.2738,7.2738,7.2738,7.2738,7.2245,7.1828,7.1828,7.1321,7.0898,7.0898,7.0898,7.0898,7.0898,7.0898,7.0898,7.0898,7.0898,7.0898,7.0898,7.0898,7.0898,7.0898,7.0898,7.0898,7.0898,7.0898,7.0898,7.0898,7.0898,7.0898,7.0898,7.0898,7.0898,7.0898,7.0898,7.0898,7.0898,7.0898,7.0898,7.136,7.1223,7.1085,7.1085,7.0979,7.0898,7.0898,7.0985,7.1071,7.0907,7.0898,7.0898,7.0898,7.0898,7.0898,7.0898,7.0898,7.0898,7.0898,7.0898,7.0898,7.0898,7.0898,7.0898,7.0898,7.0898,7.0898,7.0898,7.0898,7.0898,7.0898,7.0898,7.0898,7.0898,7.0898,7.0898,7.0898,7.0898,7.0898,7.0898,7.0898,7.0898,7.0898,7.0898,7.0898,7.0898,7.0898,7.0898,7.0898,7.0898,7.0898,7.0898,7.0898,7.0898,7.0937,7.1283,7.1398,7.1475,7.1822,7.2283,7.2706,7.2706,7.3091,7.3546,7.3892,7.3969,7.4046,7.4392,7.4469,7.4469,7.4469,7.4469,7.4315,7.3661,7.3507,7.3507,7.3507,7.3091,7.2706,7.2706,7.2283,7.1937,7.1937,7.1937,7.1822,7.1475,7.1129,7.0898,7.0898,7.0898,7.0898,7.0898,7.0898,7.0898,7.0898,7.0898,7.0898,7.0898,7.0898,7.0898,7.0898,7.0898,7.0898,7.0898,7.0898,7.0898,7.0898,7.0898,7.0898,7.0898,7.0898,7.0898,7.118,7.1059,7.0898,7.0898,7.0898,7.0898,7.0898,7.0898,7.0898,7.0898,7.0898,7.0898,7.0898,7.0898,7.0898,7.0898,7.0898,7.0898,7.0898,7.0898,7.0898,7.0898,7.0898,7.0898,7.0898,7.0898,7.0898,7.0898,7.0898,7.0898,7.0898,7.0898,7.0898,7.0898,7.0898,7.0898,7.0898,7.0898,7.0898,7.0898,7.0898,7.0898,7.0898,7.0898,7.0898,7.0898,7.0898,7.0898,7.0898,7.0898,7.0898,7.0898,7.0975,7.1014,7.1129,7.2014,7.2329,7.2444,7.3238,7.3546,7.3623,7.3623,7.3661,7.3853,7.4584,7.4815,7.4976,7.5784,7.6015,7.6015,7.6015,7.6015,7.563,7.4084,7.3738,7.3738,7.3738,7.3661,7.3623,7.3623,7.3546,7.3507,7.3507,7.3507,7.3238,7.2444,7.1629,7.1129,7.1129,7.1052,7.1014,7.1014,7.0937,7.0898,7.0898,7.0898,7.0898,7.0898,7.0898,7.0898,7.0898,7.0898,7.0898,7.0898,7.0898,7.0898,7.0898,7.0898,7.0898,7.0898,7.0898,7.0898,7.0973,7.092,7.0898,7.0898,7.0898,7.0898,7.0898,7.0898,7.0898,7.0898,7.0898,7.0898,7.0898,7.0898,7.0898,7.0898,7.0898,7.0898,7.0898,7.0898,7.0898,7.0898,7.0898,7.0898,7.0898,7.0898,7.0898,7.0898,7.0898,7.0898,7.0898,7.0898,7.0898,7.0898,7.0898,7.0898,7.0898,7.0898,7.0898,7.0898,7.0898,7.0898,7.0898,7.0898,7.0898,7.0898,7.0898,7.0898,7.0898,7.0898,7.0898,7.0975,7.1629,7.1905,7.2021,7.2899,7.3199,7.3238,7.343,7.3892,7.443,7.443,7.4892,7.5476,7.5668,7.5707,7.5745,7.5938,7.6015,7.6015,7.6015,7.6015,7.5899,7.5553,7.5476,7.5476,7.5476,7.4938,7.443,7.443,7.393,7.3507,7.3507,7.3507,7.343,7.3238,7.3046,7.293,7.293,7.2322,7.1905,7.1905,7.1321,7.0898,7.0898,7.0898,7.0898,7.0898,7.0898,7.0898,7.0898,7.0898,7.0898,7.0898,7.0898,7.0898,7.0898,7.0898,7.0898,7.0898,7.0898,7.0898,7.0898,7.0898,7.0898,7.0898,7.0898,7.0898,7.0898,7.0898,7.0898,7.0898,7.0898,7.0898,7.0898,7.0898,7.0898,7.0898,7.0898,7.0898,7.0898,7.0898,7.0898,7.0898,7.0898,7.0898,7.0898,7.0898,7.0898,7.0898,7.0898,7.0898,7.0898,7.0898,7.0898,7.0898,7.0898,7.0898,7.0898,7.0898,7.0898,7.0898,7.0898,7.0898,7.0898,7.0898,7.0898,7.0898,7.0898,7.0898,7.0937,7.136,7.1514,7.1591,7.2476,7.2822,7.2937,7.3738,7.4084,7.4123,7.4546,7.4976,7.5322,7.5322,7.563,7.6015,7.6015,7.6015,7.6015,7.6015,7.6015,7.6015,7.6015,7.6015,7.6015,7.6015,7.6015,7.6015,7.6015,7.563,7.5322,7.5322,7.4976,7.4707,7.4707,7.4353,7.4084,7.4084,7.3738,7.3507,7.3507,7.3091,7.2822,7.2822,7.2437,7.1975,7.1552,7.1514,7.1321,7.0937,7.0898,7.0898,7.0898,7.0898,7.0898,7.0898,7.0898,7.0898,7.0898,7.0898,7.0898,7.0898,7.0898,7.0898,7.0898,7.0898,7.0898,7.0898,7.0898,7.0898,7.0898,7.0898,7.0898,7.0898,7.0898,7.0937,7.1091,7.1129,7.1168,7.1321,7.136,7.136,7.136,7.136,7.136,7.136,7.136,7.136,7.136,7.136,7.1283,7.1129,7.1129,7.1052,7.0898,7.0898,7.0898,7.0898,7.0898,7.0898,7.0898,7.1052,7.1129,7.1129,7.1283,7.136,7.136,7.136,7.1283,7.1129,7.1129,7.1206,7.1398,7.2129,7.2399,7.2514,7.3353,7.3699,7.3815,7.4623,7.4938,7.5014,7.5745,7.6015,7.6015,7.6015,7.6015,7.6015,7.6015,7.6015,7.6015,7.6015,7.6015,7.6015,7.6015,7.6015,7.6015,7.6015,7.6015,7.6015,7.6015,7.6015,7.6015,7.6015,7.6015,7.6015,7.6015,7.5399,7.4938,7.4938,7.4353,7.393,7.393,7.3815,7.3699,7.3699,7.3584,7.3199,7.2476,7.2399,7.2129,7.1398,7.1206,7.1129,7.1129,7.0975,7.0898,7.0898,7.0898,7.0898,7.0898,7.0898,7.0898,7.0898,7.0898,7.0898,7.0898,7.0898,7.0898,7.0898,7.0898,7.0898,7.0898,7.0898,7.0898,7.0898,7.0898,7.1129,7.1905,7.2021,7.2283,7.3046,7.3161,7.3161,7.3161,7.3161,7.3161,7.3161,7.3161,7.3161,7.3161,7.3161,7.286,7.2091,7.2021,7.1713,7.0937,7.0898,7.0898,7.0898,7.0898,7.0898,7.0898,7.1629,7.2021,7.2059,7.2783,7.3161,7.3161,7.3161,7.2745,7.2021,7.2021,7.2437,7.3161,7.3276,7.3315,7.3392,7.4199,7.4546,7.4623,7.5515,7.5822,7.5822,7.5976,7.6015,7.6015,7.6015,7.6015,7.6015,7.6015,7.6015,7.6015,7.6015,7.6015,7.6015,7.6015,7.6015,7.6015,7.6015,7.6015,7.6015,7.6015,7.6015,7.6015,7.6015,7.6015,7.6015,7.6015,7.5899,7.5822,7.5822,7.5745,7.5668,7.5668,7.5007,7.4546,7.4546,7.393,7.343,7.3353,7.3315,7.3276,7.3161,7.2437,7.2021,7.2021,7.1283,7.0898,7.0898,7.0898,7.0898,7.0898,7.0898,7.0898,7.0898,7.0898,7.0898,7.0898,7.0898,7.0898,7.0898,7.0898,7.0898,7.0898,7.0898,7.0898,7.0898,7.1283,7.1752,7.2136,7.2591,7.3053,7.343,7.3507,7.3507,7.3507,7.3507,7.3507,7.3507,7.3507,7.3507,7.3507,7.3507,7.3353,7.2976,7.2937,7.2745,7.2399,7.2353,7.2353,7.2353,7.2353,7.2353,7.2353,7.2745,7.2937,7.2937,7.3315,7.3507,7.3507,7.3507,7.3276,7.2937,7.2937,7.3161,7.3546,7.4007,7.4161,7.4276,7.5091,7.5438,7.5476,7.5861,7.6015,7.6015,7.6015,7.6015,7.6015,7.6015,7.6015,7.6015,7.6015,7.6015,7.6015,7.6015,7.6015,7.6015,7.6015,7.6015,7.6015,7.6015,7.6015,7.6015,7.6015,7.6015,7.6015,7.6015,7.6015,7.6015,7.6015,7.6015,7.6015,7.6015,7.6015,7.6015,7.6015,7.5668,7.5438,7.5438,7.513,7.4707,7.4199,7.4161,7.3969,7.3546,7.3122,7.2937,7.2937,7.2091,7.1636,7.1636,7.1168,7.0898,7.0898,7.0898,7.0898,7.0898,7.0898,7.0898,7.0898,7.0898,7.0898,7.0898,7.0898,7.0898,7.0898,7.0898,7.0898,7.0898,7.1591,7.229,7.2476,7.3245,7.3892,7.4084,7.4123,7.4123,7.4123,7.4123,7.4123,7.4123,7.4123,7.4123,7.4123,7.4123,7.4046,7.3815,7.3815,7.3738,7.3507,7.3507,7.3507,7.3507,7.3507,7.3507,7.3507,7.3699,7.393,7.4123,7.4123,7.4123,7.4123,7.4123,7.4123,7.4123,7.3892,7.393,7.4161,7.4776,7.5014,7.5091,7.5745,7.6015,7.6015,7.6015,7.6015,7.6015,7.6015,7.6015,7.6015,7.6015,7.6015,7.6015,7.6015,7.6015,7.6015,7.6015,7.6015,7.6015,7.6015,7.6015,7.6015,7.6015,7.6015,7.6015,7.6015,7.6015,7.6015,7.6015,7.6015,7.6015,7.6015,7.6015,7.6015,7.6015,7.6015,7.6015,7.6015,7.6015,7.6015,7.6015,7.6015,7.5745,7.5091,7.5014,7.4776,7.4161,7.393,7.3815,7.3815,7.2976,7.2514,7.2514,7.1668,7.1129,7.0898,7.0898,7.0898,7.0898,7.0898,7.0898,7.0898,7.0898,7.0898,7.0898,7.0898,7.0898,7.0898,7.0898,7.0898,7.0898,7.1591,7.2437,7.3276,7.4084,7.4892,7.5745,7.5861,7.5861,7.5861,7.5861,7.5861,7.5861,7.5861,7.5861,7.5861,7.5861,7.5515,7.47,7.4623,7.4315,7.3546,7.3507,7.3507,7.3507,7.3507,7.3507,7.3507,7.4276,7.5053,7.5861,7.5861,7.5861,7.5861,7.5861,7.5861,7.5822,7.5014,7.513,7.5861,7.5938,7.5938,7.5938,7.5976,7.6015,7.6015,7.6015,7.6015,7.6015,7.6015,7.6015,7.6015,7.6015,7.6015,7.6015,7.6015,7.6015,7.6015,7.6015,7.6015,7.6015,7.6015,7.6015,7.6015,7.6015,7.6015,7.6015,7.6015,7.6015,7.6015,7.6015,7.6015,7.6015,7.6015,7.6015,7.6015,7.6015,7.6015,7.6015,7.6015,7.6015,7.6015,7.6015,7.6015,7.5976,7.5938,7.5938,7.5899,7.5861,7.5091,7.4623,7.4623,7.3853,7.343,7.343,7.2591,7.1745,7.0898,7.0898,7.0898,7.0898,7.0898,7.0898,7.0898,7.0898,7.0898,7.0898,7.0898,7.0898,7.0898,7.0898,7.0898,7.0898,7.1591,7.229,7.2591,7.3783,7.4976,7.5861,7.6015,7.6015,7.6015,7.6015,7.6015,7.6015,7.6015,7.6015,7.6015,7.6015,7.5861,7.5553,7.5515,7.5399,7.513,7.5091,7.5091,7.5091,7.5091,7.5091,7.5091,7.5399,7.5707,7.6015,7.6015,7.6015,7.6015,7.6015,7.6015,7.5976,7.5668,7.5707,7.6015,7.6015,7.6015,7.6015,7.6015,7.6015,7.6015,7.6015,7.6015,7.6015,7.6015,7.6015,7.6015,7.6015,7.6015,7.6015,7.6015,7.6015,7.6015,7.6015,7.6015,7.6015,7.6015,7.6015,7.6015,7.6015,7.6015,7.6015,7.6015,7.6015,7.6015,7.6015,7.6015,7.6015,7.6015,7.6015,7.6015,7.6015,7.6015,7.6015,7.6015,7.6015,7.6015,7.6015,7.6015,7.6015,7.6015,7.6015,7.6015,7.6015,7.5707,7.5515,7.5515,7.47,7.4276,7.4276,7.3476,7.2629,7.1745,7.1168,7.0898,7.0898,7.0898,7.0898,7.0898,7.0898,7.0898,7.0898,7.0898,7.0898,7.0898,7.0898,7.0898,7.0898,7.136,7.186,7.2136,7.3091,7.4245,7.5399,7.5822,7.6015,7.6015,7.6015,7.6015,7.6015,7.6015,7.6015,7.6015,7.6015,7.6015,7.6015,7.6015,7.6015,7.6015,7.6015,7.6015,7.6015,7.6015,7.6015,7.6015,7.6015,7.6015,7.6015,7.6015,7.6015,7.6015,7.6015,7.6015,7.6015,7.6015,7.6015,7.6015,7.6015,7.6015,7.6015,7.6015,7.6015,7.6015,7.6015,7.6015,7.6015,7.6015,7.6015,7.6015,7.6015,7.6015,7.6015,7.6015,7.6015,7.6015,7.6015,7.6015,7.6015,7.6015,7.6015,7.6015,7.6015,7.6015,7.6015,7.6015,7.6015,7.6015,7.6015,7.6015,7.6015,7.6015,7.6015,7.6015,7.6015,7.6015,7.6015,7.6015,7.6015,7.6015,7.6015,7.6015,7.6015,7.6015,7.6015,7.6015,7.6015,7.6015,7.6015,7.6015,7.5438,7.513,7.513,7.4315,7.363,7.3053,7.1898,7.1321,7.1321,7.1052,7.0898,0.0,0.0,0.0,7.0898,7.0898,7.0898,7.0898,7.0898,7.0898,7.0898,7.0898,7.1168,7.2021,7.2175,7.2745,7.4361,7.5399,7.5976,7.5976,7.5976,7.6015,7.6015,7.6015,7.6015,7.6015,7.6015,7.6015,7.6015,7.6015,7.6015,7.6015,7.6015,7.6015,7.6015,7.6015,7.6015,7.6015,7.6015,7.6015,7.6015,7.6015,7.6015,7.6015,7.6015,7.6015,7.6015,7.6015,7.6015,7.6015,7.6015,7.6015,7.6015,7.6015,7.6015,7.6015,7.6015,7.6015,7.6015,7.6015,7.6015,7.6015,7.6015,7.6015,7.6015,7.6015,7.6015,7.6015,7.6015,7.6015,7.6015,7.6015,7.6015,7.6015,7.6015,7.6015,7.6015,7.6015,7.6015,7.6015,7.6015,7.6015,7.6015,7.6015,7.6015,7.6015,7.6015,7.6015,7.6015,7.6015,7.6015,7.6015,7.6015,7.6015,7.6015,7.6015,7.6015,7.6015,7.6015,7.6015,7.6015,7.6015,7.6015,7.6015,7.6015,7.5168,7.4738,7.4738,7.3053,7.2252,7.2213,7.1321,7.0937,7.0898,0.0,0.0,0.0,0.0,0.0,7.0898,7.0898,7.0898,7.0898,7.0898,7.0975,7.1206,7.179,7.2367,7.2822,7.4091,7.5046,7.5046,7.5592,7.6015,7.6015,7.6015,7.6015,7.6015,7.6015,7.6015,7.6015,7.6015,7.6015,7.6015,7.6015,7.6015,7.6015,7.6015,7.6015,7.6015,7.6015,7.6015,7.6015,7.6015,7.6015,7.6015,7.6015,7.6015,7.6015,7.6015,7.6015,7.6015,7.6015,7.6015,7.6015,7.6015,7.6015,7.6015,7.6015,7.6015,7.6015,7.6015,7.6015,7.6015,7.6015,7.6015,7.6015,7.6015,7.6015,7.6015,7.6015,7.6015,7.6015,7.6015,7.6015,7.6015,7.6015,7.6015,7.6015,7.6015,7.6015,7.6015,7.6015,7.6015,7.6015,7.6015,7.6015,7.6015,7.6015,7.6015,7.6015,7.6015,7.6015,7.6015,7.6015,7.6015,7.6015,7.6015,7.6015,7.6015,7.6015,7.6015,7.6015,7.6015,7.6015,7.6015,7.6015,7.5745,7.563,7.563,7.3976,7.3122,7.3129,7.2245,7.1514,0.0,0.0,0.0,7.0898,0.0,0.0,7.0898,7.0898,7.0898,7.0898,7.0898,7.0898,7.0898,7.1321,7.1668,7.1668,7.2783,7.3783,7.4161,7.463,7.5091,7.5438,7.5476,7.5592,7.5976,7.6015,7.6015,7.6015,7.6015,7.6015,7.6015,7.6015,7.6015,7.6015,7.6015,7.6015,7.6015,7.6015,7.6015,7.6015,7.6015,7.6015,7.6015,7.6015,7.6015,7.6015,7.6015,7.6015,7.6015,7.6015,7.6015,7.6015,7.6015,7.6015,7.6015,7.6015,7.6015,7.6015,7.6015,7.6015,7.6015,7.6015,7.6015,7.6015,7.6015,7.6015,7.6015,7.6015,7.6015,7.6015,7.6015,7.6015,7.6015,7.6015,7.6015,7.6015,7.6015,7.6015,7.6015,7.6015,7.6015,7.6015,7.6015,7.6015,7.6015,7.6015,7.6015,7.6015,7.6015,7.6015,7.6015,7.6015,7.6015,7.6015,7.6015,7.6015,7.6015,7.6015,7.6015,7.6015,7.6015,7.6015,7.6015,7.6015,7.6015,7.6015,7.6015,7.4661,7.3815,7.3507,7.2976,7.2476,0.0,0.0,0.0,0.0,0.0,0.0,7.0898,7.0898,7.0898,7.0898,7.0898,7.0898,7.0898,7.0898,7.0898,7.0898,7.1552,7.236,7.3238,7.343,7.3776,7.4469,7.4661,7.5007,7.5784,7.5938,7.6015,7.6015,7.6015,7.6015,7.6015,7.6015,7.6015,7.6015,7.6015,7.6015,7.6015,7.6015,7.6015,7.6015,7.6015,7.6015,7.6015,7.6015,7.6015,7.6015,7.6015,7.6015,7.6015,7.6015,7.6015,7.6015,7.6015,7.6015,7.6015,7.6015,7.6015,7.6015,7.6015,7.6015,7.6015,7.6015,7.6015,7.6015,7.6015,7.6015,7.6015,7.6015,7.6015,7.6015,7.6015,7.6015,7.6015,7.6015,7.6015,7.6015,7.6015,7.6015,7.6015,7.6015,7.6015,7.6015,7.6015,7.6015,7.6015,7.6015,7.6015,7.6015,7.6015,7.6015,7.6015,7.6015,7.6015,7.6015,7.6015,7.6015,7.6015,7.6015,7.6015,7.6015,7.6015,7.6015,7.6015,7.6015,7.6015,7.6015,7.6015,7.5207,7.443,7.3623,7.3623,7.3584,0.0,0.0,0.0,0.0,0.0,0.0,7.0898,7.0898,7.0898,7.0898,7.0898,7.0898,7.0898,7.0898,7.0898,7.0898,7.1052,7.1475,7.2322,7.3053,7.3546,7.3738,7.4315,7.4776,7.493,7.5592,7.6015,7.6015,7.6015,7.6015,7.6015,7.6015,7.6015,7.6015,7.6015,7.6015,7.6015,7.6015,7.6015,7.6015,7.6015,7.6015,7.6015,7.6015,7.6015,7.6015,7.6015,7.6015,7.6015,7.6015,7.6015,7.6015,7.6015,7.6015,7.6015,7.6015,7.6015,7.6015,7.6015,7.6015,7.6015,7.6015,7.6015,7.6015,7.6015,7.6015,7.6015,7.6015,7.6015,7.6015,7.6015,7.6015,7.6015,7.6015,7.6015,7.6015,7.6015,7.6015,7.6015,7.6015,7.6015,7.6015,7.6015,7.6015,7.6015,7.6015,7.6015,7.6015,7.6015,7.6015,7.6015,7.6015,7.6015,7.6015,7.6015,7.6015,7.6015,7.6015,7.6015,7.6015,7.6015,7.6015,7.6015,7.6015,7.6015,7.6015,7.6015,7.5822,7.5322,7.4469,7.4469,7.4123,0.0,0.0,0.0,7.0898,0.0,0.0,0.0,7.0898,7.0898,7.0898,7.0898,7.0898,7.0898,7.0898,7.0898,7.0898,7.0898,7.1052,7.1475,7.1937,7.2353,7.2783,7.3206,7.363,7.4046,7.4861,7.5515,7.5976,7.6015,7.6015,7.6015,7.6015,7.6015,7.6015,7.6015,7.6015,7.6015,7.6015,7.6015,7.6015,7.6015,7.6015,7.6015,7.6015,7.6015,7.6015,7.6015,7.6015,7.6015,7.6015,7.6015,7.6015,7.6015,7.6015,7.6015,7.6015,7.6015,7.6015,7.6015,7.6015,7.6015,7.6015,7.6015,7.6015,7.6015,7.6015,7.6015,7.6015,7.6015,7.6015,7.6015,7.6015,7.6015,7.6015,7.6015,7.6015,7.6015,7.6015,7.6015,7.6015,7.6015,7.6015,7.6015,7.6015,7.6015,7.6015,7.6015,7.6015,7.6015,7.6015,7.6015,7.6015,7.6015,7.6015,7.6015,7.6015,7.6015,7.6015,7.6015,7.6015,7.6015,7.6015,7.6015,7.6015,7.6015,7.6015,7.6015,7.6015,7.5784,7.5361,7.5361,7.513,0.0,0.0,0.0,0.0,0.0,7.0898,0.0,0.0,0.0,7.0898,7.0898,7.0898,7.0898,7.0898,7.0898,7.0898,7.0898,7.0898,7.0898,7.0898,7.1168,7.1867,7.2098,7.2476,7.3161,7.4123,7.4976,7.5707,7.5899,7.6015,7.6015,7.6015,7.6015,7.6015,7.6015,7.6015,7.6015,7.6015,7.6015,7.6015,7.6015,7.6015,7.6015,7.6015,7.6015,7.6015,7.6015,7.6015,7.6015,7.6015,7.6015,7.6015,7.6015,7.6015,7.6015,7.6015,7.6015,7.6015,7.6015,7.6015,7.6015,7.6015,7.6015,7.6015,7.6015,7.6015,7.6015,7.6015,7.6015,7.6015,7.6015,7.6015,7.6015,7.6015,7.6015,7.6015,7.6015,7.6015,7.6015,7.6015,7.6015,7.6015,7.6015,7.6015,7.6015,7.6015,7.6015,7.6015,7.6015,7.6015,7.6015,7.6015,7.6015,7.6015,7.6015,7.6015,7.6015,7.6015,7.6015,7.6015,7.6015,7.6015,7.6015,7.6015,7.6015,7.6015,7.6015,7.6015,7.6015,7.6015,7.6015,7.6015,0.0,0.0,0.0,0.0,7.0898,0.0,0.0,0.0,7.0898,7.0898,0.0,7.0898,7.0898,0.0,0.0,7.0898,7.0898,7.0898,7.0898,7.0898,7.0937,7.1052,7.1745,7.2252,7.2329,7.3783,7.4738,7.4853,7.5553,7.6015,7.6015,7.6015,7.6015,7.6015,7.6015,7.6015,7.6015,7.6015,7.6015,7.6015,7.6015,7.6015,7.6015,7.6015,7.6015,7.6015,7.6015,7.6015,7.6015,7.6015,7.6015,7.6015,7.6015,7.6015,7.6015,7.6015,7.6015,7.6015,7.6015,7.6015,7.6015,7.6015,7.6015,7.6015,7.6015,7.6015,7.6015,7.6015,7.6015,7.6015,7.6015,7.6015,7.6015,7.6015,7.6015,7.6015,7.6015,7.6015,7.6015,7.6015,7.6015,7.6015,7.6015,7.6015,7.6015,7.6015,7.6015,7.6015,7.6015,7.6015,7.6015,7.6015,7.6015,7.6015,7.6015,7.6015,7.6015,7.6015,7.6015,7.6015,7.6015,7.6015,7.6015,7.6015,7.6015,7.6015,7.6015,7.6015,7.6015,7.6015,7.6015,7.6015,0.0,0.0,0.0,0.0,0.0,0.0,7.0898,0.0,7.0898,0.0,0.0,0.0,0.0,0.0,0.0,0.0,7.0898,7.0898,7.0898,7.0898,7.0898,7.0898,7.1206,7.1636,7.2136,7.2822,7.3668,7.4623,7.5053,7.5476,7.5976,7.6015,7.6015,7.6015,7.6015,7.6015,7.6015,7.6015,7.6015,7.6015,7.6015,7.6015,7.6015,7.6015,7.6015,7.6015,7.6015,7.6015,7.6015,7.6015,7.6015,7.6015,7.6015,7.6015,7.6015,7.6015,7.6015,7.6015,7.6015,7.6015,7.6015,7.6015,7.6015,7.6015,7.6015,7.6015,7.6015,7.6015,7.6015,7.6015,7.6015,7.6015,7.6015,7.6015,7.6015,7.6015,7.6015,7.6015,7.6015,7.6015,7.6015,7.6015,7.6015,7.6015,7.6015,7.6015,7.6015,7.6015,7.6015,7.6015,7.6015,7.6015,7.6015,7.6015,7.6015,7.6015,7.6015,7.6015,7.6015,7.6015,7.6015,7.6015,7.6015,7.6015,7.6015,7.6015,7.6015,7.6015,7.6015,7.6015,7.6015,7.6015,7.0898,0.0,0.0,0.0,0.0,0.0,0.0,0.0,0.0,0.0,0.0,0.0,0.0,0.0,0.0,0.0,0.0,7.0898,7.0898,7.0898,7.0898,7.0898,7.0898,7.1168,7.1783,7.2059,7.2783,7.4238,7.4584,7.5084,7.5938,7.6015,7.6015,7.6015,7.6015,7.6015,7.6015,7.6015,7.6015,7.6015,7.6015,7.6015,7.6015,7.6015,7.6015,7.6015,7.6015,7.6015,7.6015,7.6015,7.6015,7.6015,7.6015,7.6015,7.6015,7.6015,7.6015,7.6015,7.6015,7.6015,7.6015,7.6015,7.6015,7.6015,7.6015,7.6015,7.6015,7.6015,7.6015,7.6015,7.6015,7.6015,7.6015,7.6015,7.6015,7.6015,7.6015,7.6015,7.6015,7.6015,7.6015,7.6015,7.6015,7.6015,7.6015,7.6015,7.6015,7.6015,7.6015,7.6015,7.6015,7.6015,7.6015,7.6015,7.6015,7.6015,7.6015,7.6015,7.6015,7.6015,7.6015,7.6015,7.6015,7.6015,7.6015,7.6015,7.6015,7.6015,7.6015,7.6015,7.6015,7.6015,0.0,0.0,0.0,7.0898,0.0,0.0,0.0,0.0,7.0898,0.0,0.0,0.0,0.0,0.0,0.0,0.0,0.0,0.0,0.0,7.0898,7.0898,7.0898,7.0898,7.0898,7.0937,7.1713,7.2552,7.3469,7.4276,7.5084,7.5938,7.6015,7.6015,7.6015,7.6015,7.6015,7.6015,7.6015,7.6015,7.6015,7.6015,7.6015,7.6015,7.6015,7.6015,7.6015,7.6015,7.6015,7.6015,7.6015,7.6015,7.6015,7.6015,7.6015,7.6015,7.6015,7.6015,7.6015,7.6015,7.6015,7.6015,7.6015,7.6015,7.6015,7.6015,7.6015,7.6015,7.6015,7.6015,7.6015,7.6015,7.6015,7.6015,7.6015,7.6015,7.6015,7.6015,7.6015,7.6015,7.6015,7.6015,7.6015,7.6015,7.6015,7.6015,7.6015,7.6015,7.6015,7.6015,7.6015,7.6015,7.6015,7.6015,7.6015,7.6015,7.6015,7.6015,7.6015,7.6015,7.6015,7.6015,7.6015,7.6015,7.6015,7.6015,7.6015,7.6015,7.6015,7.6015,7.6015,7.6015,7.6015,0.0,0.0,7.0898,7.0898,0.0,0.0,0.0,0.0,0.0,0.0,0.0,0.0,0.0,0.0,0.0,0.0,0.0,0.0,0.0,7.0898,7.0898,7.0898,0.0,0.0,0.0,7.1168,7.1937,7.3392,7.3738,7.4514,7.5938,7.6015,7.6015,7.6015,7.6015,7.6015,7.6015,7.6015,7.6015,7.6015,7.6015,7.6015,7.6015,7.6015,7.6015,7.6015,7.6015,7.6015,7.6015,7.6015,7.6015,7.6015,7.6015,7.6015,7.6015,7.6015,7.6015,7.6015,7.6015,7.6015,7.6015,7.6015,7.6015,7.6015,7.6015,7.6015,7.6015,7.6015,7.6015,7.6015,7.6015,7.6015,7.6015,7.6015,7.6015,7.6015,7.6015,7.6015,7.6015,7.6015,7.6015,7.6015,7.6015,7.6015,7.6015,7.6015,7.6015,7.6015,7.6015,7.6015,7.6015,7.6015,7.6015,7.6015,7.6015,7.6015,7.6015,7.6015,7.6015,7.6015,7.6015,7.6015,7.6015,7.6015,7.6015,7.6015,7.6015,7.6015,7.6015,7.6015,7.6015,7.6015,7.0898,7.0898,0.0,7.0898,7.0898,0.0,7.0898,0.0,0.0,0.0,0.0,0.0,0.0,0.0,0.0,0.0,0.0,0.0,0.0,7.0898,0.0,7.0898,0.0,0.0,0.0,0.0,0.0,7.3353,0.0,0.0,0.0,7.6015,7.6015,7.6015,7.6015,7.6015,7.6015,7.6015,7.6015,7.6015,7.6015,7.6015,7.6015,7.6015,7.6015,7.6015,7.6015,7.6015,7.6015,7.6015,7.6015,7.6015,7.6015,7.6015,7.6015,7.6015,7.6015,7.6015,7.6015,7.6015,7.6015,7.6015,7.6015,7.6015,7.6015,7.6015,7.613,7.6707,7.6476,7.613,7.6746,7.6438,7.6015,7.6015,7.6015,7.6092,7.6399,7.6476,7.6553,7.6823,7.6899,7.6899,7.6899,7.6899,7.6669,7.6092,7.6015,7.6015,7.6015,7.6015,7.6015,7.6015,7.6015,7.6015,7.6015,7.6015,7.6015,7.6015,7.6015,7.6015,7.6015,7.6015,7.6284,7.6861,7.6284,7.6284,7.6899,7.6284,7.6015,7.6015,7.6015,7.6015]}]]